<?xml version="1.0" encoding="UTF-8" standalone="no" ?>
<gpx xmlns="http://www.topografix.com/GPX/1/1" xmlns:xsi="http://www.w3.org/2001/XMLSchema-instance" xsi:schemaLocation="http://www.topografix.com/GPX/1/1 http://www.topografix.com/GPX/1/1/gpx.xsd" version="1.1" creator="VisuGPX - https://www.visugpx.com">
  <metadata>
    <name>RANDO AUTOUR DE CEAUX D.ALLEGRE27 KM</name>
    <desc><![CDATA[RANDO CEAUX D ALLEGRE 27 KM.DEPART ARRIVEE CEAUX 43270.SERRES.MOULIN DE RAZES.RAZONNET.VERNASSAL.CROIX D/ALLEGRE.LES CROZES.SASSAC.SARZOL.ALLEGRE.]]></desc>
  </metadata>
  <trk>
    <name><![CDATA[2025-02-23 15:43:58]]></name>
    <extensions>
      <line xmlns="http://www.topografix.com/GPX/gpx_style/0/2">
        <color>0000FF</color>
        <width>4</width>
      </line>
    </extensions>
    <trkseg>
      <trkpt lat="45.18072" lon="3.7469">
        <ele>902.33</ele>
        <time>2025-02-23T08:22:05Z</time>
      </trkpt>
      <trkpt lat="45.18078" lon="3.74684">
        <ele>908.1</ele>
        <time>2025-02-23T08:22:19Z</time>
      </trkpt>
      <trkpt lat="45.18078" lon="3.74682">
        <ele>911.47</ele>
        <time>2025-02-23T08:22:37Z</time>
      </trkpt>
      <trkpt lat="45.18076" lon="3.74684">
        <ele>914.83</ele>
        <time>2025-02-23T08:22:59Z</time>
      </trkpt>
      <trkpt lat="45.18079" lon="3.74682">
        <ele>914.83</ele>
        <time>2025-02-23T08:23:22Z</time>
      </trkpt>
      <trkpt lat="45.18079" lon="3.74679">
        <ele>915.79</ele>
        <time>2025-02-23T08:23:47Z</time>
      </trkpt>
      <trkpt lat="45.18078" lon="3.74678">
        <ele>914.35</ele>
        <time>2025-02-23T08:24:12Z</time>
      </trkpt>
      <trkpt lat="45.18077" lon="3.74678">
        <ele>913.39</ele>
        <time>2025-02-23T08:24:20Z</time>
      </trkpt>
      <trkpt lat="45.18089" lon="3.74641">
        <ele>912.91</ele>
        <time>2025-02-23T08:24:43Z</time>
      </trkpt>
      <trkpt lat="45.18095" lon="3.74602">
        <ele>914.35</ele>
        <time>2025-02-23T08:25:03Z</time>
      </trkpt>
      <trkpt lat="45.18097" lon="3.74567">
        <ele>914.83</ele>
        <time>2025-02-23T08:25:22Z</time>
      </trkpt>
      <trkpt lat="45.18092" lon="3.74535">
        <ele>913.39</ele>
        <time>2025-02-23T08:25:43Z</time>
      </trkpt>
      <trkpt lat="45.18084" lon="3.74495">
        <ele>910.99</ele>
        <time>2025-02-23T08:26:05Z</time>
      </trkpt>
      <trkpt lat="45.18079" lon="3.74483">
        <ele>911.95</ele>
        <time>2025-02-23T08:26:12Z</time>
      </trkpt>
      <trkpt lat="45.18069" lon="3.74453">
        <ele>914.83</ele>
        <time>2025-02-23T08:26:29Z</time>
      </trkpt>
      <trkpt lat="45.18057" lon="3.74408">
        <ele>912.91</ele>
        <time>2025-02-23T08:26:55Z</time>
      </trkpt>
      <trkpt lat="45.18043" lon="3.74355">
        <ele>911.47</ele>
        <time>2025-02-23T08:27:21Z</time>
      </trkpt>
      <trkpt lat="45.1804" lon="3.7433">
        <ele>909.06</ele>
        <time>2025-02-23T08:27:34Z</time>
      </trkpt>
      <trkpt lat="45.18035" lon="3.74281">
        <ele>902.33</ele>
        <time>2025-02-23T08:28:00Z</time>
      </trkpt>
      <trkpt lat="45.18028" lon="3.7423">
        <ele>899.93</ele>
        <time>2025-02-23T08:28:24Z</time>
      </trkpt>
      <trkpt lat="45.18024" lon="3.742">
        <ele>898.01</ele>
        <time>2025-02-23T08:28:41Z</time>
      </trkpt>
      <trkpt lat="45.1802" lon="3.74164">
        <ele>897.05</ele>
        <time>2025-02-23T08:29:01Z</time>
      </trkpt>
      <trkpt lat="45.18019" lon="3.74118">
        <ele>891.28</ele>
        <time>2025-02-23T08:29:28Z</time>
      </trkpt>
      <trkpt lat="45.1802" lon="3.74068">
        <ele>888.88</ele>
        <time>2025-02-23T08:29:52Z</time>
      </trkpt>
      <trkpt lat="45.18019" lon="3.74027">
        <ele>889.84</ele>
        <time>2025-02-23T08:30:12Z</time>
      </trkpt>
      <trkpt lat="45.1802" lon="3.73986">
        <ele>892.24</ele>
        <time>2025-02-23T08:30:32Z</time>
      </trkpt>
      <trkpt lat="45.18023" lon="3.73974">
        <ele>892.72</ele>
        <time>2025-02-23T08:30:40Z</time>
      </trkpt>
      <trkpt lat="45.18038" lon="3.73931">
        <ele>893.2</ele>
        <time>2025-02-23T08:31:06Z</time>
      </trkpt>
      <trkpt lat="45.18052" lon="3.73887">
        <ele>896.57</ele>
        <time>2025-02-23T08:31:32Z</time>
      </trkpt>
      <trkpt lat="45.18064" lon="3.73845">
        <ele>901.85</ele>
        <time>2025-02-23T08:31:56Z</time>
      </trkpt>
      <trkpt lat="45.1808" lon="3.7381">
        <ele>905.7</ele>
        <time>2025-02-23T08:32:21Z</time>
      </trkpt>
      <trkpt lat="45.18094" lon="3.73775">
        <ele>910.03</ele>
        <time>2025-02-23T08:32:44Z</time>
      </trkpt>
      <trkpt lat="45.18099" lon="3.73742">
        <ele>910.99</ele>
        <time>2025-02-23T08:33:04Z</time>
      </trkpt>
      <trkpt lat="45.18099" lon="3.73708">
        <ele>915.79</ele>
        <time>2025-02-23T08:33:27Z</time>
      </trkpt>
      <trkpt lat="45.18094" lon="3.73698">
        <ele>918.2</ele>
        <time>2025-02-23T08:33:40Z</time>
      </trkpt>
      <trkpt lat="45.18095" lon="3.73695">
        <ele>918.2</ele>
        <time>2025-02-23T08:33:42Z</time>
      </trkpt>
      <trkpt lat="45.18102" lon="3.73671">
        <ele>919.64</ele>
        <time>2025-02-23T08:33:58Z</time>
      </trkpt>
      <trkpt lat="45.18113" lon="3.7365">
        <ele>920.6</ele>
        <time>2025-02-23T08:34:14Z</time>
      </trkpt>
      <trkpt lat="45.18132" lon="3.7362">
        <ele>921.56</ele>
        <time>2025-02-23T08:34:35Z</time>
      </trkpt>
      <trkpt lat="45.18145" lon="3.73591">
        <ele>921.08</ele>
        <time>2025-02-23T08:34:54Z</time>
      </trkpt>
      <trkpt lat="45.18155" lon="3.73566">
        <ele>921.56</ele>
        <time>2025-02-23T08:35:10Z</time>
      </trkpt>
      <trkpt lat="45.18171" lon="3.73531">
        <ele>923.96</ele>
        <time>2025-02-23T08:35:32Z</time>
      </trkpt>
      <trkpt lat="45.1817" lon="3.7353">
        <ele>923</ele>
        <time>2025-02-23T08:35:49Z</time>
      </trkpt>
      <trkpt lat="45.18181" lon="3.73502">
        <ele>925.89</ele>
        <time>2025-02-23T08:36:03Z</time>
      </trkpt>
      <trkpt lat="45.18189" lon="3.73464">
        <ele>927.33</ele>
        <time>2025-02-23T08:36:17Z</time>
      </trkpt>
      <trkpt lat="45.18194" lon="3.73439">
        <ele>926.37</ele>
        <time>2025-02-23T08:36:29Z</time>
      </trkpt>
      <trkpt lat="45.18195" lon="3.73425">
        <ele>926.37</ele>
        <time>2025-02-23T08:36:37Z</time>
      </trkpt>
      <trkpt lat="45.18195" lon="3.73423">
        <ele>926.85</ele>
        <time>2025-02-23T08:36:38Z</time>
      </trkpt>
      <trkpt lat="45.182" lon="3.73394">
        <ele>927.81</ele>
        <time>2025-02-23T08:36:54Z</time>
      </trkpt>
      <trkpt lat="45.18204" lon="3.73372">
        <ele>927.33</ele>
        <time>2025-02-23T08:37:08Z</time>
      </trkpt>
      <trkpt lat="45.18213" lon="3.73346">
        <ele>926.85</ele>
        <time>2025-02-23T08:37:23Z</time>
      </trkpt>
      <trkpt lat="45.18222" lon="3.73329">
        <ele>928.77</ele>
        <time>2025-02-23T08:37:39Z</time>
      </trkpt>
      <trkpt lat="45.18222" lon="3.73328">
        <ele>929.25</ele>
        <time>2025-02-23T08:37:46Z</time>
      </trkpt>
      <trkpt lat="45.18222" lon="3.73326">
        <ele>929.25</ele>
        <time>2025-02-23T08:37:47Z</time>
      </trkpt>
      <trkpt lat="45.18223" lon="3.73325">
        <ele>929.25</ele>
        <time>2025-02-23T08:37:48Z</time>
      </trkpt>
      <trkpt lat="45.18239" lon="3.73292">
        <ele>930.69</ele>
        <time>2025-02-23T08:38:10Z</time>
      </trkpt>
      <trkpt lat="45.18256" lon="3.73269">
        <ele>930.69</ele>
        <time>2025-02-23T08:38:26Z</time>
      </trkpt>
      <trkpt lat="45.18277" lon="3.73245">
        <ele>930.69</ele>
        <time>2025-02-23T08:38:43Z</time>
      </trkpt>
      <trkpt lat="45.1829" lon="3.7323">
        <ele>931.65</ele>
        <time>2025-02-23T08:38:54Z</time>
      </trkpt>
      <trkpt lat="45.18297" lon="3.73228">
        <ele>931.65</ele>
        <time>2025-02-23T08:39:06Z</time>
      </trkpt>
      <trkpt lat="45.18297" lon="3.73223">
        <ele>931.65</ele>
        <time>2025-02-23T08:39:10Z</time>
      </trkpt>
      <trkpt lat="45.18288" lon="3.73189">
        <ele>927.33</ele>
        <time>2025-02-23T08:39:28Z</time>
      </trkpt>
      <trkpt lat="45.18272" lon="3.73158">
        <ele>921.08</ele>
        <time>2025-02-23T08:39:48Z</time>
      </trkpt>
      <trkpt lat="45.18247" lon="3.73127">
        <ele>921.56</ele>
        <time>2025-02-23T08:40:07Z</time>
      </trkpt>
      <trkpt lat="45.18227" lon="3.73099">
        <ele>922.04</ele>
        <time>2025-02-23T08:40:26Z</time>
      </trkpt>
      <trkpt lat="45.18211" lon="3.7307">
        <ele>921.08</ele>
        <time>2025-02-23T08:40:44Z</time>
      </trkpt>
      <trkpt lat="45.18198" lon="3.73034">
        <ele>921.08</ele>
        <time>2025-02-23T08:41:03Z</time>
      </trkpt>
      <trkpt lat="45.18193" lon="3.72998">
        <ele>921.08</ele>
        <time>2025-02-23T08:41:22Z</time>
      </trkpt>
      <trkpt lat="45.18188" lon="3.72962">
        <ele>921.56</ele>
        <time>2025-02-23T08:41:40Z</time>
      </trkpt>
      <trkpt lat="45.18179" lon="3.72932">
        <ele>924.45</ele>
        <time>2025-02-23T08:41:58Z</time>
      </trkpt>
      <trkpt lat="45.18175" lon="3.72918">
        <ele>925.41</ele>
        <time>2025-02-23T08:42:11Z</time>
      </trkpt>
      <trkpt lat="45.18169" lon="3.72887">
        <ele>926.85</ele>
        <time>2025-02-23T08:42:29Z</time>
      </trkpt>
      <trkpt lat="45.18164" lon="3.72859">
        <ele>930.21</ele>
        <time>2025-02-23T08:42:46Z</time>
      </trkpt>
      <trkpt lat="45.1816" lon="3.72826">
        <ele>932.62</ele>
        <time>2025-02-23T08:43:03Z</time>
      </trkpt>
      <trkpt lat="45.18149" lon="3.72796">
        <ele>934.54</ele>
        <time>2025-02-23T08:43:19Z</time>
      </trkpt>
      <trkpt lat="45.18144" lon="3.72781">
        <ele>937.42</ele>
        <time>2025-02-23T08:43:38Z</time>
      </trkpt>
      <trkpt lat="45.18144" lon="3.72778">
        <ele>937.9</ele>
        <time>2025-02-23T08:43:42Z</time>
      </trkpt>
      <trkpt lat="45.18143" lon="3.72777">
        <ele>937.9</ele>
        <time>2025-02-23T08:43:43Z</time>
      </trkpt>
      <trkpt lat="45.18142" lon="3.72775">
        <ele>937.9</ele>
        <time>2025-02-23T08:43:44Z</time>
      </trkpt>
      <trkpt lat="45.18141" lon="3.72774">
        <ele>937.9</ele>
        <time>2025-02-23T08:43:45Z</time>
      </trkpt>
      <trkpt lat="45.18141" lon="3.72772">
        <ele>938.38</ele>
        <time>2025-02-23T08:43:46Z</time>
      </trkpt>
      <trkpt lat="45.1814" lon="3.72771">
        <ele>938.38</ele>
        <time>2025-02-23T08:43:47Z</time>
      </trkpt>
      <trkpt lat="45.18139" lon="3.72769">
        <ele>938.38</ele>
        <time>2025-02-23T08:43:48Z</time>
      </trkpt>
      <trkpt lat="45.18128" lon="3.72739">
        <ele>941.27</ele>
        <time>2025-02-23T08:44:05Z</time>
      </trkpt>
      <trkpt lat="45.18117" lon="3.72704">
        <ele>942.71</ele>
        <time>2025-02-23T08:44:22Z</time>
      </trkpt>
      <trkpt lat="45.18102" lon="3.72669">
        <ele>946.07</ele>
        <time>2025-02-23T08:44:41Z</time>
      </trkpt>
      <trkpt lat="45.18082" lon="3.72659">
        <ele>946.07</ele>
        <time>2025-02-23T08:44:59Z</time>
      </trkpt>
      <trkpt lat="45.1807" lon="3.72675">
        <ele>944.63</ele>
        <time>2025-02-23T08:45:13Z</time>
      </trkpt>
      <trkpt lat="45.18068" lon="3.72676">
        <ele>944.15</ele>
        <time>2025-02-23T08:45:14Z</time>
      </trkpt>
      <trkpt lat="45.18039" lon="3.72701">
        <ele>940.79</ele>
        <time>2025-02-23T08:45:35Z</time>
      </trkpt>
      <trkpt lat="45.18014" lon="3.727">
        <ele>937.9</ele>
        <time>2025-02-23T08:45:54Z</time>
      </trkpt>
      <trkpt lat="45.17994" lon="3.72676">
        <ele>934.06</ele>
        <time>2025-02-23T08:46:14Z</time>
      </trkpt>
      <trkpt lat="45.17978" lon="3.7265">
        <ele>932.14</ele>
        <time>2025-02-23T08:46:32Z</time>
      </trkpt>
      <trkpt lat="45.17962" lon="3.72622">
        <ele>930.69</ele>
        <time>2025-02-23T08:46:50Z</time>
      </trkpt>
      <trkpt lat="45.17948" lon="3.72594">
        <ele>928.29</ele>
        <time>2025-02-23T08:47:08Z</time>
      </trkpt>
      <trkpt lat="45.17942" lon="3.7258">
        <ele>927.33</ele>
        <time>2025-02-23T08:47:25Z</time>
      </trkpt>
      <trkpt lat="45.17948" lon="3.72577">
        <ele>926.37</ele>
        <time>2025-02-23T08:47:37Z</time>
      </trkpt>
      <trkpt lat="45.17951" lon="3.72579">
        <ele>923.96</ele>
        <time>2025-02-23T08:47:56Z</time>
      </trkpt>
      <trkpt lat="45.17948" lon="3.72571">
        <ele>923.96</ele>
        <time>2025-02-23T08:48:17Z</time>
      </trkpt>
      <trkpt lat="45.17947" lon="3.72569">
        <ele>923.96</ele>
        <time>2025-02-23T08:48:25Z</time>
      </trkpt>
      <trkpt lat="45.17931" lon="3.72548">
        <ele>921.56</ele>
        <time>2025-02-23T08:48:43Z</time>
      </trkpt>
      <trkpt lat="45.17914" lon="3.72539">
        <ele>920.12</ele>
        <time>2025-02-23T08:48:59Z</time>
      </trkpt>
      <trkpt lat="45.17896" lon="3.72522">
        <ele>915.31</ele>
        <time>2025-02-23T08:49:18Z</time>
      </trkpt>
      <trkpt lat="45.17887" lon="3.72519">
        <ele>913.87</ele>
        <time>2025-02-23T08:49:26Z</time>
      </trkpt>
      <trkpt lat="45.17866" lon="3.72517">
        <ele>910.03</ele>
        <time>2025-02-23T08:49:45Z</time>
      </trkpt>
      <trkpt lat="45.17847" lon="3.72506">
        <ele>908.1</ele>
        <time>2025-02-23T08:49:58Z</time>
      </trkpt>
      <trkpt lat="45.1783" lon="3.72481">
        <ele>907.14</ele>
        <time>2025-02-23T08:50:16Z</time>
      </trkpt>
      <trkpt lat="45.1782" lon="3.72464">
        <ele>906.66</ele>
        <time>2025-02-23T08:50:28Z</time>
      </trkpt>
      <trkpt lat="45.17807" lon="3.72439">
        <ele>906.18</ele>
        <time>2025-02-23T08:50:45Z</time>
      </trkpt>
      <trkpt lat="45.17772" lon="3.7243">
        <ele>905.22</ele>
        <time>2025-02-23T08:51:10Z</time>
      </trkpt>
      <trkpt lat="45.17745" lon="3.72431">
        <ele>903.78</ele>
        <time>2025-02-23T08:51:29Z</time>
      </trkpt>
      <trkpt lat="45.17715" lon="3.72434">
        <ele>902.82</ele>
        <time>2025-02-23T08:51:53Z</time>
      </trkpt>
      <trkpt lat="45.17712" lon="3.72431">
        <ele>902.82</ele>
        <time>2025-02-23T08:51:56Z</time>
      </trkpt>
      <trkpt lat="45.17684" lon="3.72431">
        <ele>899.93</ele>
        <time>2025-02-23T08:52:17Z</time>
      </trkpt>
      <trkpt lat="45.1766" lon="3.72451">
        <ele>898.97</ele>
        <time>2025-02-23T08:52:38Z</time>
      </trkpt>
      <trkpt lat="45.17638" lon="3.72471">
        <ele>898.49</ele>
        <time>2025-02-23T08:52:56Z</time>
      </trkpt>
      <trkpt lat="45.17611" lon="3.72484">
        <ele>897.05</ele>
        <time>2025-02-23T08:53:16Z</time>
      </trkpt>
      <trkpt lat="45.17588" lon="3.72491">
        <ele>897.05</ele>
        <time>2025-02-23T08:53:33Z</time>
      </trkpt>
      <trkpt lat="45.1757" lon="3.725">
        <ele>894.64</ele>
        <time>2025-02-23T08:53:48Z</time>
      </trkpt>
      <trkpt lat="45.17552" lon="3.72523">
        <ele>892.24</ele>
        <time>2025-02-23T08:54:05Z</time>
      </trkpt>
      <trkpt lat="45.17533" lon="3.72549">
        <ele>890.32</ele>
        <time>2025-02-23T08:54:23Z</time>
      </trkpt>
      <trkpt lat="45.1751" lon="3.72578">
        <ele>888.88</ele>
        <time>2025-02-23T08:54:44Z</time>
      </trkpt>
      <trkpt lat="45.17507" lon="3.72581">
        <ele>888.4</ele>
        <time>2025-02-23T08:54:47Z</time>
      </trkpt>
      <trkpt lat="45.1749" lon="3.72611">
        <ele>887.91</ele>
        <time>2025-02-23T08:55:09Z</time>
      </trkpt>
      <trkpt lat="45.17473" lon="3.72635">
        <ele>887.91</ele>
        <time>2025-02-23T08:55:28Z</time>
      </trkpt>
      <trkpt lat="45.17467" lon="3.72643">
        <ele>888.88</ele>
        <time>2025-02-23T08:55:35Z</time>
      </trkpt>
      <trkpt lat="45.1746" lon="3.72654">
        <ele>888.4</ele>
        <time>2025-02-23T08:55:42Z</time>
      </trkpt>
      <trkpt lat="45.1744" lon="3.72677">
        <ele>887.43</ele>
        <time>2025-02-23T08:56:01Z</time>
      </trkpt>
      <trkpt lat="45.17423" lon="3.72697">
        <ele>885.99</ele>
        <time>2025-02-23T08:56:18Z</time>
      </trkpt>
      <trkpt lat="45.17404" lon="3.7272">
        <ele>885.03</ele>
        <time>2025-02-23T08:56:37Z</time>
      </trkpt>
      <trkpt lat="45.17403" lon="3.72723">
        <ele>885.03</ele>
        <time>2025-02-23T08:56:39Z</time>
      </trkpt>
      <trkpt lat="45.17402" lon="3.72731">
        <ele>885.03</ele>
        <time>2025-02-23T08:56:43Z</time>
      </trkpt>
      <trkpt lat="45.17399" lon="3.72755">
        <ele>885.03</ele>
        <time>2025-02-23T08:56:55Z</time>
      </trkpt>
      <trkpt lat="45.17399" lon="3.72758">
        <ele>885.03</ele>
        <time>2025-02-23T08:56:57Z</time>
      </trkpt>
      <trkpt lat="45.17393" lon="3.72791">
        <ele>882.15</ele>
        <time>2025-02-23T08:57:16Z</time>
      </trkpt>
      <trkpt lat="45.17384" lon="3.72813">
        <ele>881.67</ele>
        <time>2025-02-23T08:57:32Z</time>
      </trkpt>
      <trkpt lat="45.17384" lon="3.72816">
        <ele>882.15</ele>
        <time>2025-02-23T08:57:46Z</time>
      </trkpt>
      <trkpt lat="45.17383" lon="3.72815">
        <ele>884.55</ele>
        <time>2025-02-23T08:58:07Z</time>
      </trkpt>
      <trkpt lat="45.17382" lon="3.72815">
        <ele>884.55</ele>
        <time>2025-02-23T08:58:08Z</time>
      </trkpt>
      <trkpt lat="45.17375" lon="3.72816">
        <ele>883.59</ele>
        <time>2025-02-23T08:58:19Z</time>
      </trkpt>
      <trkpt lat="45.17345" lon="3.72826">
        <ele>881.67</ele>
        <time>2025-02-23T08:58:36Z</time>
      </trkpt>
      <trkpt lat="45.17323" lon="3.72836">
        <ele>880.71</ele>
        <time>2025-02-23T08:58:50Z</time>
      </trkpt>
      <trkpt lat="45.17302" lon="3.72845">
        <ele>885.51</ele>
        <time>2025-02-23T08:59:02Z</time>
      </trkpt>
      <trkpt lat="45.17295" lon="3.72846">
        <ele>886.47</ele>
        <time>2025-02-23T08:59:06Z</time>
      </trkpt>
      <trkpt lat="45.17263" lon="3.72848">
        <ele>890.32</ele>
        <time>2025-02-23T08:59:21Z</time>
      </trkpt>
      <trkpt lat="45.17239" lon="3.7284">
        <ele>893.2</ele>
        <time>2025-02-23T08:59:35Z</time>
      </trkpt>
      <trkpt lat="45.17212" lon="3.72826">
        <ele>894.16</ele>
        <time>2025-02-23T08:59:52Z</time>
      </trkpt>
      <trkpt lat="45.17184" lon="3.72814">
        <ele>894.64</ele>
        <time>2025-02-23T09:00:08Z</time>
      </trkpt>
      <trkpt lat="45.1716" lon="3.72798">
        <ele>896.09</ele>
        <time>2025-02-23T09:00:21Z</time>
      </trkpt>
      <trkpt lat="45.17138" lon="3.72787">
        <ele>898.49</ele>
        <time>2025-02-23T09:00:34Z</time>
      </trkpt>
      <trkpt lat="45.17114" lon="3.72776">
        <ele>900.89</ele>
        <time>2025-02-23T09:00:47Z</time>
      </trkpt>
      <trkpt lat="45.17108" lon="3.72767">
        <ele>898.97</ele>
        <time>2025-02-23T09:00:59Z</time>
      </trkpt>
      <trkpt lat="45.17093" lon="3.72756">
        <ele>895.12</ele>
        <time>2025-02-23T09:01:14Z</time>
      </trkpt>
      <trkpt lat="45.17067" lon="3.72738">
        <ele>893.68</ele>
        <time>2025-02-23T09:01:36Z</time>
      </trkpt>
      <trkpt lat="45.17048" lon="3.72713">
        <ele>891.76</ele>
        <time>2025-02-23T09:01:57Z</time>
      </trkpt>
      <trkpt lat="45.1703" lon="3.72693">
        <ele>890.8</ele>
        <time>2025-02-23T09:02:16Z</time>
      </trkpt>
      <trkpt lat="45.17001" lon="3.72681">
        <ele>891.76</ele>
        <time>2025-02-23T09:02:39Z</time>
      </trkpt>
      <trkpt lat="45.16971" lon="3.72664">
        <ele>893.2</ele>
        <time>2025-02-23T09:03:03Z</time>
      </trkpt>
      <trkpt lat="45.16938" lon="3.72652">
        <ele>893.68</ele>
        <time>2025-02-23T09:03:29Z</time>
      </trkpt>
      <trkpt lat="45.16907" lon="3.72639">
        <ele>893.2</ele>
        <time>2025-02-23T09:03:53Z</time>
      </trkpt>
      <trkpt lat="45.16873" lon="3.72623">
        <ele>893.2</ele>
        <time>2025-02-23T09:04:18Z</time>
      </trkpt>
      <trkpt lat="45.16842" lon="3.7261">
        <ele>891.76</ele>
        <time>2025-02-23T09:04:41Z</time>
      </trkpt>
      <trkpt lat="45.16808" lon="3.72597">
        <ele>890.32</ele>
        <time>2025-02-23T09:05:07Z</time>
      </trkpt>
      <trkpt lat="45.16782" lon="3.72578">
        <ele>888.88</ele>
        <time>2025-02-23T09:05:26Z</time>
      </trkpt>
      <trkpt lat="45.16767" lon="3.72567">
        <ele>888.88</ele>
        <time>2025-02-23T09:05:38Z</time>
      </trkpt>
      <trkpt lat="45.16747" lon="3.72565">
        <ele>889.36</ele>
        <time>2025-02-23T09:05:51Z</time>
      </trkpt>
      <trkpt lat="45.16733" lon="3.72565">
        <ele>889.84</ele>
        <time>2025-02-23T09:06:04Z</time>
      </trkpt>
      <trkpt lat="45.16714" lon="3.7257">
        <ele>890.8</ele>
        <time>2025-02-23T09:06:16Z</time>
      </trkpt>
      <trkpt lat="45.16698" lon="3.72573">
        <ele>889.36</ele>
        <time>2025-02-23T09:06:28Z</time>
      </trkpt>
      <trkpt lat="45.16686" lon="3.72574">
        <ele>888.88</ele>
        <time>2025-02-23T09:06:38Z</time>
      </trkpt>
      <trkpt lat="45.16685" lon="3.72574">
        <ele>888.88</ele>
        <time>2025-02-23T09:06:39Z</time>
      </trkpt>
      <trkpt lat="45.16683" lon="3.72574">
        <ele>888.4</ele>
        <time>2025-02-23T09:06:40Z</time>
      </trkpt>
      <trkpt lat="45.16681" lon="3.72574">
        <ele>888.4</ele>
        <time>2025-02-23T09:06:41Z</time>
      </trkpt>
      <trkpt lat="45.16661" lon="3.7258">
        <ele>887.91</ele>
        <time>2025-02-23T09:06:54Z</time>
      </trkpt>
      <trkpt lat="45.16644" lon="3.72584">
        <ele>887.43</ele>
        <time>2025-02-23T09:07:04Z</time>
      </trkpt>
      <trkpt lat="45.16626" lon="3.72587">
        <ele>887.43</ele>
        <time>2025-02-23T09:07:16Z</time>
      </trkpt>
      <trkpt lat="45.16604" lon="3.72592">
        <ele>888.4</ele>
        <time>2025-02-23T09:07:32Z</time>
      </trkpt>
      <trkpt lat="45.16585" lon="3.72594">
        <ele>887.91</ele>
        <time>2025-02-23T09:07:45Z</time>
      </trkpt>
      <trkpt lat="45.16564" lon="3.72595">
        <ele>887.43</ele>
        <time>2025-02-23T09:07:59Z</time>
      </trkpt>
      <trkpt lat="45.16558" lon="3.72596">
        <ele>887.91</ele>
        <time>2025-02-23T09:08:06Z</time>
      </trkpt>
      <trkpt lat="45.16542" lon="3.72597">
        <ele>888.4</ele>
        <time>2025-02-23T09:08:18Z</time>
      </trkpt>
      <trkpt lat="45.16527" lon="3.72599">
        <ele>888.4</ele>
        <time>2025-02-23T09:08:30Z</time>
      </trkpt>
      <trkpt lat="45.16511" lon="3.72601">
        <ele>886.95</ele>
        <time>2025-02-23T09:08:40Z</time>
      </trkpt>
      <trkpt lat="45.16496" lon="3.726">
        <ele>885.99</ele>
        <time>2025-02-23T09:08:51Z</time>
      </trkpt>
      <trkpt lat="45.1648" lon="3.72601">
        <ele>885.51</ele>
        <time>2025-02-23T09:09:02Z</time>
      </trkpt>
      <trkpt lat="45.16477" lon="3.72601">
        <ele>885.03</ele>
        <time>2025-02-23T09:09:05Z</time>
      </trkpt>
      <trkpt lat="45.16476" lon="3.72601">
        <ele>885.03</ele>
        <time>2025-02-23T09:09:06Z</time>
      </trkpt>
      <trkpt lat="45.16474" lon="3.72602">
        <ele>885.03</ele>
        <time>2025-02-23T09:09:07Z</time>
      </trkpt>
      <trkpt lat="45.16467" lon="3.72602">
        <ele>885.03</ele>
        <time>2025-02-23T09:09:11Z</time>
      </trkpt>
      <trkpt lat="45.16465" lon="3.72601">
        <ele>884.55</ele>
        <time>2025-02-23T09:09:12Z</time>
      </trkpt>
      <trkpt lat="45.16448" lon="3.72601">
        <ele>884.55</ele>
        <time>2025-02-23T09:09:24Z</time>
      </trkpt>
      <trkpt lat="45.16433" lon="3.72595">
        <ele>884.55</ele>
        <time>2025-02-23T09:09:37Z</time>
      </trkpt>
      <trkpt lat="45.1642" lon="3.72594">
        <ele>885.51</ele>
        <time>2025-02-23T09:09:46Z</time>
      </trkpt>
      <trkpt lat="45.16411" lon="3.7259">
        <ele>885.51</ele>
        <time>2025-02-23T09:09:54Z</time>
      </trkpt>
      <trkpt lat="45.16405" lon="3.72579">
        <ele>886.47</ele>
        <time>2025-02-23T09:10:03Z</time>
      </trkpt>
      <trkpt lat="45.16405" lon="3.72577">
        <ele>886.47</ele>
        <time>2025-02-23T09:10:04Z</time>
      </trkpt>
      <trkpt lat="45.16405" lon="3.72573">
        <ele>886.47</ele>
        <time>2025-02-23T09:10:05Z</time>
      </trkpt>
      <trkpt lat="45.16405" lon="3.72571">
        <ele>886.47</ele>
        <time>2025-02-23T09:10:06Z</time>
      </trkpt>
      <trkpt lat="45.16405" lon="3.72569">
        <ele>886.47</ele>
        <time>2025-02-23T09:10:07Z</time>
      </trkpt>
      <trkpt lat="45.16406" lon="3.72563">
        <ele>886.47</ele>
        <time>2025-02-23T09:10:12Z</time>
      </trkpt>
      <trkpt lat="45.16406" lon="3.72561">
        <ele>886.47</ele>
        <time>2025-02-23T09:10:13Z</time>
      </trkpt>
      <trkpt lat="45.16408" lon="3.72545">
        <ele>885.51</ele>
        <time>2025-02-23T09:10:24Z</time>
      </trkpt>
      <trkpt lat="45.1641" lon="3.72525">
        <ele>885.03</ele>
        <time>2025-02-23T09:10:38Z</time>
      </trkpt>
      <trkpt lat="45.16415" lon="3.72496">
        <ele>885.99</ele>
        <time>2025-02-23T09:10:56Z</time>
      </trkpt>
      <trkpt lat="45.16417" lon="3.72489">
        <ele>885.51</ele>
        <time>2025-02-23T09:11:09Z</time>
      </trkpt>
      <trkpt lat="45.16418" lon="3.72475">
        <ele>885.51</ele>
        <time>2025-02-23T09:11:19Z</time>
      </trkpt>
      <trkpt lat="45.16418" lon="3.72473">
        <ele>885.51</ele>
        <time>2025-02-23T09:11:20Z</time>
      </trkpt>
      <trkpt lat="45.16419" lon="3.72471">
        <ele>885.51</ele>
        <time>2025-02-23T09:11:21Z</time>
      </trkpt>
      <trkpt lat="45.16419" lon="3.72469">
        <ele>885.51</ele>
        <time>2025-02-23T09:11:22Z</time>
      </trkpt>
      <trkpt lat="45.16418" lon="3.72467">
        <ele>885.03</ele>
        <time>2025-02-23T09:11:23Z</time>
      </trkpt>
      <trkpt lat="45.16419" lon="3.72466">
        <ele>885.03</ele>
        <time>2025-02-23T09:11:24Z</time>
      </trkpt>
      <trkpt lat="45.16419" lon="3.72464">
        <ele>885.03</ele>
        <time>2025-02-23T09:11:25Z</time>
      </trkpt>
      <trkpt lat="45.16419" lon="3.72461">
        <ele>884.55</ele>
        <time>2025-02-23T09:11:26Z</time>
      </trkpt>
      <trkpt lat="45.16419" lon="3.72459">
        <ele>884.55</ele>
        <time>2025-02-23T09:11:27Z</time>
      </trkpt>
      <trkpt lat="45.1642" lon="3.72447">
        <ele>882.63</ele>
        <time>2025-02-23T09:11:36Z</time>
      </trkpt>
      <trkpt lat="45.1642" lon="3.72447">
        <ele>880.22</ele>
        <time>2025-02-23T09:11:47Z</time>
      </trkpt>
      <trkpt lat="45.16421" lon="3.72428">
        <ele>881.67</ele>
        <time>2025-02-23T09:11:57Z</time>
      </trkpt>
      <trkpt lat="45.16425" lon="3.72408">
        <ele>881.67</ele>
        <time>2025-02-23T09:12:08Z</time>
      </trkpt>
      <trkpt lat="45.16425" lon="3.72386">
        <ele>881.19</ele>
        <time>2025-02-23T09:12:19Z</time>
      </trkpt>
      <trkpt lat="45.16422" lon="3.7238">
        <ele>880.71</ele>
        <time>2025-02-23T09:12:24Z</time>
      </trkpt>
      <trkpt lat="45.16412" lon="3.72365">
        <ele>880.22</ele>
        <time>2025-02-23T09:12:35Z</time>
      </trkpt>
      <trkpt lat="45.16409" lon="3.72358">
        <ele>879.26</ele>
        <time>2025-02-23T09:12:39Z</time>
      </trkpt>
      <trkpt lat="45.16409" lon="3.72356">
        <ele>879.26</ele>
        <time>2025-02-23T09:12:40Z</time>
      </trkpt>
      <trkpt lat="45.16411" lon="3.72337">
        <ele>876.86</ele>
        <time>2025-02-23T09:12:51Z</time>
      </trkpt>
      <trkpt lat="45.16411" lon="3.72334">
        <ele>876.86</ele>
        <time>2025-02-23T09:12:52Z</time>
      </trkpt>
      <trkpt lat="45.16417" lon="3.72318">
        <ele>874.94</ele>
        <time>2025-02-23T09:13:02Z</time>
      </trkpt>
      <trkpt lat="45.16419" lon="3.72317">
        <ele>874.94</ele>
        <time>2025-02-23T09:13:03Z</time>
      </trkpt>
      <trkpt lat="45.16433" lon="3.72305">
        <ele>874.46</ele>
        <time>2025-02-23T09:13:16Z</time>
      </trkpt>
      <trkpt lat="45.16441" lon="3.72298">
        <ele>875.42</ele>
        <time>2025-02-23T09:13:30Z</time>
      </trkpt>
      <trkpt lat="45.16453" lon="3.72286">
        <ele>876.38</ele>
        <time>2025-02-23T09:13:42Z</time>
      </trkpt>
      <trkpt lat="45.16468" lon="3.72266">
        <ele>877.82</ele>
        <time>2025-02-23T09:13:57Z</time>
      </trkpt>
      <trkpt lat="45.16473" lon="3.72258">
        <ele>878.78</ele>
        <time>2025-02-23T09:14:09Z</time>
      </trkpt>
      <trkpt lat="45.16479" lon="3.72235">
        <ele>877.82</ele>
        <time>2025-02-23T09:14:25Z</time>
      </trkpt>
      <trkpt lat="45.16479" lon="3.72216">
        <ele>877.34</ele>
        <time>2025-02-23T09:14:36Z</time>
      </trkpt>
      <trkpt lat="45.16475" lon="3.72169">
        <ele>877.34</ele>
        <time>2025-02-23T09:14:59Z</time>
      </trkpt>
      <trkpt lat="45.16472" lon="3.72128">
        <ele>879.74</ele>
        <time>2025-02-23T09:15:21Z</time>
      </trkpt>
      <trkpt lat="45.16467" lon="3.72086">
        <ele>883.59</ele>
        <time>2025-02-23T09:15:41Z</time>
      </trkpt>
      <trkpt lat="45.16463" lon="3.7205">
        <ele>886.95</ele>
        <time>2025-02-23T09:15:59Z</time>
      </trkpt>
      <trkpt lat="45.16462" lon="3.72014">
        <ele>889.84</ele>
        <time>2025-02-23T09:16:18Z</time>
      </trkpt>
      <trkpt lat="45.16458" lon="3.71982">
        <ele>891.76</ele>
        <time>2025-02-23T09:16:36Z</time>
      </trkpt>
      <trkpt lat="45.16451" lon="3.71948">
        <ele>891.28</ele>
        <time>2025-02-23T09:16:54Z</time>
      </trkpt>
      <trkpt lat="45.16447" lon="3.71925">
        <ele>891.76</ele>
        <time>2025-02-23T09:17:08Z</time>
      </trkpt>
      <trkpt lat="45.16447" lon="3.71918">
        <ele>892.24</ele>
        <time>2025-02-23T09:17:12Z</time>
      </trkpt>
      <trkpt lat="45.16447" lon="3.71885">
        <ele>895.12</ele>
        <time>2025-02-23T09:17:31Z</time>
      </trkpt>
      <trkpt lat="45.16441" lon="3.71858">
        <ele>896.57</ele>
        <time>2025-02-23T09:17:46Z</time>
      </trkpt>
      <trkpt lat="45.16436" lon="3.71835">
        <ele>894.64</ele>
        <time>2025-02-23T09:18:01Z</time>
      </trkpt>
      <trkpt lat="45.16434" lon="3.71815">
        <ele>894.16</ele>
        <time>2025-02-23T09:18:13Z</time>
      </trkpt>
      <trkpt lat="45.16432" lon="3.71795">
        <ele>894.64</ele>
        <time>2025-02-23T09:18:26Z</time>
      </trkpt>
      <trkpt lat="45.16433" lon="3.71774">
        <ele>897.05</ele>
        <time>2025-02-23T09:18:40Z</time>
      </trkpt>
      <trkpt lat="45.16432" lon="3.71753">
        <ele>899.45</ele>
        <time>2025-02-23T09:18:53Z</time>
      </trkpt>
      <trkpt lat="45.16429" lon="3.71734">
        <ele>900.41</ele>
        <time>2025-02-23T09:19:04Z</time>
      </trkpt>
      <trkpt lat="45.16426" lon="3.71714">
        <ele>902.82</ele>
        <time>2025-02-23T09:19:16Z</time>
      </trkpt>
      <trkpt lat="45.16426" lon="3.71711">
        <ele>903.78</ele>
        <time>2025-02-23T09:19:19Z</time>
      </trkpt>
      <trkpt lat="45.16418" lon="3.71695">
        <ele>905.7</ele>
        <time>2025-02-23T09:19:32Z</time>
      </trkpt>
      <trkpt lat="45.16417" lon="3.71685">
        <ele>907.14</ele>
        <time>2025-02-23T09:19:40Z</time>
      </trkpt>
      <trkpt lat="45.16417" lon="3.71665">
        <ele>910.51</ele>
        <time>2025-02-23T09:19:52Z</time>
      </trkpt>
      <trkpt lat="45.16416" lon="3.71648">
        <ele>913.87</ele>
        <time>2025-02-23T09:20:06Z</time>
      </trkpt>
      <trkpt lat="45.16408" lon="3.71628">
        <ele>914.83</ele>
        <time>2025-02-23T09:20:20Z</time>
      </trkpt>
      <trkpt lat="45.164" lon="3.71605">
        <ele>918.68</ele>
        <time>2025-02-23T09:20:38Z</time>
      </trkpt>
      <trkpt lat="45.16389" lon="3.71576">
        <ele>920.12</ele>
        <time>2025-02-23T09:20:55Z</time>
      </trkpt>
      <trkpt lat="45.16389" lon="3.7157">
        <ele>919.64</ele>
        <time>2025-02-23T09:21:17Z</time>
      </trkpt>
      <trkpt lat="45.16389" lon="3.71563">
        <ele>918.2</ele>
        <time>2025-02-23T09:21:43Z</time>
      </trkpt>
      <trkpt lat="45.16385" lon="3.71553">
        <ele>919.16</ele>
        <time>2025-02-23T09:22:09Z</time>
      </trkpt>
      <trkpt lat="45.1638" lon="3.71535">
        <ele>921.56</ele>
        <time>2025-02-23T09:22:24Z</time>
      </trkpt>
      <trkpt lat="45.16366" lon="3.71514">
        <ele>920.6</ele>
        <time>2025-02-23T09:22:43Z</time>
      </trkpt>
      <trkpt lat="45.16349" lon="3.71504">
        <ele>921.08</ele>
        <time>2025-02-23T09:23:01Z</time>
      </trkpt>
      <trkpt lat="45.16321" lon="3.71487">
        <ele>921.56</ele>
        <time>2025-02-23T09:23:21Z</time>
      </trkpt>
      <trkpt lat="45.16299" lon="3.71477">
        <ele>921.56</ele>
        <time>2025-02-23T09:23:38Z</time>
      </trkpt>
      <trkpt lat="45.16298" lon="3.71476">
        <ele>921.56</ele>
        <time>2025-02-23T09:23:39Z</time>
      </trkpt>
      <trkpt lat="45.16294" lon="3.71474">
        <ele>921.08</ele>
        <time>2025-02-23T09:23:43Z</time>
      </trkpt>
      <trkpt lat="45.16279" lon="3.71463">
        <ele>923.96</ele>
        <time>2025-02-23T09:23:58Z</time>
      </trkpt>
      <trkpt lat="45.16281" lon="3.71438">
        <ele>928.77</ele>
        <time>2025-02-23T09:24:13Z</time>
      </trkpt>
      <trkpt lat="45.16294" lon="3.71419">
        <ele>924.93</ele>
        <time>2025-02-23T09:24:30Z</time>
      </trkpt>
      <trkpt lat="45.16303" lon="3.714">
        <ele>922.52</ele>
        <time>2025-02-23T09:24:46Z</time>
      </trkpt>
      <trkpt lat="45.16311" lon="3.71385">
        <ele>921.08</ele>
        <time>2025-02-23T09:25:01Z</time>
      </trkpt>
      <trkpt lat="45.16333" lon="3.71355">
        <ele>923</ele>
        <time>2025-02-23T09:25:21Z</time>
      </trkpt>
      <trkpt lat="45.16349" lon="3.71336">
        <ele>923</ele>
        <time>2025-02-23T09:25:38Z</time>
      </trkpt>
      <trkpt lat="45.16383" lon="3.71314">
        <ele>929.25</ele>
        <time>2025-02-23T09:25:58Z</time>
      </trkpt>
      <trkpt lat="45.16406" lon="3.71303">
        <ele>931.17</ele>
        <time>2025-02-23T09:26:18Z</time>
      </trkpt>
      <trkpt lat="45.16429" lon="3.71295">
        <ele>931.17</ele>
        <time>2025-02-23T09:26:37Z</time>
      </trkpt>
      <trkpt lat="45.1646" lon="3.71286">
        <ele>935.02</ele>
        <time>2025-02-23T09:26:55Z</time>
      </trkpt>
      <trkpt lat="45.16488" lon="3.71282">
        <ele>937.9</ele>
        <time>2025-02-23T09:27:15Z</time>
      </trkpt>
      <trkpt lat="45.16509" lon="3.71273">
        <ele>934.54</ele>
        <time>2025-02-23T09:27:34Z</time>
      </trkpt>
      <trkpt lat="45.16532" lon="3.71262">
        <ele>930.69</ele>
        <time>2025-02-23T09:27:53Z</time>
      </trkpt>
      <trkpt lat="45.16549" lon="3.71235">
        <ele>927.33</ele>
        <time>2025-02-23T09:28:11Z</time>
      </trkpt>
      <trkpt lat="45.1654" lon="3.71227">
        <ele>921.08</ele>
        <time>2025-02-23T09:28:29Z</time>
      </trkpt>
      <trkpt lat="45.16518" lon="3.71223">
        <ele>915.79</ele>
        <time>2025-02-23T09:28:49Z</time>
      </trkpt>
      <trkpt lat="45.16501" lon="3.71214">
        <ele>917.72</ele>
        <time>2025-02-23T09:29:03Z</time>
      </trkpt>
      <trkpt lat="45.1649" lon="3.71206">
        <ele>919.64</ele>
        <time>2025-02-23T09:29:17Z</time>
      </trkpt>
      <trkpt lat="45.16488" lon="3.71205">
        <ele>919.16</ele>
        <time>2025-02-23T09:29:19Z</time>
      </trkpt>
      <trkpt lat="45.16475" lon="3.71199">
        <ele>916.75</ele>
        <time>2025-02-23T09:29:32Z</time>
      </trkpt>
      <trkpt lat="45.16469" lon="3.71197">
        <ele>916.27</ele>
        <time>2025-02-23T09:29:36Z</time>
      </trkpt>
      <trkpt lat="45.16446" lon="3.71173">
        <ele>924.45</ele>
        <time>2025-02-23T09:29:51Z</time>
      </trkpt>
      <trkpt lat="45.1642" lon="3.71153">
        <ele>935.98</ele>
        <time>2025-02-23T09:30:11Z</time>
      </trkpt>
      <trkpt lat="45.16399" lon="3.7114">
        <ele>941.75</ele>
        <time>2025-02-23T09:30:32Z</time>
      </trkpt>
      <trkpt lat="45.16372" lon="3.71132">
        <ele>948.48</ele>
        <time>2025-02-23T09:30:52Z</time>
      </trkpt>
      <trkpt lat="45.16349" lon="3.71128">
        <ele>952.32</ele>
        <time>2025-02-23T09:31:11Z</time>
      </trkpt>
      <trkpt lat="45.16323" lon="3.71123">
        <ele>955.69</ele>
        <time>2025-02-23T09:31:33Z</time>
      </trkpt>
      <trkpt lat="45.16296" lon="3.71108">
        <ele>958.57</ele>
        <time>2025-02-23T09:31:54Z</time>
      </trkpt>
      <trkpt lat="45.16272" lon="3.71089">
        <ele>959.05</ele>
        <time>2025-02-23T09:32:17Z</time>
      </trkpt>
      <trkpt lat="45.1625" lon="3.71056">
        <ele>956.65</ele>
        <time>2025-02-23T09:32:40Z</time>
      </trkpt>
      <trkpt lat="45.16233" lon="3.71033">
        <ele>958.57</ele>
        <time>2025-02-23T09:32:58Z</time>
      </trkpt>
      <trkpt lat="45.16219" lon="3.71008">
        <ele>959.53</ele>
        <time>2025-02-23T09:33:16Z</time>
      </trkpt>
      <trkpt lat="45.16197" lon="3.70972">
        <ele>966.26</ele>
        <time>2025-02-23T09:33:34Z</time>
      </trkpt>
      <trkpt lat="45.16184" lon="3.70951">
        <ele>969.15</ele>
        <time>2025-02-23T09:33:53Z</time>
      </trkpt>
      <trkpt lat="45.16156" lon="3.70924">
        <ele>967.7</ele>
        <time>2025-02-23T09:34:14Z</time>
      </trkpt>
      <trkpt lat="45.16133" lon="3.70908">
        <ele>971.07</ele>
        <time>2025-02-23T09:34:34Z</time>
      </trkpt>
      <trkpt lat="45.16118" lon="3.70887">
        <ele>971.55</ele>
        <time>2025-02-23T09:34:55Z</time>
      </trkpt>
      <trkpt lat="45.16101" lon="3.70862">
        <ele>970.59</ele>
        <time>2025-02-23T09:35:15Z</time>
      </trkpt>
      <trkpt lat="45.1608" lon="3.7084">
        <ele>972.51</ele>
        <time>2025-02-23T09:35:35Z</time>
      </trkpt>
      <trkpt lat="45.16065" lon="3.70816">
        <ele>971.07</ele>
        <time>2025-02-23T09:35:56Z</time>
      </trkpt>
      <trkpt lat="45.16053" lon="3.70795">
        <ele>967.7</ele>
        <time>2025-02-23T09:36:13Z</time>
      </trkpt>
      <trkpt lat="45.16037" lon="3.70762">
        <ele>967.22</ele>
        <time>2025-02-23T09:36:33Z</time>
      </trkpt>
      <trkpt lat="45.16026" lon="3.70743">
        <ele>969.63</ele>
        <time>2025-02-23T09:36:43Z</time>
      </trkpt>
      <trkpt lat="45.1601" lon="3.70715">
        <ele>988.85</ele>
        <time>2025-02-23T09:36:58Z</time>
      </trkpt>
      <trkpt lat="45.16" lon="3.70697">
        <ele>992.22</ele>
        <time>2025-02-23T09:37:11Z</time>
      </trkpt>
      <trkpt lat="45.15993" lon="3.70681">
        <ele>990.3</ele>
        <time>2025-02-23T09:37:23Z</time>
      </trkpt>
      <trkpt lat="45.15985" lon="3.70662">
        <ele>988.85</ele>
        <time>2025-02-23T09:37:35Z</time>
      </trkpt>
      <trkpt lat="45.15978" lon="3.70654">
        <ele>987.41</ele>
        <time>2025-02-23T09:37:42Z</time>
      </trkpt>
      <trkpt lat="45.15966" lon="3.70644">
        <ele>985.97</ele>
        <time>2025-02-23T09:37:50Z</time>
      </trkpt>
      <trkpt lat="45.1595" lon="3.70624">
        <ele>984.05</ele>
        <time>2025-02-23T09:38:04Z</time>
      </trkpt>
      <trkpt lat="45.15935" lon="3.70607">
        <ele>980.68</ele>
        <time>2025-02-23T09:38:17Z</time>
      </trkpt>
      <trkpt lat="45.1593" lon="3.70606">
        <ele>980.68</ele>
        <time>2025-02-23T09:38:22Z</time>
      </trkpt>
      <trkpt lat="45.15929" lon="3.70605">
        <ele>980.68</ele>
        <time>2025-02-23T09:38:23Z</time>
      </trkpt>
      <trkpt lat="45.15927" lon="3.70603">
        <ele>980.2</ele>
        <time>2025-02-23T09:38:24Z</time>
      </trkpt>
      <trkpt lat="45.15924" lon="3.70601">
        <ele>980.2</ele>
        <time>2025-02-23T09:38:27Z</time>
      </trkpt>
      <trkpt lat="45.15923" lon="3.706">
        <ele>980.2</ele>
        <time>2025-02-23T09:38:28Z</time>
      </trkpt>
      <trkpt lat="45.15909" lon="3.70589">
        <ele>979.24</ele>
        <time>2025-02-23T09:38:39Z</time>
      </trkpt>
      <trkpt lat="45.15899" lon="3.70581">
        <ele>976.36</ele>
        <time>2025-02-23T09:38:50Z</time>
      </trkpt>
      <trkpt lat="45.15884" lon="3.70569">
        <ele>974.91</ele>
        <time>2025-02-23T09:39:01Z</time>
      </trkpt>
      <trkpt lat="45.15874" lon="3.70571">
        <ele>975.39</ele>
        <time>2025-02-23T09:39:09Z</time>
      </trkpt>
      <trkpt lat="45.15873" lon="3.70572">
        <ele>975.39</ele>
        <time>2025-02-23T09:39:10Z</time>
      </trkpt>
      <trkpt lat="45.15863" lon="3.70578">
        <ele>972.99</ele>
        <time>2025-02-23T09:39:23Z</time>
      </trkpt>
      <trkpt lat="45.15863" lon="3.70573">
        <ele>972.51</ele>
        <time>2025-02-23T09:39:26Z</time>
      </trkpt>
      <trkpt lat="45.15863" lon="3.7057">
        <ele>972.51</ele>
        <time>2025-02-23T09:39:27Z</time>
      </trkpt>
      <trkpt lat="45.15862" lon="3.70568">
        <ele>972.03</ele>
        <time>2025-02-23T09:39:28Z</time>
      </trkpt>
      <trkpt lat="45.15854" lon="3.70552">
        <ele>968.18</ele>
        <time>2025-02-23T09:39:40Z</time>
      </trkpt>
      <trkpt lat="45.15846" lon="3.70548">
        <ele>966.26</ele>
        <time>2025-02-23T09:39:45Z</time>
      </trkpt>
      <trkpt lat="45.15835" lon="3.70544">
        <ele>961.94</ele>
        <time>2025-02-23T09:39:56Z</time>
      </trkpt>
      <trkpt lat="45.15822" lon="3.7054">
        <ele>958.09</ele>
        <time>2025-02-23T09:40:08Z</time>
      </trkpt>
      <trkpt lat="45.15807" lon="3.70533">
        <ele>953.77</ele>
        <time>2025-02-23T09:40:20Z</time>
      </trkpt>
      <trkpt lat="45.15791" lon="3.70524">
        <ele>949.92</ele>
        <time>2025-02-23T09:40:31Z</time>
      </trkpt>
      <trkpt lat="45.15781" lon="3.70518">
        <ele>946.56</ele>
        <time>2025-02-23T09:40:42Z</time>
      </trkpt>
      <trkpt lat="45.15764" lon="3.7051">
        <ele>954.25</ele>
        <time>2025-02-23T09:40:53Z</time>
      </trkpt>
      <trkpt lat="45.15743" lon="3.70504">
        <ele>957.13</ele>
        <time>2025-02-23T09:41:07Z</time>
      </trkpt>
      <trkpt lat="45.15727" lon="3.70498">
        <ele>957.61</ele>
        <time>2025-02-23T09:41:21Z</time>
      </trkpt>
      <trkpt lat="45.15708" lon="3.70494">
        <ele>958.09</ele>
        <time>2025-02-23T09:41:36Z</time>
      </trkpt>
      <trkpt lat="45.15689" lon="3.70485">
        <ele>959.53</ele>
        <time>2025-02-23T09:41:50Z</time>
      </trkpt>
      <trkpt lat="45.1567" lon="3.70477">
        <ele>958.09</ele>
        <time>2025-02-23T09:42:05Z</time>
      </trkpt>
      <trkpt lat="45.15653" lon="3.70467">
        <ele>956.65</ele>
        <time>2025-02-23T09:42:19Z</time>
      </trkpt>
      <trkpt lat="45.15637" lon="3.7046">
        <ele>956.17</ele>
        <time>2025-02-23T09:42:32Z</time>
      </trkpt>
      <trkpt lat="45.15631" lon="3.70457">
        <ele>956.65</ele>
        <time>2025-02-23T09:42:37Z</time>
      </trkpt>
      <trkpt lat="45.15616" lon="3.70444">
        <ele>956.17</ele>
        <time>2025-02-23T09:42:51Z</time>
      </trkpt>
      <trkpt lat="45.15603" lon="3.70422">
        <ele>955.21</ele>
        <time>2025-02-23T09:43:06Z</time>
      </trkpt>
      <trkpt lat="45.15596" lon="3.70411">
        <ele>953.28</ele>
        <time>2025-02-23T09:43:14Z</time>
      </trkpt>
      <trkpt lat="45.1559" lon="3.70408">
        <ele>950.88</ele>
        <time>2025-02-23T09:43:19Z</time>
      </trkpt>
      <trkpt lat="45.15579" lon="3.70397">
        <ele>947.52</ele>
        <time>2025-02-23T09:43:30Z</time>
      </trkpt>
      <trkpt lat="45.15571" lon="3.70397">
        <ele>946.56</ele>
        <time>2025-02-23T09:43:38Z</time>
      </trkpt>
      <trkpt lat="45.1555" lon="3.70392">
        <ele>942.23</ele>
        <time>2025-02-23T09:43:53Z</time>
      </trkpt>
      <trkpt lat="45.15534" lon="3.70389">
        <ele>941.75</ele>
        <time>2025-02-23T09:44:04Z</time>
      </trkpt>
      <trkpt lat="45.15532" lon="3.70387">
        <ele>941.75</ele>
        <time>2025-02-23T09:44:06Z</time>
      </trkpt>
      <trkpt lat="45.15526" lon="3.70383">
        <ele>941.75</ele>
        <time>2025-02-23T09:44:11Z</time>
      </trkpt>
      <trkpt lat="45.15522" lon="3.70378">
        <ele>940.31</ele>
        <time>2025-02-23T09:44:15Z</time>
      </trkpt>
      <trkpt lat="45.15507" lon="3.7037">
        <ele>939.83</ele>
        <time>2025-02-23T09:44:28Z</time>
      </trkpt>
      <trkpt lat="45.15501" lon="3.70368">
        <ele>939.35</ele>
        <time>2025-02-23T09:44:32Z</time>
      </trkpt>
      <trkpt lat="45.15498" lon="3.70366">
        <ele>938.86</ele>
        <time>2025-02-23T09:44:35Z</time>
      </trkpt>
      <trkpt lat="45.15485" lon="3.7036">
        <ele>937.9</ele>
        <time>2025-02-23T09:44:45Z</time>
      </trkpt>
      <trkpt lat="45.15481" lon="3.70358">
        <ele>937.9</ele>
        <time>2025-02-23T09:44:53Z</time>
      </trkpt>
      <trkpt lat="45.15471" lon="3.70352">
        <ele>935.5</ele>
        <time>2025-02-23T09:45:02Z</time>
      </trkpt>
      <trkpt lat="45.15457" lon="3.70347">
        <ele>932.62</ele>
        <time>2025-02-23T09:45:12Z</time>
      </trkpt>
      <trkpt lat="45.1545" lon="3.70344">
        <ele>931.17</ele>
        <time>2025-02-23T09:45:23Z</time>
      </trkpt>
      <trkpt lat="45.15445" lon="3.70345">
        <ele>928.77</ele>
        <time>2025-02-23T09:45:37Z</time>
      </trkpt>
      <trkpt lat="45.15437" lon="3.70341">
        <ele>923.96</ele>
        <time>2025-02-23T09:45:59Z</time>
      </trkpt>
      <trkpt lat="45.15427" lon="3.70352">
        <ele>923</ele>
        <time>2025-02-23T09:46:14Z</time>
      </trkpt>
      <trkpt lat="45.15422" lon="3.70358">
        <ele>926.85</ele>
        <time>2025-02-23T09:46:23Z</time>
      </trkpt>
      <trkpt lat="45.15418" lon="3.70369">
        <ele>926.85</ele>
        <time>2025-02-23T09:46:40Z</time>
      </trkpt>
      <trkpt lat="45.15414" lon="3.70372">
        <ele>926.37</ele>
        <time>2025-02-23T09:46:58Z</time>
      </trkpt>
      <trkpt lat="45.15405" lon="3.70387">
        <ele>925.41</ele>
        <time>2025-02-23T09:47:11Z</time>
      </trkpt>
      <trkpt lat="45.154" lon="3.70389">
        <ele>924.93</ele>
        <time>2025-02-23T09:47:20Z</time>
      </trkpt>
      <trkpt lat="45.15399" lon="3.70385">
        <ele>924.45</ele>
        <time>2025-02-23T09:47:24Z</time>
      </trkpt>
      <trkpt lat="45.15398" lon="3.70383">
        <ele>924.45</ele>
        <time>2025-02-23T09:47:26Z</time>
      </trkpt>
      <trkpt lat="45.15397" lon="3.70368">
        <ele>923.48</ele>
        <time>2025-02-23T09:47:39Z</time>
      </trkpt>
      <trkpt lat="45.15392" lon="3.70354">
        <ele>922.04</ele>
        <time>2025-02-23T09:47:49Z</time>
      </trkpt>
      <trkpt lat="45.15384" lon="3.70349">
        <ele>920.12</ele>
        <time>2025-02-23T09:47:56Z</time>
      </trkpt>
      <trkpt lat="45.15372" lon="3.70349">
        <ele>917.72</ele>
        <time>2025-02-23T09:48:05Z</time>
      </trkpt>
      <trkpt lat="45.1535" lon="3.70347">
        <ele>916.27</ele>
        <time>2025-02-23T09:48:22Z</time>
      </trkpt>
      <trkpt lat="45.15332" lon="3.70338">
        <ele>915.79</ele>
        <time>2025-02-23T09:48:39Z</time>
      </trkpt>
      <trkpt lat="45.15317" lon="3.7036">
        <ele>918.2</ele>
        <time>2025-02-23T09:48:57Z</time>
      </trkpt>
      <trkpt lat="45.15313" lon="3.70367">
        <ele>916.75</ele>
        <time>2025-02-23T09:49:02Z</time>
      </trkpt>
      <trkpt lat="45.15305" lon="3.70374">
        <ele>914.83</ele>
        <time>2025-02-23T09:49:16Z</time>
      </trkpt>
      <trkpt lat="45.15305" lon="3.70375">
        <ele>915.31</ele>
        <time>2025-02-23T09:49:19Z</time>
      </trkpt>
      <trkpt lat="45.15306" lon="3.70379">
        <ele>914.83</ele>
        <time>2025-02-23T09:49:22Z</time>
      </trkpt>
      <trkpt lat="45.15301" lon="3.70388">
        <ele>914.35</ele>
        <time>2025-02-23T09:49:38Z</time>
      </trkpt>
      <trkpt lat="45.1529" lon="3.70381">
        <ele>911.47</ele>
        <time>2025-02-23T09:49:51Z</time>
      </trkpt>
      <trkpt lat="45.15283" lon="3.70374">
        <ele>908.58</ele>
        <time>2025-02-23T09:50:05Z</time>
      </trkpt>
      <trkpt lat="45.15285" lon="3.70372">
        <ele>908.1</ele>
        <time>2025-02-23T09:50:18Z</time>
      </trkpt>
      <trkpt lat="45.15282" lon="3.70375">
        <ele>906.66</ele>
        <time>2025-02-23T09:50:29Z</time>
      </trkpt>
      <trkpt lat="45.15269" lon="3.70382">
        <ele>904.26</ele>
        <time>2025-02-23T09:50:41Z</time>
      </trkpt>
      <trkpt lat="45.15254" lon="3.70372">
        <ele>902.82</ele>
        <time>2025-02-23T09:50:57Z</time>
      </trkpt>
      <trkpt lat="45.15236" lon="3.70355">
        <ele>898.97</ele>
        <time>2025-02-23T09:51:17Z</time>
      </trkpt>
      <trkpt lat="45.15214" lon="3.70333">
        <ele>895.61</ele>
        <time>2025-02-23T09:51:33Z</time>
      </trkpt>
      <trkpt lat="45.15192" lon="3.70333">
        <ele>896.57</ele>
        <time>2025-02-23T09:51:50Z</time>
      </trkpt>
      <trkpt lat="45.15166" lon="3.70344">
        <ele>899.45</ele>
        <time>2025-02-23T09:52:10Z</time>
      </trkpt>
      <trkpt lat="45.15144" lon="3.70355">
        <ele>902.82</ele>
        <time>2025-02-23T09:52:29Z</time>
      </trkpt>
      <trkpt lat="45.15118" lon="3.70363">
        <ele>907.62</ele>
        <time>2025-02-23T09:52:50Z</time>
      </trkpt>
      <trkpt lat="45.15099" lon="3.70368">
        <ele>913.87</ele>
        <time>2025-02-23T09:53:07Z</time>
      </trkpt>
      <trkpt lat="45.15077" lon="3.70371">
        <ele>918.2</ele>
        <time>2025-02-23T09:53:27Z</time>
      </trkpt>
      <trkpt lat="45.15055" lon="3.7037">
        <ele>918.68</ele>
        <time>2025-02-23T09:53:48Z</time>
      </trkpt>
      <trkpt lat="45.15045" lon="3.70368">
        <ele>918.2</ele>
        <time>2025-02-23T09:53:58Z</time>
      </trkpt>
      <trkpt lat="45.15021" lon="3.70357">
        <ele>916.27</ele>
        <time>2025-02-23T09:54:17Z</time>
      </trkpt>
      <trkpt lat="45.15003" lon="3.70346">
        <ele>918.68</ele>
        <time>2025-02-23T09:54:35Z</time>
      </trkpt>
      <trkpt lat="45.14986" lon="3.70335">
        <ele>920.6</ele>
        <time>2025-02-23T09:54:52Z</time>
      </trkpt>
      <trkpt lat="45.14975" lon="3.7032">
        <ele>924.93</ele>
        <time>2025-02-23T09:55:07Z</time>
      </trkpt>
      <trkpt lat="45.14971" lon="3.70303">
        <ele>929.73</ele>
        <time>2025-02-23T09:55:25Z</time>
      </trkpt>
      <trkpt lat="45.14961" lon="3.70297">
        <ele>934.06</ele>
        <time>2025-02-23T09:55:43Z</time>
      </trkpt>
      <trkpt lat="45.14944" lon="3.70283">
        <ele>934.06</ele>
        <time>2025-02-23T09:55:59Z</time>
      </trkpt>
      <trkpt lat="45.14942" lon="3.7027">
        <ele>930.21</ele>
        <time>2025-02-23T09:56:12Z</time>
      </trkpt>
      <trkpt lat="45.14939" lon="3.70268">
        <ele>926.37</ele>
        <time>2025-02-23T09:56:27Z</time>
      </trkpt>
      <trkpt lat="45.14938" lon="3.70247">
        <ele>927.81</ele>
        <time>2025-02-23T09:56:42Z</time>
      </trkpt>
      <trkpt lat="45.14947" lon="3.70233">
        <ele>934.06</ele>
        <time>2025-02-23T09:56:58Z</time>
      </trkpt>
      <trkpt lat="45.14949" lon="3.70221">
        <ele>932.62</ele>
        <time>2025-02-23T09:57:18Z</time>
      </trkpt>
      <trkpt lat="45.14954" lon="3.70212">
        <ele>935.02</ele>
        <time>2025-02-23T09:57:34Z</time>
      </trkpt>
      <trkpt lat="45.1496" lon="3.70199">
        <ele>936.94</ele>
        <time>2025-02-23T09:57:48Z</time>
      </trkpt>
      <trkpt lat="45.14963" lon="3.70192">
        <ele>933.58</ele>
        <time>2025-02-23T09:58:08Z</time>
      </trkpt>
      <trkpt lat="45.14964" lon="3.70187">
        <ele>933.58</ele>
        <time>2025-02-23T09:58:18Z</time>
      </trkpt>
      <trkpt lat="45.14962" lon="3.70162">
        <ele>935.5</ele>
        <time>2025-02-23T09:58:31Z</time>
      </trkpt>
      <trkpt lat="45.14962" lon="3.70154">
        <ele>934.54</ele>
        <time>2025-02-23T09:58:36Z</time>
      </trkpt>
      <trkpt lat="45.14962" lon="3.7014">
        <ele>935.02</ele>
        <time>2025-02-23T09:58:46Z</time>
      </trkpt>
      <trkpt lat="45.14961" lon="3.70134">
        <ele>935.5</ele>
        <time>2025-02-23T09:58:50Z</time>
      </trkpt>
      <trkpt lat="45.14947" lon="3.70113">
        <ele>936.46</ele>
        <time>2025-02-23T09:59:08Z</time>
      </trkpt>
      <trkpt lat="45.14943" lon="3.70109">
        <ele>935.98</ele>
        <time>2025-02-23T09:59:11Z</time>
      </trkpt>
      <trkpt lat="45.14933" lon="3.70101">
        <ele>937.42</ele>
        <time>2025-02-23T09:59:21Z</time>
      </trkpt>
      <trkpt lat="45.14923" lon="3.70102">
        <ele>937.9</ele>
        <time>2025-02-23T09:59:30Z</time>
      </trkpt>
      <trkpt lat="45.14915" lon="3.70117">
        <ele>936.46</ele>
        <time>2025-02-23T09:59:41Z</time>
      </trkpt>
      <trkpt lat="45.14911" lon="3.70133">
        <ele>933.58</ele>
        <time>2025-02-23T09:59:56Z</time>
      </trkpt>
      <trkpt lat="45.14904" lon="3.70158">
        <ele>931.17</ele>
        <time>2025-02-23T10:00:13Z</time>
      </trkpt>
      <trkpt lat="45.149" lon="3.70173">
        <ele>929.25</ele>
        <time>2025-02-23T10:00:28Z</time>
      </trkpt>
      <trkpt lat="45.14901" lon="3.70174">
        <ele>930.21</ele>
        <time>2025-02-23T10:01:00Z</time>
      </trkpt>
      <trkpt lat="45.14901" lon="3.70175">
        <ele>930.21</ele>
        <time>2025-02-23T10:01:01Z</time>
      </trkpt>
      <trkpt lat="45.14894" lon="3.70176">
        <ele>927.33</ele>
        <time>2025-02-23T10:01:16Z</time>
      </trkpt>
      <trkpt lat="45.14892" lon="3.70176">
        <ele>930.69</ele>
        <time>2025-02-23T10:01:29Z</time>
      </trkpt>
      <trkpt lat="45.14893" lon="3.70176">
        <ele>932.14</ele>
        <time>2025-02-23T10:01:45Z</time>
      </trkpt>
      <trkpt lat="45.14894" lon="3.70172">
        <ele>933.1</ele>
        <time>2025-02-23T10:02:02Z</time>
      </trkpt>
      <trkpt lat="45.14889" lon="3.70166">
        <ele>933.1</ele>
        <time>2025-02-23T10:02:06Z</time>
      </trkpt>
      <trkpt lat="45.14866" lon="3.7014">
        <ele>933.1</ele>
        <time>2025-02-23T10:02:29Z</time>
      </trkpt>
      <trkpt lat="45.14847" lon="3.70115">
        <ele>935.5</ele>
        <time>2025-02-23T10:02:47Z</time>
      </trkpt>
      <trkpt lat="45.14837" lon="3.701">
        <ele>937.9</ele>
        <time>2025-02-23T10:03:01Z</time>
      </trkpt>
      <trkpt lat="45.14834" lon="3.70081">
        <ele>939.83</ele>
        <time>2025-02-23T10:03:17Z</time>
      </trkpt>
      <trkpt lat="45.14836" lon="3.70067">
        <ele>940.31</ele>
        <time>2025-02-23T10:03:27Z</time>
      </trkpt>
      <trkpt lat="45.14844" lon="3.70039">
        <ele>940.79</ele>
        <time>2025-02-23T10:03:46Z</time>
      </trkpt>
      <trkpt lat="45.14851" lon="3.70009">
        <ele>941.27</ele>
        <time>2025-02-23T10:04:07Z</time>
      </trkpt>
      <trkpt lat="45.14856" lon="3.69978">
        <ele>941.75</ele>
        <time>2025-02-23T10:04:25Z</time>
      </trkpt>
      <trkpt lat="45.14856" lon="3.69945">
        <ele>940.31</ele>
        <time>2025-02-23T10:04:45Z</time>
      </trkpt>
      <trkpt lat="45.14854" lon="3.69916">
        <ele>944.63</ele>
        <time>2025-02-23T10:05:01Z</time>
      </trkpt>
      <trkpt lat="45.14854" lon="3.69911">
        <ele>946.56</ele>
        <time>2025-02-23T10:05:04Z</time>
      </trkpt>
      <trkpt lat="45.14856" lon="3.69881">
        <ele>952.8</ele>
        <time>2025-02-23T10:05:22Z</time>
      </trkpt>
      <trkpt lat="45.14859" lon="3.69855">
        <ele>954.73</ele>
        <time>2025-02-23T10:05:38Z</time>
      </trkpt>
      <trkpt lat="45.1486" lon="3.69836">
        <ele>953.77</ele>
        <time>2025-02-23T10:05:52Z</time>
      </trkpt>
      <trkpt lat="45.14865" lon="3.69824">
        <ele>957.13</ele>
        <time>2025-02-23T10:06:09Z</time>
      </trkpt>
      <trkpt lat="45.14871" lon="3.69799">
        <ele>961.94</ele>
        <time>2025-02-23T10:06:25Z</time>
      </trkpt>
      <trkpt lat="45.14868" lon="3.69781">
        <ele>965.78</ele>
        <time>2025-02-23T10:06:40Z</time>
      </trkpt>
      <trkpt lat="45.14868" lon="3.69776">
        <ele>966.74</ele>
        <time>2025-02-23T10:06:43Z</time>
      </trkpt>
      <trkpt lat="45.14867" lon="3.69751">
        <ele>971.07</ele>
        <time>2025-02-23T10:07:00Z</time>
      </trkpt>
      <trkpt lat="45.14865" lon="3.69746">
        <ele>972.51</ele>
        <time>2025-02-23T10:07:04Z</time>
      </trkpt>
      <trkpt lat="45.14861" lon="3.69724">
        <ele>975.88</ele>
        <time>2025-02-23T10:07:21Z</time>
      </trkpt>
      <trkpt lat="45.14856" lon="3.69702">
        <ele>976.84</ele>
        <time>2025-02-23T10:07:37Z</time>
      </trkpt>
      <trkpt lat="45.14856" lon="3.69685">
        <ele>977.32</ele>
        <time>2025-02-23T10:07:50Z</time>
      </trkpt>
      <trkpt lat="45.14856" lon="3.69681">
        <ele>977.32</ele>
        <time>2025-02-23T10:07:53Z</time>
      </trkpt>
      <trkpt lat="45.1486" lon="3.6965">
        <ele>979.72</ele>
        <time>2025-02-23T10:08:10Z</time>
      </trkpt>
      <trkpt lat="45.14862" lon="3.69643">
        <ele>980.2</ele>
        <time>2025-02-23T10:08:15Z</time>
      </trkpt>
      <trkpt lat="45.14868" lon="3.69621">
        <ele>978.76</ele>
        <time>2025-02-23T10:08:32Z</time>
      </trkpt>
      <trkpt lat="45.14882" lon="3.69595">
        <ele>978.76</ele>
        <time>2025-02-23T10:08:49Z</time>
      </trkpt>
      <trkpt lat="45.14884" lon="3.69585">
        <ele>977.32</ele>
        <time>2025-02-23T10:09:03Z</time>
      </trkpt>
      <trkpt lat="45.14892" lon="3.69576">
        <ele>976.84</ele>
        <time>2025-02-23T10:09:20Z</time>
      </trkpt>
      <trkpt lat="45.14893" lon="3.69575">
        <ele>976.84</ele>
        <time>2025-02-23T10:09:21Z</time>
      </trkpt>
      <trkpt lat="45.14907" lon="3.69557">
        <ele>982.6</ele>
        <time>2025-02-23T10:09:35Z</time>
      </trkpt>
      <trkpt lat="45.14918" lon="3.69547">
        <ele>982.12</ele>
        <time>2025-02-23T10:09:46Z</time>
      </trkpt>
      <trkpt lat="45.1492" lon="3.69547">
        <ele>982.12</ele>
        <time>2025-02-23T10:09:48Z</time>
      </trkpt>
      <trkpt lat="45.14924" lon="3.69546">
        <ele>982.12</ele>
        <time>2025-02-23T10:09:50Z</time>
      </trkpt>
      <trkpt lat="45.14936" lon="3.69538">
        <ele>982.12</ele>
        <time>2025-02-23T10:10:02Z</time>
      </trkpt>
      <trkpt lat="45.14938" lon="3.69538">
        <ele>982.12</ele>
        <time>2025-02-23T10:10:04Z</time>
      </trkpt>
      <trkpt lat="45.14953" lon="3.6953">
        <ele>983.09</ele>
        <time>2025-02-23T10:10:18Z</time>
      </trkpt>
      <trkpt lat="45.14953" lon="3.6953">
        <ele>983.09</ele>
        <time>2025-02-23T10:10:19Z</time>
      </trkpt>
      <trkpt lat="45.14959" lon="3.69527">
        <ele>984.05</ele>
        <time>2025-02-23T10:10:25Z</time>
      </trkpt>
      <trkpt lat="45.14972" lon="3.69522">
        <ele>986.93</ele>
        <time>2025-02-23T10:10:39Z</time>
      </trkpt>
      <trkpt lat="45.14998" lon="3.69509">
        <ele>987.41</ele>
        <time>2025-02-23T10:11:01Z</time>
      </trkpt>
      <trkpt lat="45.15015" lon="3.69502">
        <ele>989.33</ele>
        <time>2025-02-23T10:11:19Z</time>
      </trkpt>
      <trkpt lat="45.15034" lon="3.6949">
        <ele>987.89</ele>
        <time>2025-02-23T10:11:36Z</time>
      </trkpt>
      <trkpt lat="45.1505" lon="3.69488">
        <ele>984.05</ele>
        <time>2025-02-23T10:11:51Z</time>
      </trkpt>
      <trkpt lat="45.15064" lon="3.69481">
        <ele>983.09</ele>
        <time>2025-02-23T10:12:05Z</time>
      </trkpt>
      <trkpt lat="45.15071" lon="3.69478">
        <ele>986.93</ele>
        <time>2025-02-23T10:12:21Z</time>
      </trkpt>
      <trkpt lat="45.15072" lon="3.69477">
        <ele>987.89</ele>
        <time>2025-02-23T10:12:25Z</time>
      </trkpt>
      <trkpt lat="45.15083" lon="3.69468">
        <ele>988.37</ele>
        <time>2025-02-23T10:12:37Z</time>
      </trkpt>
      <trkpt lat="45.15088" lon="3.69462">
        <ele>991.26</ele>
        <time>2025-02-23T10:12:47Z</time>
      </trkpt>
      <trkpt lat="45.15092" lon="3.69455">
        <ele>995.1</ele>
        <time>2025-02-23T10:12:56Z</time>
      </trkpt>
      <trkpt lat="45.15096" lon="3.69448">
        <ele>997.02</ele>
        <time>2025-02-23T10:13:01Z</time>
      </trkpt>
      <trkpt lat="45.15098" lon="3.69444">
        <ele>997.99</ele>
        <time>2025-02-23T10:13:04Z</time>
      </trkpt>
      <trkpt lat="45.15106" lon="3.69437">
        <ele>998.47</ele>
        <time>2025-02-23T10:13:10Z</time>
      </trkpt>
      <trkpt lat="45.15121" lon="3.69408">
        <ele>993.66</ele>
        <time>2025-02-23T10:13:24Z</time>
      </trkpt>
      <trkpt lat="45.15123" lon="3.69405">
        <ele>992.7</ele>
        <time>2025-02-23T10:13:28Z</time>
      </trkpt>
      <trkpt lat="45.15129" lon="3.69376">
        <ele>994.14</ele>
        <time>2025-02-23T10:13:43Z</time>
      </trkpt>
      <trkpt lat="45.15136" lon="3.69356">
        <ele>995.1</ele>
        <time>2025-02-23T10:13:55Z</time>
      </trkpt>
      <trkpt lat="45.15141" lon="3.6934">
        <ele>996.54</ele>
        <time>2025-02-23T10:14:06Z</time>
      </trkpt>
      <trkpt lat="45.15144" lon="3.69318">
        <ele>997.02</ele>
        <time>2025-02-23T10:14:15Z</time>
      </trkpt>
      <trkpt lat="45.15147" lon="3.69303">
        <ele>998.47</ele>
        <time>2025-02-23T10:14:26Z</time>
      </trkpt>
      <trkpt lat="45.15148" lon="3.69291">
        <ele>999.43</ele>
        <time>2025-02-23T10:14:37Z</time>
      </trkpt>
      <trkpt lat="45.15148" lon="3.69285">
        <ele>998.95</ele>
        <time>2025-02-23T10:14:46Z</time>
      </trkpt>
      <trkpt lat="45.15149" lon="3.6927">
        <ele>1000.39</ele>
        <time>2025-02-23T10:14:58Z</time>
      </trkpt>
      <trkpt lat="45.1515" lon="3.69253">
        <ele>1001.83</ele>
        <time>2025-02-23T10:15:09Z</time>
      </trkpt>
      <trkpt lat="45.15152" lon="3.69248">
        <ele>1002.31</ele>
        <time>2025-02-23T10:15:14Z</time>
      </trkpt>
      <trkpt lat="45.15161" lon="3.69236">
        <ele>1002.79</ele>
        <time>2025-02-23T10:15:28Z</time>
      </trkpt>
      <trkpt lat="45.15161" lon="3.69235">
        <ele>1002.79</ele>
        <time>2025-02-23T10:15:29Z</time>
      </trkpt>
      <trkpt lat="45.15159" lon="3.69214">
        <ele>1005.2</ele>
        <time>2025-02-23T10:15:42Z</time>
      </trkpt>
      <trkpt lat="45.1516" lon="3.69189">
        <ele>1006.64</ele>
        <time>2025-02-23T10:15:54Z</time>
      </trkpt>
      <trkpt lat="45.15165" lon="3.69177">
        <ele>1006.64</ele>
        <time>2025-02-23T10:16:04Z</time>
      </trkpt>
      <trkpt lat="45.15175" lon="3.6915">
        <ele>1007.6</ele>
        <time>2025-02-23T10:16:21Z</time>
      </trkpt>
      <trkpt lat="45.15178" lon="3.69143">
        <ele>1007.12</ele>
        <time>2025-02-23T10:16:27Z</time>
      </trkpt>
      <trkpt lat="45.15179" lon="3.69141">
        <ele>1007.12</ele>
        <time>2025-02-23T10:16:28Z</time>
      </trkpt>
      <trkpt lat="45.15179" lon="3.69139">
        <ele>1007.12</ele>
        <time>2025-02-23T10:16:29Z</time>
      </trkpt>
      <trkpt lat="45.1518" lon="3.69136">
        <ele>1007.6</ele>
        <time>2025-02-23T10:16:30Z</time>
      </trkpt>
      <trkpt lat="45.1518" lon="3.69134">
        <ele>1007.6</ele>
        <time>2025-02-23T10:16:31Z</time>
      </trkpt>
      <trkpt lat="45.1518" lon="3.69132">
        <ele>1007.6</ele>
        <time>2025-02-23T10:16:32Z</time>
      </trkpt>
      <trkpt lat="45.15181" lon="3.69128">
        <ele>1008.08</ele>
        <time>2025-02-23T10:16:34Z</time>
      </trkpt>
      <trkpt lat="45.15181" lon="3.69125">
        <ele>1008.08</ele>
        <time>2025-02-23T10:16:37Z</time>
      </trkpt>
      <trkpt lat="45.15181" lon="3.69122">
        <ele>1008.08</ele>
        <time>2025-02-23T10:16:38Z</time>
      </trkpt>
      <trkpt lat="45.15183" lon="3.69107">
        <ele>1008.56</ele>
        <time>2025-02-23T10:16:49Z</time>
      </trkpt>
      <trkpt lat="45.15183" lon="3.69086">
        <ele>1008.08</ele>
        <time>2025-02-23T10:16:59Z</time>
      </trkpt>
      <trkpt lat="45.15182" lon="3.69065">
        <ele>1007.6</ele>
        <time>2025-02-23T10:17:09Z</time>
      </trkpt>
      <trkpt lat="45.15181" lon="3.69053">
        <ele>1008.08</ele>
        <time>2025-02-23T10:17:20Z</time>
      </trkpt>
      <trkpt lat="45.15178" lon="3.69033">
        <ele>1010.96</ele>
        <time>2025-02-23T10:17:29Z</time>
      </trkpt>
      <trkpt lat="45.15174" lon="3.69021">
        <ele>1013.37</ele>
        <time>2025-02-23T10:17:36Z</time>
      </trkpt>
      <trkpt lat="45.15173" lon="3.68994">
        <ele>1015.77</ele>
        <time>2025-02-23T10:17:50Z</time>
      </trkpt>
      <trkpt lat="45.15173" lon="3.68973">
        <ele>1013.85</ele>
        <time>2025-02-23T10:18:01Z</time>
      </trkpt>
      <trkpt lat="45.15173" lon="3.68972">
        <ele>1012.89</ele>
        <time>2025-02-23T10:18:02Z</time>
      </trkpt>
      <trkpt lat="45.15158" lon="3.68956">
        <ele>1008.56</ele>
        <time>2025-02-23T10:18:15Z</time>
      </trkpt>
      <trkpt lat="45.15142" lon="3.68947">
        <ele>1005.68</ele>
        <time>2025-02-23T10:18:28Z</time>
      </trkpt>
      <trkpt lat="45.15134" lon="3.68937">
        <ele>1005.2</ele>
        <time>2025-02-23T10:18:40Z</time>
      </trkpt>
      <trkpt lat="45.15126" lon="3.68922">
        <ele>1006.16</ele>
        <time>2025-02-23T10:18:50Z</time>
      </trkpt>
      <trkpt lat="45.15121" lon="3.68913">
        <ele>1006.64</ele>
        <time>2025-02-23T10:19:01Z</time>
      </trkpt>
      <trkpt lat="45.15116" lon="3.68906">
        <ele>1007.12</ele>
        <time>2025-02-23T10:19:10Z</time>
      </trkpt>
      <trkpt lat="45.15103" lon="3.68895">
        <ele>1008.56</ele>
        <time>2025-02-23T10:19:21Z</time>
      </trkpt>
      <trkpt lat="45.15095" lon="3.68889">
        <ele>1010.48</ele>
        <time>2025-02-23T10:19:31Z</time>
      </trkpt>
      <trkpt lat="45.15089" lon="3.6888">
        <ele>1012.89</ele>
        <time>2025-02-23T10:19:42Z</time>
      </trkpt>
      <trkpt lat="45.15074" lon="3.68867">
        <ele>1014.33</ele>
        <time>2025-02-23T10:19:55Z</time>
      </trkpt>
      <trkpt lat="45.15065" lon="3.6885">
        <ele>1012.89</ele>
        <time>2025-02-23T10:20:06Z</time>
      </trkpt>
      <trkpt lat="45.15056" lon="3.68837">
        <ele>1012.89</ele>
        <time>2025-02-23T10:20:17Z</time>
      </trkpt>
      <trkpt lat="45.15052" lon="3.68819">
        <ele>1013.85</ele>
        <time>2025-02-23T10:20:31Z</time>
      </trkpt>
      <trkpt lat="45.15051" lon="3.68816">
        <ele>1014.33</ele>
        <time>2025-02-23T10:20:33Z</time>
      </trkpt>
      <trkpt lat="45.15052" lon="3.688">
        <ele>1018.17</ele>
        <time>2025-02-23T10:20:46Z</time>
      </trkpt>
      <trkpt lat="45.15057" lon="3.68783">
        <ele>1020.58</ele>
        <time>2025-02-23T10:21:00Z</time>
      </trkpt>
      <trkpt lat="45.15057" lon="3.68766">
        <ele>1023.46</ele>
        <time>2025-02-23T10:21:11Z</time>
      </trkpt>
      <trkpt lat="45.15057" lon="3.68752">
        <ele>1026.83</ele>
        <time>2025-02-23T10:21:23Z</time>
      </trkpt>
      <trkpt lat="45.15057" lon="3.68739">
        <ele>1029.71</ele>
        <time>2025-02-23T10:21:36Z</time>
      </trkpt>
      <trkpt lat="45.15052" lon="3.68728">
        <ele>1035</ele>
        <time>2025-02-23T10:21:49Z</time>
      </trkpt>
      <trkpt lat="45.1504" lon="3.68707">
        <ele>1040.76</ele>
        <time>2025-02-23T10:22:07Z</time>
      </trkpt>
      <trkpt lat="45.15039" lon="3.68686">
        <ele>1043.65</ele>
        <time>2025-02-23T10:22:22Z</time>
      </trkpt>
      <trkpt lat="45.15031" lon="3.68671">
        <ele>1042.21</ele>
        <time>2025-02-23T10:22:35Z</time>
      </trkpt>
      <trkpt lat="45.15031" lon="3.68669">
        <ele>1042.21</ele>
        <time>2025-02-23T10:22:36Z</time>
      </trkpt>
      <trkpt lat="45.15028" lon="3.68651">
        <ele>1041.73</ele>
        <time>2025-02-23T10:22:51Z</time>
      </trkpt>
      <trkpt lat="45.15022" lon="3.68636">
        <ele>1045.09</ele>
        <time>2025-02-23T10:23:04Z</time>
      </trkpt>
      <trkpt lat="45.15012" lon="3.68623">
        <ele>1048.45</ele>
        <time>2025-02-23T10:23:18Z</time>
      </trkpt>
      <trkpt lat="45.15008" lon="3.68602">
        <ele>1052.78</ele>
        <time>2025-02-23T10:23:33Z</time>
      </trkpt>
      <trkpt lat="45.15011" lon="3.68577">
        <ele>1055.67</ele>
        <time>2025-02-23T10:23:49Z</time>
      </trkpt>
      <trkpt lat="45.15013" lon="3.68554">
        <ele>1056.15</ele>
        <time>2025-02-23T10:24:04Z</time>
      </trkpt>
      <trkpt lat="45.15006" lon="3.68537">
        <ele>1058.55</ele>
        <time>2025-02-23T10:24:20Z</time>
      </trkpt>
      <trkpt lat="45.14992" lon="3.68521">
        <ele>1059.03</ele>
        <time>2025-02-23T10:24:38Z</time>
      </trkpt>
      <trkpt lat="45.14976" lon="3.68519">
        <ele>1060.47</ele>
        <time>2025-02-23T10:24:57Z</time>
      </trkpt>
      <trkpt lat="45.14968" lon="3.68525">
        <ele>1062.39</ele>
        <time>2025-02-23T10:25:10Z</time>
      </trkpt>
      <trkpt lat="45.14958" lon="3.68527">
        <ele>1065.76</ele>
        <time>2025-02-23T10:25:25Z</time>
      </trkpt>
      <trkpt lat="45.14948" lon="3.68524">
        <ele>1067.68</ele>
        <time>2025-02-23T10:25:44Z</time>
      </trkpt>
      <trkpt lat="45.14949" lon="3.68528">
        <ele>1068.16</ele>
        <time>2025-02-23T10:26:14Z</time>
      </trkpt>
      <trkpt lat="45.14946" lon="3.68527">
        <ele>1071.05</ele>
        <time>2025-02-23T10:26:40Z</time>
      </trkpt>
      <trkpt lat="45.14924" lon="3.68517">
        <ele>1074.41</ele>
        <time>2025-02-23T10:27:00Z</time>
      </trkpt>
      <trkpt lat="45.14914" lon="3.68508">
        <ele>1077.29</ele>
        <time>2025-02-23T10:27:13Z</time>
      </trkpt>
      <trkpt lat="45.14905" lon="3.68503">
        <ele>1081.14</ele>
        <time>2025-02-23T10:27:27Z</time>
      </trkpt>
      <trkpt lat="45.14897" lon="3.68495">
        <ele>1082.1</ele>
        <time>2025-02-23T10:27:41Z</time>
      </trkpt>
      <trkpt lat="45.1489" lon="3.68491">
        <ele>1083.06</ele>
        <time>2025-02-23T10:27:48Z</time>
      </trkpt>
      <trkpt lat="45.14877" lon="3.68484">
        <ele>1086.91</ele>
        <time>2025-02-23T10:28:02Z</time>
      </trkpt>
      <trkpt lat="45.1487" lon="3.68479">
        <ele>1088.35</ele>
        <time>2025-02-23T10:28:11Z</time>
      </trkpt>
      <trkpt lat="45.14858" lon="3.68471">
        <ele>1090.27</ele>
        <time>2025-02-23T10:28:25Z</time>
      </trkpt>
      <trkpt lat="45.14845" lon="3.68466">
        <ele>1087.39</ele>
        <time>2025-02-23T10:28:39Z</time>
      </trkpt>
      <trkpt lat="45.14832" lon="3.68466">
        <ele>1088.83</ele>
        <time>2025-02-23T10:28:56Z</time>
      </trkpt>
      <trkpt lat="45.14815" lon="3.68474">
        <ele>1091.23</ele>
        <time>2025-02-23T10:29:10Z</time>
      </trkpt>
      <trkpt lat="45.14812" lon="3.68471">
        <ele>1093.16</ele>
        <time>2025-02-23T10:29:28Z</time>
      </trkpt>
      <trkpt lat="45.14809" lon="3.68474">
        <ele>1095.56</ele>
        <time>2025-02-23T10:29:41Z</time>
      </trkpt>
      <trkpt lat="45.14797" lon="3.68479">
        <ele>1095.56</ele>
        <time>2025-02-23T10:29:57Z</time>
      </trkpt>
      <trkpt lat="45.14784" lon="3.68481">
        <ele>1093.16</ele>
        <time>2025-02-23T10:30:11Z</time>
      </trkpt>
      <trkpt lat="45.14762" lon="3.68489">
        <ele>1092.68</ele>
        <time>2025-02-23T10:30:29Z</time>
      </trkpt>
      <trkpt lat="45.14745" lon="3.68494">
        <ele>1089.79</ele>
        <time>2025-02-23T10:30:44Z</time>
      </trkpt>
      <trkpt lat="45.14728" lon="3.68495">
        <ele>1089.79</ele>
        <time>2025-02-23T10:30:58Z</time>
      </trkpt>
      <trkpt lat="45.14727" lon="3.68487">
        <ele>1087.39</ele>
        <time>2025-02-23T10:31:05Z</time>
      </trkpt>
      <trkpt lat="45.14729" lon="3.6847">
        <ele>1084.99</ele>
        <time>2025-02-23T10:31:19Z</time>
      </trkpt>
      <trkpt lat="45.14736" lon="3.6845">
        <ele>1085.47</ele>
        <time>2025-02-23T10:31:35Z</time>
      </trkpt>
      <trkpt lat="45.14739" lon="3.6843">
        <ele>1086.91</ele>
        <time>2025-02-23T10:31:56Z</time>
      </trkpt>
      <trkpt lat="45.14743" lon="3.68429">
        <ele>1089.79</ele>
        <time>2025-02-23T10:32:16Z</time>
      </trkpt>
      <trkpt lat="45.14749" lon="3.68414">
        <ele>1105.17</ele>
        <time>2025-02-23T10:32:40Z</time>
      </trkpt>
      <trkpt lat="45.14766" lon="3.68399">
        <ele>1101.81</ele>
        <time>2025-02-23T10:32:54Z</time>
      </trkpt>
      <trkpt lat="45.14773" lon="3.68376">
        <ele>1099.4</ele>
        <time>2025-02-23T10:33:11Z</time>
      </trkpt>
      <trkpt lat="45.14774" lon="3.68357">
        <ele>1094.12</ele>
        <time>2025-02-23T10:33:26Z</time>
      </trkpt>
      <trkpt lat="45.14777" lon="3.68336">
        <ele>1092.68</ele>
        <time>2025-02-23T10:33:39Z</time>
      </trkpt>
      <trkpt lat="45.14781" lon="3.68324">
        <ele>1093.64</ele>
        <time>2025-02-23T10:33:50Z</time>
      </trkpt>
      <trkpt lat="45.14785" lon="3.68307">
        <ele>1090.27</ele>
        <time>2025-02-23T10:34:04Z</time>
      </trkpt>
      <trkpt lat="45.14787" lon="3.68279">
        <ele>1087.39</ele>
        <time>2025-02-23T10:34:20Z</time>
      </trkpt>
      <trkpt lat="45.14788" lon="3.68249">
        <ele>1083.06</ele>
        <time>2025-02-23T10:34:36Z</time>
      </trkpt>
      <trkpt lat="45.14789" lon="3.68239">
        <ele>1082.58</ele>
        <time>2025-02-23T10:34:43Z</time>
      </trkpt>
      <trkpt lat="45.14791" lon="3.68214">
        <ele>1090.27</ele>
        <time>2025-02-23T10:34:57Z</time>
      </trkpt>
      <trkpt lat="45.1479" lon="3.68189">
        <ele>1091.23</ele>
        <time>2025-02-23T10:35:15Z</time>
      </trkpt>
      <trkpt lat="45.14785" lon="3.6817">
        <ele>1089.31</ele>
        <time>2025-02-23T10:35:31Z</time>
      </trkpt>
      <trkpt lat="45.14773" lon="3.68134">
        <ele>1104.21</ele>
        <time>2025-02-23T10:35:47Z</time>
      </trkpt>
      <trkpt lat="45.14767" lon="3.68112">
        <ele>1106.61</ele>
        <time>2025-02-23T10:36:02Z</time>
      </trkpt>
      <trkpt lat="45.14765" lon="3.68083">
        <ele>1105.65</ele>
        <time>2025-02-23T10:36:17Z</time>
      </trkpt>
      <trkpt lat="45.14763" lon="3.68081">
        <ele>1106.13</ele>
        <time>2025-02-23T10:36:19Z</time>
      </trkpt>
      <trkpt lat="45.14759" lon="3.6806">
        <ele>1107.1</ele>
        <time>2025-02-23T10:36:33Z</time>
      </trkpt>
      <trkpt lat="45.1476" lon="3.6805">
        <ele>1107.58</ele>
        <time>2025-02-23T10:36:39Z</time>
      </trkpt>
      <trkpt lat="45.14762" lon="3.68033">
        <ele>1112.86</ele>
        <time>2025-02-23T10:36:47Z</time>
      </trkpt>
      <trkpt lat="45.14768" lon="3.6802">
        <ele>1122.96</ele>
        <time>2025-02-23T10:36:57Z</time>
      </trkpt>
      <trkpt lat="45.1477" lon="3.68016">
        <ele>1124.88</ele>
        <time>2025-02-23T10:37:00Z</time>
      </trkpt>
      <trkpt lat="45.14777" lon="3.6801">
        <ele>1126.8</ele>
        <time>2025-02-23T10:37:07Z</time>
      </trkpt>
      <trkpt lat="45.14793" lon="3.67997">
        <ele>1129.69</ele>
        <time>2025-02-23T10:37:22Z</time>
      </trkpt>
      <trkpt lat="45.14804" lon="3.67984">
        <ele>1131.13</ele>
        <time>2025-02-23T10:37:34Z</time>
      </trkpt>
      <trkpt lat="45.14815" lon="3.67968">
        <ele>1132.09</ele>
        <time>2025-02-23T10:37:48Z</time>
      </trkpt>
      <trkpt lat="45.14817" lon="3.67964">
        <ele>1132.57</ele>
        <time>2025-02-23T10:37:51Z</time>
      </trkpt>
      <trkpt lat="45.1482" lon="3.67955">
        <ele>1133.05</ele>
        <time>2025-02-23T10:37:57Z</time>
      </trkpt>
      <trkpt lat="45.14822" lon="3.67947">
        <ele>1133.53</ele>
        <time>2025-02-23T10:38:02Z</time>
      </trkpt>
      <trkpt lat="45.14825" lon="3.67937">
        <ele>1134.49</ele>
        <time>2025-02-23T10:38:09Z</time>
      </trkpt>
      <trkpt lat="45.14829" lon="3.67918">
        <ele>1135.94</ele>
        <time>2025-02-23T10:38:22Z</time>
      </trkpt>
      <trkpt lat="45.1483" lon="3.67911">
        <ele>1135.45</ele>
        <time>2025-02-23T10:38:26Z</time>
      </trkpt>
      <trkpt lat="45.14833" lon="3.67889">
        <ele>1134.97</ele>
        <time>2025-02-23T10:38:40Z</time>
      </trkpt>
      <trkpt lat="45.14836" lon="3.67884">
        <ele>1139.78</ele>
        <time>2025-02-23T10:38:52Z</time>
      </trkpt>
      <trkpt lat="45.14837" lon="3.6787">
        <ele>1139.3</ele>
        <time>2025-02-23T10:39:06Z</time>
      </trkpt>
      <trkpt lat="45.14843" lon="3.67852">
        <ele>1141.7</ele>
        <time>2025-02-23T10:39:22Z</time>
      </trkpt>
      <trkpt lat="45.14849" lon="3.67841">
        <ele>1142.18</ele>
        <time>2025-02-23T10:39:32Z</time>
      </trkpt>
      <trkpt lat="45.14863" lon="3.67822">
        <ele>1142.66</ele>
        <time>2025-02-23T10:39:46Z</time>
      </trkpt>
      <trkpt lat="45.14874" lon="3.67806">
        <ele>1141.7</ele>
        <time>2025-02-23T10:40:02Z</time>
      </trkpt>
      <trkpt lat="45.14882" lon="3.67796">
        <ele>1140.26</ele>
        <time>2025-02-23T10:40:10Z</time>
      </trkpt>
      <trkpt lat="45.14896" lon="3.67776">
        <ele>1136.9</ele>
        <time>2025-02-23T10:40:26Z</time>
      </trkpt>
      <trkpt lat="45.14907" lon="3.67757">
        <ele>1135.45</ele>
        <time>2025-02-23T10:40:38Z</time>
      </trkpt>
      <trkpt lat="45.14919" lon="3.67737">
        <ele>1134.49</ele>
        <time>2025-02-23T10:40:53Z</time>
      </trkpt>
      <trkpt lat="45.1493" lon="3.67717">
        <ele>1131.61</ele>
        <time>2025-02-23T10:41:08Z</time>
      </trkpt>
      <trkpt lat="45.14943" lon="3.67693">
        <ele>1131.13</ele>
        <time>2025-02-23T10:41:22Z</time>
      </trkpt>
      <trkpt lat="45.14956" lon="3.67666">
        <ele>1132.57</ele>
        <time>2025-02-23T10:41:38Z</time>
      </trkpt>
      <trkpt lat="45.14967" lon="3.6764">
        <ele>1133.53</ele>
        <time>2025-02-23T10:41:53Z</time>
      </trkpt>
      <trkpt lat="45.1498" lon="3.67618">
        <ele>1133.05</ele>
        <time>2025-02-23T10:42:08Z</time>
      </trkpt>
      <trkpt lat="45.14989" lon="3.67603">
        <ele>1131.61</ele>
        <time>2025-02-23T10:42:19Z</time>
      </trkpt>
      <trkpt lat="45.14994" lon="3.67596">
        <ele>1130.17</ele>
        <time>2025-02-23T10:42:24Z</time>
      </trkpt>
      <trkpt lat="45.15004" lon="3.67571">
        <ele>1128.73</ele>
        <time>2025-02-23T10:42:40Z</time>
      </trkpt>
      <trkpt lat="45.15014" lon="3.67552">
        <ele>1128.73</ele>
        <time>2025-02-23T10:42:54Z</time>
      </trkpt>
      <trkpt lat="45.15015" lon="3.67551">
        <ele>1134.49</ele>
        <time>2025-02-23T10:43:15Z</time>
      </trkpt>
      <trkpt lat="45.15025" lon="3.6753">
        <ele>1134.97</ele>
        <time>2025-02-23T10:43:27Z</time>
      </trkpt>
      <trkpt lat="45.15034" lon="3.67511">
        <ele>1134.97</ele>
        <time>2025-02-23T10:43:40Z</time>
      </trkpt>
      <trkpt lat="45.15036" lon="3.67509">
        <ele>1134.49</ele>
        <time>2025-02-23T10:43:42Z</time>
      </trkpt>
      <trkpt lat="45.15041" lon="3.675">
        <ele>1133.53</ele>
        <time>2025-02-23T10:43:50Z</time>
      </trkpt>
      <trkpt lat="45.15051" lon="3.67483">
        <ele>1133.53</ele>
        <time>2025-02-23T10:44:04Z</time>
      </trkpt>
      <trkpt lat="45.15056" lon="3.67472">
        <ele>1132.57</ele>
        <time>2025-02-23T10:44:15Z</time>
      </trkpt>
      <trkpt lat="45.1506" lon="3.67469">
        <ele>1132.57</ele>
        <time>2025-02-23T10:44:24Z</time>
      </trkpt>
      <trkpt lat="45.1507" lon="3.67479">
        <ele>1132.57</ele>
        <time>2025-02-23T10:44:36Z</time>
      </trkpt>
      <trkpt lat="45.15074" lon="3.67485">
        <ele>1132.57</ele>
        <time>2025-02-23T10:44:41Z</time>
      </trkpt>
      <trkpt lat="45.1509" lon="3.67501">
        <ele>1134.01</ele>
        <time>2025-02-23T10:44:57Z</time>
      </trkpt>
      <trkpt lat="45.15105" lon="3.67514">
        <ele>1133.53</ele>
        <time>2025-02-23T10:45:12Z</time>
      </trkpt>
      <trkpt lat="45.15123" lon="3.67529">
        <ele>1133.05</ele>
        <time>2025-02-23T10:45:29Z</time>
      </trkpt>
      <trkpt lat="45.15138" lon="3.67542">
        <ele>1131.61</ele>
        <time>2025-02-23T10:45:44Z</time>
      </trkpt>
      <trkpt lat="45.15155" lon="3.67555">
        <ele>1130.17</ele>
        <time>2025-02-23T10:46:00Z</time>
      </trkpt>
      <trkpt lat="45.15165" lon="3.67564">
        <ele>1129.21</ele>
        <time>2025-02-23T10:46:10Z</time>
      </trkpt>
      <trkpt lat="45.1517" lon="3.67567">
        <ele>1128.24</ele>
        <time>2025-02-23T10:46:15Z</time>
      </trkpt>
      <trkpt lat="45.15191" lon="3.67578">
        <ele>1126.32</ele>
        <time>2025-02-23T10:46:32Z</time>
      </trkpt>
      <trkpt lat="45.15211" lon="3.67588">
        <ele>1126.32</ele>
        <time>2025-02-23T10:46:48Z</time>
      </trkpt>
      <trkpt lat="45.15231" lon="3.67596">
        <ele>1125.36</ele>
        <time>2025-02-23T10:47:04Z</time>
      </trkpt>
      <trkpt lat="45.15236" lon="3.67596">
        <ele>1124.88</ele>
        <time>2025-02-23T10:47:08Z</time>
      </trkpt>
      <trkpt lat="45.1524" lon="3.67598">
        <ele>1124.4</ele>
        <time>2025-02-23T10:47:11Z</time>
      </trkpt>
      <trkpt lat="45.15244" lon="3.67601">
        <ele>1124.4</ele>
        <time>2025-02-23T10:47:15Z</time>
      </trkpt>
      <trkpt lat="45.15265" lon="3.67606">
        <ele>1122.48</ele>
        <time>2025-02-23T10:47:31Z</time>
      </trkpt>
      <trkpt lat="45.15288" lon="3.67615">
        <ele>1120.07</ele>
        <time>2025-02-23T10:47:51Z</time>
      </trkpt>
      <trkpt lat="45.15295" lon="3.67617">
        <ele>1120.07</ele>
        <time>2025-02-23T10:47:56Z</time>
      </trkpt>
      <trkpt lat="45.153" lon="3.67615">
        <ele>1120.55</ele>
        <time>2025-02-23T10:48:00Z</time>
      </trkpt>
      <trkpt lat="45.15322" lon="3.67618">
        <ele>1120.55</ele>
        <time>2025-02-23T10:48:16Z</time>
      </trkpt>
      <trkpt lat="45.1534" lon="3.67614">
        <ele>1121.03</ele>
        <time>2025-02-23T10:48:29Z</time>
      </trkpt>
      <trkpt lat="45.15357" lon="3.67613">
        <ele>1119.59</ele>
        <time>2025-02-23T10:48:43Z</time>
      </trkpt>
      <trkpt lat="45.15378" lon="3.67611">
        <ele>1117.19</ele>
        <time>2025-02-23T10:48:59Z</time>
      </trkpt>
      <trkpt lat="45.15401" lon="3.67604">
        <ele>1114.79</ele>
        <time>2025-02-23T10:49:16Z</time>
      </trkpt>
      <trkpt lat="45.15421" lon="3.67595">
        <ele>1111.9</ele>
        <time>2025-02-23T10:49:32Z</time>
      </trkpt>
      <trkpt lat="45.15439" lon="3.6758">
        <ele>1109.5</ele>
        <time>2025-02-23T10:49:48Z</time>
      </trkpt>
      <trkpt lat="45.15451" lon="3.67568">
        <ele>1106.61</ele>
        <time>2025-02-23T10:50:01Z</time>
      </trkpt>
      <trkpt lat="45.15465" lon="3.67544">
        <ele>1106.13</ele>
        <time>2025-02-23T10:50:17Z</time>
      </trkpt>
      <trkpt lat="45.15475" lon="3.67525">
        <ele>1103.73</ele>
        <time>2025-02-23T10:50:31Z</time>
      </trkpt>
      <trkpt lat="45.15483" lon="3.67499">
        <ele>1100.37</ele>
        <time>2025-02-23T10:50:46Z</time>
      </trkpt>
      <trkpt lat="45.15488" lon="3.67484">
        <ele>1098.44</ele>
        <time>2025-02-23T10:50:55Z</time>
      </trkpt>
      <trkpt lat="45.15506" lon="3.67449">
        <ele>1099.89</ele>
        <time>2025-02-23T10:51:15Z</time>
      </trkpt>
      <trkpt lat="45.15522" lon="3.67423">
        <ele>1100.37</ele>
        <time>2025-02-23T10:51:32Z</time>
      </trkpt>
      <trkpt lat="45.15542" lon="3.67404">
        <ele>1101.33</ele>
        <time>2025-02-23T10:51:49Z</time>
      </trkpt>
      <trkpt lat="45.15562" lon="3.67385">
        <ele>1102.77</ele>
        <time>2025-02-23T10:52:05Z</time>
      </trkpt>
      <trkpt lat="45.15576" lon="3.67376">
        <ele>1104.21</ele>
        <time>2025-02-23T10:52:15Z</time>
      </trkpt>
      <trkpt lat="45.15597" lon="3.67366">
        <ele>1102.77</ele>
        <time>2025-02-23T10:52:32Z</time>
      </trkpt>
      <trkpt lat="45.15619" lon="3.6736">
        <ele>1099.89</ele>
        <time>2025-02-23T10:52:48Z</time>
      </trkpt>
      <trkpt lat="45.15643" lon="3.67355">
        <ele>1098.92</ele>
        <time>2025-02-23T10:53:05Z</time>
      </trkpt>
      <trkpt lat="45.1566" lon="3.67348">
        <ele>1097</ele>
        <time>2025-02-23T10:53:20Z</time>
      </trkpt>
      <trkpt lat="45.15678" lon="3.67332">
        <ele>1096.52</ele>
        <time>2025-02-23T10:53:40Z</time>
      </trkpt>
      <trkpt lat="45.15698" lon="3.6729">
        <ele>1094.12</ele>
        <time>2025-02-23T10:54:03Z</time>
      </trkpt>
      <trkpt lat="45.15702" lon="3.67285">
        <ele>1094.12</ele>
        <time>2025-02-23T10:54:07Z</time>
      </trkpt>
      <trkpt lat="45.15727" lon="3.67243">
        <ele>1089.79</ele>
        <time>2025-02-23T10:54:33Z</time>
      </trkpt>
      <trkpt lat="45.15743" lon="3.6723">
        <ele>1087.39</ele>
        <time>2025-02-23T10:54:51Z</time>
      </trkpt>
      <trkpt lat="45.15753" lon="3.67227">
        <ele>1084.99</ele>
        <time>2025-02-23T10:55:05Z</time>
      </trkpt>
      <trkpt lat="45.15773" lon="3.67239">
        <ele>1079.7</ele>
        <time>2025-02-23T10:55:28Z</time>
      </trkpt>
      <trkpt lat="45.15797" lon="3.67271">
        <ele>1085.95</ele>
        <time>2025-02-23T10:55:52Z</time>
      </trkpt>
      <trkpt lat="45.15809" lon="3.67286">
        <ele>1087.39</ele>
        <time>2025-02-23T10:56:08Z</time>
      </trkpt>
      <trkpt lat="45.15814" lon="3.67286">
        <ele>1087.87</ele>
        <time>2025-02-23T10:56:14Z</time>
      </trkpt>
      <trkpt lat="45.15829" lon="3.6727">
        <ele>1090.75</ele>
        <time>2025-02-23T10:56:30Z</time>
      </trkpt>
      <trkpt lat="45.15843" lon="3.67245">
        <ele>1091.23</ele>
        <time>2025-02-23T10:56:49Z</time>
      </trkpt>
      <trkpt lat="45.15861" lon="3.67226">
        <ele>1094.6</ele>
        <time>2025-02-23T10:57:13Z</time>
      </trkpt>
      <trkpt lat="45.15886" lon="3.67206">
        <ele>1095.56</ele>
        <time>2025-02-23T10:57:36Z</time>
      </trkpt>
      <trkpt lat="45.15896" lon="3.67182">
        <ele>1096.04</ele>
        <time>2025-02-23T10:57:54Z</time>
      </trkpt>
      <trkpt lat="45.15908" lon="3.6717">
        <ele>1097.96</ele>
        <time>2025-02-23T10:58:11Z</time>
      </trkpt>
      <trkpt lat="45.15928" lon="3.6715">
        <ele>1100.37</ele>
        <time>2025-02-23T10:58:27Z</time>
      </trkpt>
      <trkpt lat="45.15941" lon="3.6714">
        <ele>1103.25</ele>
        <time>2025-02-23T10:58:37Z</time>
      </trkpt>
      <trkpt lat="45.15945" lon="3.67122">
        <ele>1105.65</ele>
        <time>2025-02-23T10:58:49Z</time>
      </trkpt>
      <trkpt lat="45.15951" lon="3.67099">
        <ele>1107.58</ele>
        <time>2025-02-23T10:59:01Z</time>
      </trkpt>
      <trkpt lat="45.15949" lon="3.67088">
        <ele>1111.42</ele>
        <time>2025-02-23T10:59:15Z</time>
      </trkpt>
      <trkpt lat="45.15947" lon="3.67079">
        <ele>1112.86</ele>
        <time>2025-02-23T10:59:24Z</time>
      </trkpt>
      <trkpt lat="45.15947" lon="3.67049">
        <ele>1118.63</ele>
        <time>2025-02-23T10:59:41Z</time>
      </trkpt>
      <trkpt lat="45.1595" lon="3.67018">
        <ele>1122</ele>
        <time>2025-02-23T11:00:01Z</time>
      </trkpt>
      <trkpt lat="45.15954" lon="3.66988">
        <ele>1123.44</ele>
        <time>2025-02-23T11:00:17Z</time>
      </trkpt>
      <trkpt lat="45.15953" lon="3.66961">
        <ele>1124.4</ele>
        <time>2025-02-23T11:00:34Z</time>
      </trkpt>
      <trkpt lat="45.15955" lon="3.66934">
        <ele>1127.76</ele>
        <time>2025-02-23T11:00:50Z</time>
      </trkpt>
      <trkpt lat="45.15948" lon="3.66915">
        <ele>1132.57</ele>
        <time>2025-02-23T11:01:05Z</time>
      </trkpt>
      <trkpt lat="45.15937" lon="3.66893">
        <ele>1129.69</ele>
        <time>2025-02-23T11:01:23Z</time>
      </trkpt>
      <trkpt lat="45.1594" lon="3.66877">
        <ele>1129.21</ele>
        <time>2025-02-23T11:01:35Z</time>
      </trkpt>
      <trkpt lat="45.15953" lon="3.66842">
        <ele>1126.8</ele>
        <time>2025-02-23T11:01:54Z</time>
      </trkpt>
      <trkpt lat="45.15955" lon="3.66815">
        <ele>1126.8</ele>
        <time>2025-02-23T11:02:12Z</time>
      </trkpt>
      <trkpt lat="45.15959" lon="3.66788">
        <ele>1123.92</ele>
        <time>2025-02-23T11:02:29Z</time>
      </trkpt>
      <trkpt lat="45.15954" lon="3.66762">
        <ele>1122</ele>
        <time>2025-02-23T11:02:52Z</time>
      </trkpt>
      <trkpt lat="45.15941" lon="3.66728">
        <ele>1119.59</ele>
        <time>2025-02-23T11:03:12Z</time>
      </trkpt>
      <trkpt lat="45.15942" lon="3.66679">
        <ele>1122.96</ele>
        <time>2025-02-23T11:03:32Z</time>
      </trkpt>
      <trkpt lat="45.1595" lon="3.66655">
        <ele>1125.36</ele>
        <time>2025-02-23T11:03:46Z</time>
      </trkpt>
      <trkpt lat="45.15951" lon="3.66653">
        <ele>1125.36</ele>
        <time>2025-02-23T11:03:48Z</time>
      </trkpt>
      <trkpt lat="45.15968" lon="3.66636">
        <ele>1122</ele>
        <time>2025-02-23T11:04:05Z</time>
      </trkpt>
      <trkpt lat="45.1598" lon="3.66613">
        <ele>1119.11</ele>
        <time>2025-02-23T11:04:24Z</time>
      </trkpt>
      <trkpt lat="45.1599" lon="3.66594">
        <ele>1117.67</ele>
        <time>2025-02-23T11:04:44Z</time>
      </trkpt>
      <trkpt lat="45.15995" lon="3.66574">
        <ele>1114.31</ele>
        <time>2025-02-23T11:05:01Z</time>
      </trkpt>
      <trkpt lat="45.16005" lon="3.66548">
        <ele>1112.86</ele>
        <time>2025-02-23T11:05:18Z</time>
      </trkpt>
      <trkpt lat="45.16012" lon="3.66537">
        <ele>1112.38</ele>
        <time>2025-02-23T11:05:38Z</time>
      </trkpt>
      <trkpt lat="45.16009" lon="3.66521">
        <ele>1110.94</ele>
        <time>2025-02-23T11:05:55Z</time>
      </trkpt>
      <trkpt lat="45.16011" lon="3.66501">
        <ele>1110.94</ele>
        <time>2025-02-23T11:06:13Z</time>
      </trkpt>
      <trkpt lat="45.16016" lon="3.66485">
        <ele>1110.46</ele>
        <time>2025-02-23T11:06:30Z</time>
      </trkpt>
      <trkpt lat="45.16029" lon="3.6644">
        <ele>1115.75</ele>
        <time>2025-02-23T11:06:53Z</time>
      </trkpt>
      <trkpt lat="45.16043" lon="3.66429">
        <ele>1117.19</ele>
        <time>2025-02-23T11:07:11Z</time>
      </trkpt>
      <trkpt lat="45.16051" lon="3.66426">
        <ele>1117.67</ele>
        <time>2025-02-23T11:07:19Z</time>
      </trkpt>
      <trkpt lat="45.16063" lon="3.6641">
        <ele>1116.71</ele>
        <time>2025-02-23T11:07:31Z</time>
      </trkpt>
      <trkpt lat="45.16069" lon="3.66387">
        <ele>1116.71</ele>
        <time>2025-02-23T11:07:49Z</time>
      </trkpt>
      <trkpt lat="45.16067" lon="3.66359">
        <ele>1115.75</ele>
        <time>2025-02-23T11:08:08Z</time>
      </trkpt>
      <trkpt lat="45.16064" lon="3.66329">
        <ele>1113.34</ele>
        <time>2025-02-23T11:08:27Z</time>
      </trkpt>
      <trkpt lat="45.16067" lon="3.6629">
        <ele>1110.94</ele>
        <time>2025-02-23T11:08:48Z</time>
      </trkpt>
      <trkpt lat="45.16074" lon="3.66257">
        <ele>1109.5</ele>
        <time>2025-02-23T11:09:06Z</time>
      </trkpt>
      <trkpt lat="45.1608" lon="3.66232">
        <ele>1109.98</ele>
        <time>2025-02-23T11:09:18Z</time>
      </trkpt>
      <trkpt lat="45.16082" lon="3.66214">
        <ele>1113.82</ele>
        <time>2025-02-23T11:09:27Z</time>
      </trkpt>
      <trkpt lat="45.16086" lon="3.66209">
        <ele>1114.31</ele>
        <time>2025-02-23T11:09:32Z</time>
      </trkpt>
      <trkpt lat="45.16098" lon="3.66206">
        <ele>1116.23</ele>
        <time>2025-02-23T11:09:43Z</time>
      </trkpt>
      <trkpt lat="45.16114" lon="3.66206">
        <ele>1118.63</ele>
        <time>2025-02-23T11:09:55Z</time>
      </trkpt>
      <trkpt lat="45.16129" lon="3.66203">
        <ele>1119.11</ele>
        <time>2025-02-23T11:10:07Z</time>
      </trkpt>
      <trkpt lat="45.16148" lon="3.66192">
        <ele>1117.67</ele>
        <time>2025-02-23T11:10:22Z</time>
      </trkpt>
      <trkpt lat="45.16161" lon="3.66185">
        <ele>1115.75</ele>
        <time>2025-02-23T11:10:32Z</time>
      </trkpt>
      <trkpt lat="45.16174" lon="3.66185">
        <ele>1115.75</ele>
        <time>2025-02-23T11:10:41Z</time>
      </trkpt>
      <trkpt lat="45.16185" lon="3.66185">
        <ele>1114.79</ele>
        <time>2025-02-23T11:10:49Z</time>
      </trkpt>
      <trkpt lat="45.16197" lon="3.66187">
        <ele>1113.82</ele>
        <time>2025-02-23T11:11:00Z</time>
      </trkpt>
      <trkpt lat="45.16213" lon="3.66191">
        <ele>1111.42</ele>
        <time>2025-02-23T11:11:14Z</time>
      </trkpt>
      <trkpt lat="45.16223" lon="3.66194">
        <ele>1110.94</ele>
        <time>2025-02-23T11:11:22Z</time>
      </trkpt>
      <trkpt lat="45.16225" lon="3.66194">
        <ele>1111.42</ele>
        <time>2025-02-23T11:11:23Z</time>
      </trkpt>
      <trkpt lat="45.16245" lon="3.66197">
        <ele>1111.9</ele>
        <time>2025-02-23T11:11:39Z</time>
      </trkpt>
      <trkpt lat="45.1625" lon="3.66199">
        <ele>1111.9</ele>
        <time>2025-02-23T11:11:43Z</time>
      </trkpt>
      <trkpt lat="45.16274" lon="3.66211">
        <ele>1117.19</ele>
        <time>2025-02-23T11:12:00Z</time>
      </trkpt>
      <trkpt lat="45.16286" lon="3.66222">
        <ele>1116.71</ele>
        <time>2025-02-23T11:12:12Z</time>
      </trkpt>
      <trkpt lat="45.16303" lon="3.66237">
        <ele>1117.67</ele>
        <time>2025-02-23T11:12:27Z</time>
      </trkpt>
      <trkpt lat="45.16328" lon="3.66251">
        <ele>1115.27</ele>
        <time>2025-02-23T11:12:44Z</time>
      </trkpt>
      <trkpt lat="45.16344" lon="3.66264">
        <ele>1113.34</ele>
        <time>2025-02-23T11:13:02Z</time>
      </trkpt>
      <trkpt lat="45.16353" lon="3.66269">
        <ele>1110.46</ele>
        <time>2025-02-23T11:13:18Z</time>
      </trkpt>
      <trkpt lat="45.16369" lon="3.66274">
        <ele>1107.58</ele>
        <time>2025-02-23T11:13:33Z</time>
      </trkpt>
      <trkpt lat="45.1639" lon="3.66288">
        <ele>1104.69</ele>
        <time>2025-02-23T11:13:50Z</time>
      </trkpt>
      <trkpt lat="45.1641" lon="3.66302">
        <ele>1105.17</ele>
        <time>2025-02-23T11:14:07Z</time>
      </trkpt>
      <trkpt lat="45.1644" lon="3.66326">
        <ele>1107.58</ele>
        <time>2025-02-23T11:14:29Z</time>
      </trkpt>
      <trkpt lat="45.16466" lon="3.66355">
        <ele>1108.54</ele>
        <time>2025-02-23T11:14:51Z</time>
      </trkpt>
      <trkpt lat="45.16491" lon="3.66377">
        <ele>1108.54</ele>
        <time>2025-02-23T11:15:14Z</time>
      </trkpt>
      <trkpt lat="45.1651" lon="3.66401">
        <ele>1116.71</ele>
        <time>2025-02-23T11:15:34Z</time>
      </trkpt>
      <trkpt lat="45.16528" lon="3.66419">
        <ele>1113.82</ele>
        <time>2025-02-23T11:15:53Z</time>
      </trkpt>
      <trkpt lat="45.16547" lon="3.66442">
        <ele>1110.46</ele>
        <time>2025-02-23T11:16:11Z</time>
      </trkpt>
      <trkpt lat="45.1656" lon="3.66462">
        <ele>1110.46</ele>
        <time>2025-02-23T11:16:26Z</time>
      </trkpt>
      <trkpt lat="45.16576" lon="3.66479">
        <ele>1108.54</ele>
        <time>2025-02-23T11:16:45Z</time>
      </trkpt>
      <trkpt lat="45.166" lon="3.66499">
        <ele>1111.42</ele>
        <time>2025-02-23T11:17:06Z</time>
      </trkpt>
      <trkpt lat="45.16606" lon="3.66503">
        <ele>1112.38</ele>
        <time>2025-02-23T11:17:10Z</time>
      </trkpt>
      <trkpt lat="45.16824" lon="3.6649">
        <ele>1112.86</ele>
        <time>2025-02-23T11:19:52Z</time>
      </trkpt>
      <trkpt lat="45.16826" lon="3.6649">
        <ele>1112.86</ele>
        <time>2025-02-23T11:19:53Z</time>
      </trkpt>
      <trkpt lat="45.16846" lon="3.66495">
        <ele>1114.31</ele>
        <time>2025-02-23T11:20:11Z</time>
      </trkpt>
      <trkpt lat="45.16864" lon="3.66505">
        <ele>1110.46</ele>
        <time>2025-02-23T11:20:27Z</time>
      </trkpt>
      <trkpt lat="45.16885" lon="3.66517">
        <ele>1109.02</ele>
        <time>2025-02-23T11:20:44Z</time>
      </trkpt>
      <trkpt lat="45.16905" lon="3.6653">
        <ele>1108.54</ele>
        <time>2025-02-23T11:21:01Z</time>
      </trkpt>
      <trkpt lat="45.16921" lon="3.6654">
        <ele>1108.54</ele>
        <time>2025-02-23T11:21:15Z</time>
      </trkpt>
      <trkpt lat="45.16941" lon="3.66553">
        <ele>1111.42</ele>
        <time>2025-02-23T11:21:31Z</time>
      </trkpt>
      <trkpt lat="45.16959" lon="3.66561">
        <ele>1113.34</ele>
        <time>2025-02-23T11:21:44Z</time>
      </trkpt>
      <trkpt lat="45.16977" lon="3.66572">
        <ele>1114.79</ele>
        <time>2025-02-23T11:21:58Z</time>
      </trkpt>
      <trkpt lat="45.17001" lon="3.66586">
        <ele>1111.9</ele>
        <time>2025-02-23T11:22:14Z</time>
      </trkpt>
      <trkpt lat="45.17026" lon="3.66585">
        <ele>1107.1</ele>
        <time>2025-02-23T11:22:31Z</time>
      </trkpt>
      <trkpt lat="45.17052" lon="3.66568">
        <ele>1102.77</ele>
        <time>2025-02-23T11:22:53Z</time>
      </trkpt>
      <trkpt lat="45.17067" lon="3.66557">
        <ele>1100.85</ele>
        <time>2025-02-23T11:23:06Z</time>
      </trkpt>
      <trkpt lat="45.17083" lon="3.66547">
        <ele>1100.37</ele>
        <time>2025-02-23T11:23:18Z</time>
      </trkpt>
      <trkpt lat="45.17112" lon="3.66534">
        <ele>1100.85</ele>
        <time>2025-02-23T11:23:40Z</time>
      </trkpt>
      <trkpt lat="45.17135" lon="3.6655">
        <ele>1098.44</ele>
        <time>2025-02-23T11:24:02Z</time>
      </trkpt>
      <trkpt lat="45.1715" lon="3.66583">
        <ele>1096.04</ele>
        <time>2025-02-23T11:24:23Z</time>
      </trkpt>
      <trkpt lat="45.17154" lon="3.66591">
        <ele>1095.56</ele>
        <time>2025-02-23T11:24:28Z</time>
      </trkpt>
      <trkpt lat="45.17172" lon="3.66624">
        <ele>1095.08</ele>
        <time>2025-02-23T11:24:51Z</time>
      </trkpt>
      <trkpt lat="45.17183" lon="3.66638">
        <ele>1094.12</ele>
        <time>2025-02-23T11:25:03Z</time>
      </trkpt>
      <trkpt lat="45.17207" lon="3.66662">
        <ele>1093.16</ele>
        <time>2025-02-23T11:25:26Z</time>
      </trkpt>
      <trkpt lat="45.1722" lon="3.66668">
        <ele>1095.08</ele>
        <time>2025-02-23T11:25:38Z</time>
      </trkpt>
      <trkpt lat="45.1723" lon="3.6667">
        <ele>1095.56</ele>
        <time>2025-02-23T11:25:49Z</time>
      </trkpt>
      <trkpt lat="45.17235" lon="3.66667">
        <ele>1095.56</ele>
        <time>2025-02-23T11:25:53Z</time>
      </trkpt>
      <trkpt lat="45.1725" lon="3.66644">
        <ele>1097.96</ele>
        <time>2025-02-23T11:26:09Z</time>
      </trkpt>
      <trkpt lat="45.17265" lon="3.66623">
        <ele>1099.4</ele>
        <time>2025-02-23T11:26:23Z</time>
      </trkpt>
      <trkpt lat="45.17276" lon="3.666">
        <ele>1097.48</ele>
        <time>2025-02-23T11:26:39Z</time>
      </trkpt>
      <trkpt lat="45.17286" lon="3.66584">
        <ele>1096.04</ele>
        <time>2025-02-23T11:26:50Z</time>
      </trkpt>
      <trkpt lat="45.17297" lon="3.66569">
        <ele>1093.16</ele>
        <time>2025-02-23T11:27:02Z</time>
      </trkpt>
      <trkpt lat="45.17317" lon="3.66553">
        <ele>1090.75</ele>
        <time>2025-02-23T11:27:20Z</time>
      </trkpt>
      <trkpt lat="45.17325" lon="3.66548">
        <ele>1089.79</ele>
        <time>2025-02-23T11:27:31Z</time>
      </trkpt>
      <trkpt lat="45.17343" lon="3.66536">
        <ele>1088.35</ele>
        <time>2025-02-23T11:27:48Z</time>
      </trkpt>
      <trkpt lat="45.17359" lon="3.66522">
        <ele>1084.5</ele>
        <time>2025-02-23T11:28:04Z</time>
      </trkpt>
      <trkpt lat="45.17376" lon="3.66506">
        <ele>1081.62</ele>
        <time>2025-02-23T11:28:20Z</time>
      </trkpt>
      <trkpt lat="45.17396" lon="3.66497">
        <ele>1078.26</ele>
        <time>2025-02-23T11:28:35Z</time>
      </trkpt>
      <trkpt lat="45.1743" lon="3.66485">
        <ele>1078.74</ele>
        <time>2025-02-23T11:28:56Z</time>
      </trkpt>
      <trkpt lat="45.17455" lon="3.66462">
        <ele>1083.54</ele>
        <time>2025-02-23T11:29:18Z</time>
      </trkpt>
      <trkpt lat="45.17458" lon="3.6646">
        <ele>1084.02</ele>
        <time>2025-02-23T11:29:20Z</time>
      </trkpt>
      <trkpt lat="45.17469" lon="3.6645">
        <ele>1083.54</ele>
        <time>2025-02-23T11:29:29Z</time>
      </trkpt>
      <trkpt lat="45.17487" lon="3.66431">
        <ele>1084.99</ele>
        <time>2025-02-23T11:29:45Z</time>
      </trkpt>
      <trkpt lat="45.17503" lon="3.66419">
        <ele>1083.06</ele>
        <time>2025-02-23T11:29:59Z</time>
      </trkpt>
      <trkpt lat="45.17522" lon="3.66401">
        <ele>1079.22</ele>
        <time>2025-02-23T11:30:18Z</time>
      </trkpt>
      <trkpt lat="45.17537" lon="3.66382">
        <ele>1075.37</ele>
        <time>2025-02-23T11:30:36Z</time>
      </trkpt>
      <trkpt lat="45.17557" lon="3.66359">
        <ele>1073.93</ele>
        <time>2025-02-23T11:30:52Z</time>
      </trkpt>
      <trkpt lat="45.17576" lon="3.66344">
        <ele>1072.49</ele>
        <time>2025-02-23T11:31:10Z</time>
      </trkpt>
      <trkpt lat="45.17596" lon="3.66331">
        <ele>1073.93</ele>
        <time>2025-02-23T11:31:29Z</time>
      </trkpt>
      <trkpt lat="45.17616" lon="3.6632">
        <ele>1074.41</ele>
        <time>2025-02-23T11:31:46Z</time>
      </trkpt>
      <trkpt lat="45.17633" lon="3.66313">
        <ele>1076.81</ele>
        <time>2025-02-23T11:32:01Z</time>
      </trkpt>
      <trkpt lat="45.17654" lon="3.66308">
        <ele>1075.85</ele>
        <time>2025-02-23T11:32:19Z</time>
      </trkpt>
      <trkpt lat="45.17669" lon="3.66304">
        <ele>1072.97</ele>
        <time>2025-02-23T11:32:35Z</time>
      </trkpt>
      <trkpt lat="45.17695" lon="3.66291">
        <ele>1068.64</ele>
        <time>2025-02-23T11:32:57Z</time>
      </trkpt>
      <trkpt lat="45.17724" lon="3.66276">
        <ele>1063.84</ele>
        <time>2025-02-23T11:33:20Z</time>
      </trkpt>
      <trkpt lat="45.17743" lon="3.66274">
        <ele>1059.51</ele>
        <time>2025-02-23T11:33:42Z</time>
      </trkpt>
      <trkpt lat="45.17746" lon="3.66269">
        <ele>1058.55</ele>
        <time>2025-02-23T11:33:59Z</time>
      </trkpt>
      <trkpt lat="45.17764" lon="3.66261">
        <ele>1057.59</ele>
        <time>2025-02-23T11:34:19Z</time>
      </trkpt>
      <trkpt lat="45.17784" lon="3.66251">
        <ele>1057.59</ele>
        <time>2025-02-23T11:34:37Z</time>
      </trkpt>
      <trkpt lat="45.17802" lon="3.66234">
        <ele>1057.59</ele>
        <time>2025-02-23T11:34:59Z</time>
      </trkpt>
      <trkpt lat="45.17832" lon="3.66234">
        <ele>1055.67</ele>
        <time>2025-02-23T11:35:23Z</time>
      </trkpt>
      <trkpt lat="45.17857" lon="3.66239">
        <ele>1055.18</ele>
        <time>2025-02-23T11:35:45Z</time>
      </trkpt>
      <trkpt lat="45.17876" lon="3.66232">
        <ele>1050.38</ele>
        <time>2025-02-23T11:36:03Z</time>
      </trkpt>
      <trkpt lat="45.17877" lon="3.66234">
        <ele>1049.9</ele>
        <time>2025-02-23T11:36:06Z</time>
      </trkpt>
      <trkpt lat="45.17879" lon="3.66236">
        <ele>1047.97</ele>
        <time>2025-02-23T11:36:20Z</time>
      </trkpt>
      <trkpt lat="45.17885" lon="3.66233">
        <ele>1047.01</ele>
        <time>2025-02-23T11:36:33Z</time>
      </trkpt>
      <trkpt lat="45.17913" lon="3.66249">
        <ele>1047.97</ele>
        <time>2025-02-23T11:36:56Z</time>
      </trkpt>
      <trkpt lat="45.17937" lon="3.66252">
        <ele>1044.13</ele>
        <time>2025-02-23T11:37:21Z</time>
      </trkpt>
      <trkpt lat="45.17946" lon="3.66258">
        <ele>1038.84</ele>
        <time>2025-02-23T11:37:41Z</time>
      </trkpt>
      <trkpt lat="45.17959" lon="3.6626">
        <ele>1035.96</ele>
        <time>2025-02-23T11:38:02Z</time>
      </trkpt>
      <trkpt lat="45.17992" lon="3.66265">
        <ele>1032.11</ele>
        <time>2025-02-23T11:38:27Z</time>
      </trkpt>
      <trkpt lat="45.18012" lon="3.66264">
        <ele>1032.11</ele>
        <time>2025-02-23T11:38:44Z</time>
      </trkpt>
      <trkpt lat="45.18022" lon="3.66273">
        <ele>1032.11</ele>
        <time>2025-02-23T11:39:03Z</time>
      </trkpt>
      <trkpt lat="45.1804" lon="3.66299">
        <ele>1032.59</ele>
        <time>2025-02-23T11:39:23Z</time>
      </trkpt>
      <trkpt lat="45.18053" lon="3.66312">
        <ele>1030.19</ele>
        <time>2025-02-23T11:39:42Z</time>
      </trkpt>
      <trkpt lat="45.18077" lon="3.66331">
        <ele>1027.31</ele>
        <time>2025-02-23T11:40:02Z</time>
      </trkpt>
      <trkpt lat="45.181" lon="3.66355">
        <ele>1025.38</ele>
        <time>2025-02-23T11:40:20Z</time>
      </trkpt>
      <trkpt lat="45.18111" lon="3.66368">
        <ele>1027.79</ele>
        <time>2025-02-23T11:40:37Z</time>
      </trkpt>
      <trkpt lat="45.18111" lon="3.66368">
        <ele>1028.27</ele>
        <time>2025-02-23T11:40:42Z</time>
      </trkpt>
      <trkpt lat="45.18128" lon="3.66385">
        <ele>1028.27</ele>
        <time>2025-02-23T11:40:59Z</time>
      </trkpt>
      <trkpt lat="45.18132" lon="3.66385">
        <ele>1028.75</ele>
        <time>2025-02-23T11:41:02Z</time>
      </trkpt>
      <trkpt lat="45.18136" lon="3.66387">
        <ele>1029.23</ele>
        <time>2025-02-23T11:41:06Z</time>
      </trkpt>
      <trkpt lat="45.18153" lon="3.66402">
        <ele>1026.34</ele>
        <time>2025-02-23T11:41:20Z</time>
      </trkpt>
      <trkpt lat="45.18158" lon="3.66403">
        <ele>1024.9</ele>
        <time>2025-02-23T11:41:25Z</time>
      </trkpt>
      <trkpt lat="45.18165" lon="3.66406">
        <ele>1023.46</ele>
        <time>2025-02-23T11:41:30Z</time>
      </trkpt>
      <trkpt lat="45.18182" lon="3.66406">
        <ele>1018.65</ele>
        <time>2025-02-23T11:41:44Z</time>
      </trkpt>
      <trkpt lat="45.18196" lon="3.6641">
        <ele>1016.73</ele>
        <time>2025-02-23T11:41:57Z</time>
      </trkpt>
      <trkpt lat="45.18214" lon="3.66418">
        <ele>1015.77</ele>
        <time>2025-02-23T11:42:11Z</time>
      </trkpt>
      <trkpt lat="45.18219" lon="3.66423">
        <ele>1015.29</ele>
        <time>2025-02-23T11:42:16Z</time>
      </trkpt>
      <trkpt lat="45.18227" lon="3.66429">
        <ele>1014.81</ele>
        <time>2025-02-23T11:42:23Z</time>
      </trkpt>
      <trkpt lat="45.18247" lon="3.66446">
        <ele>1011.44</ele>
        <time>2025-02-23T11:42:41Z</time>
      </trkpt>
      <trkpt lat="45.1826" lon="3.66463">
        <ele>1009.04</ele>
        <time>2025-02-23T11:42:56Z</time>
      </trkpt>
      <trkpt lat="45.18269" lon="3.66484">
        <ele>1007.6</ele>
        <time>2025-02-23T11:43:10Z</time>
      </trkpt>
      <trkpt lat="45.18271" lon="3.66487">
        <ele>1008.08</ele>
        <time>2025-02-23T11:43:12Z</time>
      </trkpt>
      <trkpt lat="45.18273" lon="3.66494">
        <ele>1008.08</ele>
        <time>2025-02-23T11:43:21Z</time>
      </trkpt>
      <trkpt lat="45.1828" lon="3.665">
        <ele>1009.04</ele>
        <time>2025-02-23T11:43:26Z</time>
      </trkpt>
      <trkpt lat="45.1829" lon="3.6652">
        <ele>1008.56</ele>
        <time>2025-02-23T11:43:39Z</time>
      </trkpt>
      <trkpt lat="45.18303" lon="3.66538">
        <ele>1007.6</ele>
        <time>2025-02-23T11:43:53Z</time>
      </trkpt>
      <trkpt lat="45.18307" lon="3.66544">
        <ele>1007.12</ele>
        <time>2025-02-23T11:43:57Z</time>
      </trkpt>
      <trkpt lat="45.18308" lon="3.66546">
        <ele>1007.12</ele>
        <time>2025-02-23T11:43:58Z</time>
      </trkpt>
      <trkpt lat="45.18309" lon="3.66554">
        <ele>1004.23</ele>
        <time>2025-02-23T11:44:05Z</time>
      </trkpt>
      <trkpt lat="45.18303" lon="3.66562">
        <ele>1002.31</ele>
        <time>2025-02-23T11:44:16Z</time>
      </trkpt>
      <trkpt lat="45.18301" lon="3.66564">
        <ele>1002.31</ele>
        <time>2025-02-23T11:44:17Z</time>
      </trkpt>
      <trkpt lat="45.18299" lon="3.66565">
        <ele>1001.83</ele>
        <time>2025-02-23T11:44:18Z</time>
      </trkpt>
      <trkpt lat="45.18291" lon="3.66578">
        <ele>1001.35</ele>
        <time>2025-02-23T11:44:31Z</time>
      </trkpt>
      <trkpt lat="45.18291" lon="3.6658">
        <ele>1001.35</ele>
        <time>2025-02-23T11:44:32Z</time>
      </trkpt>
      <trkpt lat="45.18291" lon="3.66582">
        <ele>1001.35</ele>
        <time>2025-02-23T11:44:33Z</time>
      </trkpt>
      <trkpt lat="45.18291" lon="3.66584">
        <ele>1000.87</ele>
        <time>2025-02-23T11:44:34Z</time>
      </trkpt>
      <trkpt lat="45.18291" lon="3.66586">
        <ele>1000.87</ele>
        <time>2025-02-23T11:44:35Z</time>
      </trkpt>
      <trkpt lat="45.18292" lon="3.66588">
        <ele>1000.39</ele>
        <time>2025-02-23T11:44:36Z</time>
      </trkpt>
      <trkpt lat="45.18292" lon="3.66594">
        <ele>999.91</ele>
        <time>2025-02-23T11:44:39Z</time>
      </trkpt>
      <trkpt lat="45.18301" lon="3.66613">
        <ele>995.1</ele>
        <time>2025-02-23T11:44:52Z</time>
      </trkpt>
      <trkpt lat="45.18307" lon="3.66618">
        <ele>993.66</ele>
        <time>2025-02-23T11:44:56Z</time>
      </trkpt>
      <trkpt lat="45.18308" lon="3.66619">
        <ele>993.66</ele>
        <time>2025-02-23T11:44:57Z</time>
      </trkpt>
      <trkpt lat="45.18319" lon="3.66631">
        <ele>993.66</ele>
        <time>2025-02-23T11:45:12Z</time>
      </trkpt>
      <trkpt lat="45.1832" lon="3.66632">
        <ele>993.66</ele>
        <time>2025-02-23T11:45:14Z</time>
      </trkpt>
      <trkpt lat="45.18321" lon="3.66633">
        <ele>993.18</ele>
        <time>2025-02-23T11:45:15Z</time>
      </trkpt>
      <trkpt lat="45.18327" lon="3.66647">
        <ele>989.81</ele>
        <time>2025-02-23T11:45:29Z</time>
      </trkpt>
      <trkpt lat="45.1833" lon="3.66657">
        <ele>988.37</ele>
        <time>2025-02-23T11:45:40Z</time>
      </trkpt>
      <trkpt lat="45.18341" lon="3.66676">
        <ele>985.01</ele>
        <time>2025-02-23T11:45:56Z</time>
      </trkpt>
      <trkpt lat="45.18352" lon="3.66683">
        <ele>982.6</ele>
        <time>2025-02-23T11:46:12Z</time>
      </trkpt>
      <trkpt lat="45.18351" lon="3.66698">
        <ele>978.28</ele>
        <time>2025-02-23T11:46:27Z</time>
      </trkpt>
      <trkpt lat="45.18356" lon="3.66715">
        <ele>975.39</ele>
        <time>2025-02-23T11:46:49Z</time>
      </trkpt>
      <trkpt lat="45.18356" lon="3.66697">
        <ele>973.95</ele>
        <time>2025-02-23T11:47:12Z</time>
      </trkpt>
      <trkpt lat="45.18354" lon="3.66687">
        <ele>974.91</ele>
        <time>2025-02-23T11:47:27Z</time>
      </trkpt>
      <trkpt lat="45.18349" lon="3.66685">
        <ele>971.07</ele>
        <time>2025-02-23T11:47:53Z</time>
      </trkpt>
      <trkpt lat="45.18347" lon="3.66679">
        <ele>970.59</ele>
        <time>2025-02-23T11:48:12Z</time>
      </trkpt>
      <trkpt lat="45.18347" lon="3.66679">
        <ele>970.11</ele>
        <time>2025-02-23T11:48:38Z</time>
      </trkpt>
      <trkpt lat="45.18351" lon="3.66679">
        <ele>977.8</ele>
        <time>2025-02-23T11:49:06Z</time>
      </trkpt>
      <trkpt lat="45.18352" lon="3.6668">
        <ele>986.45</ele>
        <time>2025-02-23T11:49:34Z</time>
      </trkpt>
      <trkpt lat="45.18355" lon="3.66683">
        <ele>986.45</ele>
        <time>2025-02-23T11:50:05Z</time>
      </trkpt>
      <trkpt lat="45.18351" lon="3.66678">
        <ele>989.81</ele>
        <time>2025-02-23T11:50:34Z</time>
      </trkpt>
      <trkpt lat="45.18349" lon="3.66684">
        <ele>988.85</ele>
        <time>2025-02-23T11:51:09Z</time>
      </trkpt>
      <trkpt lat="45.18352" lon="3.66683">
        <ele>996.54</ele>
        <time>2025-02-23T11:51:42Z</time>
      </trkpt>
      <trkpt lat="45.18352" lon="3.66686">
        <ele>994.62</ele>
        <time>2025-02-23T11:52:06Z</time>
      </trkpt>
      <trkpt lat="45.18354" lon="3.66683">
        <ele>992.22</ele>
        <time>2025-02-23T11:52:41Z</time>
      </trkpt>
      <trkpt lat="45.18352" lon="3.66685">
        <ele>996.06</ele>
        <time>2025-02-23T11:53:18Z</time>
      </trkpt>
      <trkpt lat="45.18353" lon="3.66682">
        <ele>994.62</ele>
        <time>2025-02-23T11:53:47Z</time>
      </trkpt>
      <trkpt lat="45.18355" lon="3.66681">
        <ele>993.66</ele>
        <time>2025-02-23T11:54:13Z</time>
      </trkpt>
      <trkpt lat="45.18355" lon="3.66683">
        <ele>993.18</ele>
        <time>2025-02-23T11:54:38Z</time>
      </trkpt>
      <trkpt lat="45.18352" lon="3.66679">
        <ele>996.06</ele>
        <time>2025-02-23T11:55:02Z</time>
      </trkpt>
      <trkpt lat="45.18349" lon="3.66683">
        <ele>997.51</ele>
        <time>2025-02-23T11:55:36Z</time>
      </trkpt>
      <trkpt lat="45.18348" lon="3.66684">
        <ele>995.1</ele>
        <time>2025-02-23T11:56:05Z</time>
      </trkpt>
      <trkpt lat="45.18351" lon="3.66688">
        <ele>999.91</ele>
        <time>2025-02-23T11:56:30Z</time>
      </trkpt>
      <trkpt lat="45.18349" lon="3.66687">
        <ele>1001.35</ele>
        <time>2025-02-23T11:56:57Z</time>
      </trkpt>
      <trkpt lat="45.1835" lon="3.66686">
        <ele>1001.35</ele>
        <time>2025-02-23T11:57:23Z</time>
      </trkpt>
      <trkpt lat="45.18352" lon="3.66682">
        <ele>1001.83</ele>
        <time>2025-02-23T11:57:47Z</time>
      </trkpt>
      <trkpt lat="45.18353" lon="3.66687">
        <ele>999.43</ele>
        <time>2025-02-23T11:58:16Z</time>
      </trkpt>
      <trkpt lat="45.1836" lon="3.6669">
        <ele>1003.75</ele>
        <time>2025-02-23T11:58:47Z</time>
      </trkpt>
      <trkpt lat="45.18361" lon="3.66692">
        <ele>1005.2</ele>
        <time>2025-02-23T11:59:13Z</time>
      </trkpt>
      <trkpt lat="45.18357" lon="3.66692">
        <ele>1002.79</ele>
        <time>2025-02-23T11:59:38Z</time>
      </trkpt>
      <trkpt lat="45.18349" lon="3.66687">
        <ele>998.95</ele>
        <time>2025-02-23T12:00:15Z</time>
      </trkpt>
      <trkpt lat="45.18352" lon="3.66681">
        <ele>998.47</ele>
        <time>2025-02-23T12:00:54Z</time>
      </trkpt>
      <trkpt lat="45.18354" lon="3.66681">
        <ele>997.02</ele>
        <time>2025-02-23T12:01:22Z</time>
      </trkpt>
      <trkpt lat="45.18351" lon="3.66679">
        <ele>995.58</ele>
        <time>2025-02-23T12:01:47Z</time>
      </trkpt>
      <trkpt lat="45.18351" lon="3.66683">
        <ele>995.58</ele>
        <time>2025-02-23T12:02:21Z</time>
      </trkpt>
      <trkpt lat="45.18349" lon="3.6668">
        <ele>997.51</ele>
        <time>2025-02-23T12:02:53Z</time>
      </trkpt>
      <trkpt lat="45.1835" lon="3.66682">
        <ele>998.95</ele>
        <time>2025-02-23T12:03:27Z</time>
      </trkpt>
      <trkpt lat="45.18351" lon="3.66683">
        <ele>1000.87</ele>
        <time>2025-02-23T12:03:56Z</time>
      </trkpt>
      <trkpt lat="45.18351" lon="3.66685">
        <ele>998.95</ele>
        <time>2025-02-23T12:04:26Z</time>
      </trkpt>
      <trkpt lat="45.18351" lon="3.66684">
        <ele>997.02</ele>
        <time>2025-02-23T12:04:56Z</time>
      </trkpt>
      <trkpt lat="45.18352" lon="3.66683">
        <ele>993.66</ele>
        <time>2025-02-23T12:05:21Z</time>
      </trkpt>
      <trkpt lat="45.18354" lon="3.66689">
        <ele>991.74</ele>
        <time>2025-02-23T12:05:50Z</time>
      </trkpt>
      <trkpt lat="45.18354" lon="3.66686">
        <ele>989.33</ele>
        <time>2025-02-23T12:06:17Z</time>
      </trkpt>
      <trkpt lat="45.18351" lon="3.66688">
        <ele>985.01</ele>
        <time>2025-02-23T12:06:42Z</time>
      </trkpt>
      <trkpt lat="45.18353" lon="3.66685">
        <ele>983.09</ele>
        <time>2025-02-23T12:07:07Z</time>
      </trkpt>
      <trkpt lat="45.18354" lon="3.66684">
        <ele>983.09</ele>
        <time>2025-02-23T12:07:36Z</time>
      </trkpt>
      <trkpt lat="45.18355" lon="3.66688">
        <ele>981.64</ele>
        <time>2025-02-23T12:07:57Z</time>
      </trkpt>
      <trkpt lat="45.18353" lon="3.66686">
        <ele>984.53</ele>
        <time>2025-02-23T12:08:26Z</time>
      </trkpt>
      <trkpt lat="45.18359" lon="3.66686">
        <ele>986.93</ele>
        <time>2025-02-23T12:08:59Z</time>
      </trkpt>
      <trkpt lat="45.18357" lon="3.66688">
        <ele>989.33</ele>
        <time>2025-02-23T12:09:29Z</time>
      </trkpt>
      <trkpt lat="45.18351" lon="3.66684">
        <ele>992.22</ele>
        <time>2025-02-23T12:10:08Z</time>
      </trkpt>
      <trkpt lat="45.18355" lon="3.66686">
        <ele>997.99</ele>
        <time>2025-02-23T12:10:42Z</time>
      </trkpt>
      <trkpt lat="45.18354" lon="3.66688">
        <ele>1001.83</ele>
        <time>2025-02-23T12:11:09Z</time>
      </trkpt>
      <trkpt lat="45.18357" lon="3.66688">
        <ele>1000.39</ele>
        <time>2025-02-23T12:11:36Z</time>
      </trkpt>
      <trkpt lat="45.18354" lon="3.66686">
        <ele>995.1</ele>
        <time>2025-02-23T12:12:08Z</time>
      </trkpt>
      <trkpt lat="45.18353" lon="3.66685">
        <ele>994.14</ele>
        <time>2025-02-23T12:12:48Z</time>
      </trkpt>
      <trkpt lat="45.18351" lon="3.66687">
        <ele>994.62</ele>
        <time>2025-02-23T12:13:14Z</time>
      </trkpt>
      <trkpt lat="45.1835" lon="3.66686">
        <ele>997.99</ele>
        <time>2025-02-23T12:13:44Z</time>
      </trkpt>
      <trkpt lat="45.18352" lon="3.66687">
        <ele>998.95</ele>
        <time>2025-02-23T12:14:17Z</time>
      </trkpt>
      <trkpt lat="45.18352" lon="3.66685">
        <ele>998.47</ele>
        <time>2025-02-23T12:14:53Z</time>
      </trkpt>
      <trkpt lat="45.18352" lon="3.66682">
        <ele>996.06</ele>
        <time>2025-02-23T12:15:34Z</time>
      </trkpt>
      <trkpt lat="45.18352" lon="3.6668">
        <ele>993.18</ele>
        <time>2025-02-23T12:16:07Z</time>
      </trkpt>
      <trkpt lat="45.18354" lon="3.66684">
        <ele>992.22</ele>
        <time>2025-02-23T12:16:44Z</time>
      </trkpt>
      <trkpt lat="45.18353" lon="3.66684">
        <ele>993.18</ele>
        <time>2025-02-23T12:17:20Z</time>
      </trkpt>
      <trkpt lat="45.18355" lon="3.66683">
        <ele>985.49</ele>
        <time>2025-02-23T12:17:57Z</time>
      </trkpt>
      <trkpt lat="45.18353" lon="3.66683">
        <ele>989.33</ele>
        <time>2025-02-23T12:18:26Z</time>
      </trkpt>
      <trkpt lat="45.1835" lon="3.66685">
        <ele>991.74</ele>
        <time>2025-02-23T12:18:40Z</time>
      </trkpt>
      <trkpt lat="45.18346" lon="3.66681">
        <ele>993.66</ele>
        <time>2025-02-23T12:18:51Z</time>
      </trkpt>
      <trkpt lat="45.18338" lon="3.6667">
        <ele>994.62</ele>
        <time>2025-02-23T12:19:09Z</time>
      </trkpt>
      <trkpt lat="45.18337" lon="3.66651">
        <ele>995.1</ele>
        <time>2025-02-23T12:19:31Z</time>
      </trkpt>
      <trkpt lat="45.18354" lon="3.66665">
        <ele>990.78</ele>
        <time>2025-02-23T12:19:52Z</time>
      </trkpt>
      <trkpt lat="45.18369" lon="3.6669">
        <ele>985.01</ele>
        <time>2025-02-23T12:20:11Z</time>
      </trkpt>
      <trkpt lat="45.18381" lon="3.66706">
        <ele>981.64</ele>
        <time>2025-02-23T12:20:25Z</time>
      </trkpt>
      <trkpt lat="45.18401" lon="3.66718">
        <ele>978.28</ele>
        <time>2025-02-23T12:20:43Z</time>
      </trkpt>
      <trkpt lat="45.18418" lon="3.66727">
        <ele>975.88</ele>
        <time>2025-02-23T12:21:00Z</time>
      </trkpt>
      <trkpt lat="45.18443" lon="3.66747">
        <ele>974.91</ele>
        <time>2025-02-23T12:21:19Z</time>
      </trkpt>
      <trkpt lat="45.18446" lon="3.66787">
        <ele>972.03</ele>
        <time>2025-02-23T12:21:42Z</time>
      </trkpt>
      <trkpt lat="45.18457" lon="3.66819">
        <ele>972.51</ele>
        <time>2025-02-23T12:22:05Z</time>
      </trkpt>
      <trkpt lat="45.18465" lon="3.66857">
        <ele>971.07</ele>
        <time>2025-02-23T12:22:25Z</time>
      </trkpt>
      <trkpt lat="45.18494" lon="3.66883">
        <ele>966.26</ele>
        <time>2025-02-23T12:22:45Z</time>
      </trkpt>
      <trkpt lat="45.18513" lon="3.66903">
        <ele>965.78</ele>
        <time>2025-02-23T12:23:03Z</time>
      </trkpt>
      <trkpt lat="45.18529" lon="3.66931">
        <ele>964.82</ele>
        <time>2025-02-23T12:23:24Z</time>
      </trkpt>
      <trkpt lat="45.18557" lon="3.66965">
        <ele>961.46</ele>
        <time>2025-02-23T12:23:47Z</time>
      </trkpt>
      <trkpt lat="45.18562" lon="3.66972">
        <ele>960.01</ele>
        <time>2025-02-23T12:23:54Z</time>
      </trkpt>
      <trkpt lat="45.1858" lon="3.66979">
        <ele>960.49</ele>
        <time>2025-02-23T12:24:10Z</time>
      </trkpt>
      <trkpt lat="45.18598" lon="3.66995">
        <ele>958.57</ele>
        <time>2025-02-23T12:24:24Z</time>
      </trkpt>
      <trkpt lat="45.18621" lon="3.67019">
        <ele>953.77</ele>
        <time>2025-02-23T12:24:47Z</time>
      </trkpt>
      <trkpt lat="45.18638" lon="3.67053">
        <ele>948</ele>
        <time>2025-02-23T12:25:08Z</time>
      </trkpt>
      <trkpt lat="45.18643" lon="3.67087">
        <ele>943.67</ele>
        <time>2025-02-23T12:25:27Z</time>
      </trkpt>
      <trkpt lat="45.18656" lon="3.67107">
        <ele>937.42</ele>
        <time>2025-02-23T12:25:46Z</time>
      </trkpt>
      <trkpt lat="45.18672" lon="3.67084">
        <ele>939.35</ele>
        <time>2025-02-23T12:26:02Z</time>
      </trkpt>
      <trkpt lat="45.18673" lon="3.67081">
        <ele>939.35</ele>
        <time>2025-02-23T12:26:04Z</time>
      </trkpt>
      <trkpt lat="45.18674" lon="3.6707">
        <ele>941.27</ele>
        <time>2025-02-23T12:26:10Z</time>
      </trkpt>
      <trkpt lat="45.18662" lon="3.67037">
        <ele>940.79</ele>
        <time>2025-02-23T12:26:31Z</time>
      </trkpt>
      <trkpt lat="45.18667" lon="3.67011">
        <ele>941.75</ele>
        <time>2025-02-23T12:26:49Z</time>
      </trkpt>
      <trkpt lat="45.18668" lon="3.66993">
        <ele>944.15</ele>
        <time>2025-02-23T12:26:58Z</time>
      </trkpt>
      <trkpt lat="45.1866" lon="3.66971">
        <ele>946.56</ele>
        <time>2025-02-23T12:27:18Z</time>
      </trkpt>
      <trkpt lat="45.18653" lon="3.66948">
        <ele>950.88</ele>
        <time>2025-02-23T12:27:34Z</time>
      </trkpt>
      <trkpt lat="45.18647" lon="3.66919">
        <ele>956.17</ele>
        <time>2025-02-23T12:27:54Z</time>
      </trkpt>
      <trkpt lat="45.18645" lon="3.66895">
        <ele>959.05</ele>
        <time>2025-02-23T12:28:11Z</time>
      </trkpt>
      <trkpt lat="45.18636" lon="3.66868">
        <ele>960.49</ele>
        <time>2025-02-23T12:28:29Z</time>
      </trkpt>
      <trkpt lat="45.18622" lon="3.66842">
        <ele>962.42</ele>
        <time>2025-02-23T12:28:50Z</time>
      </trkpt>
      <trkpt lat="45.18614" lon="3.66829">
        <ele>965.78</ele>
        <time>2025-02-23T12:29:00Z</time>
      </trkpt>
      <trkpt lat="45.18611" lon="3.66824">
        <ele>966.26</ele>
        <time>2025-02-23T12:29:03Z</time>
      </trkpt>
      <trkpt lat="45.1861" lon="3.66808">
        <ele>967.7</ele>
        <time>2025-02-23T12:29:14Z</time>
      </trkpt>
      <trkpt lat="45.18613" lon="3.66788">
        <ele>968.18</ele>
        <time>2025-02-23T12:29:25Z</time>
      </trkpt>
      <trkpt lat="45.18617" lon="3.66772">
        <ele>969.63</ele>
        <time>2025-02-23T12:29:36Z</time>
      </trkpt>
      <trkpt lat="45.1862" lon="3.66764">
        <ele>971.07</ele>
        <time>2025-02-23T12:29:42Z</time>
      </trkpt>
      <trkpt lat="45.18621" lon="3.66762">
        <ele>971.07</ele>
        <time>2025-02-23T12:29:43Z</time>
      </trkpt>
      <trkpt lat="45.18632" lon="3.66749">
        <ele>971.55</ele>
        <time>2025-02-23T12:29:54Z</time>
      </trkpt>
      <trkpt lat="45.18643" lon="3.66734">
        <ele>971.55</ele>
        <time>2025-02-23T12:30:05Z</time>
      </trkpt>
      <trkpt lat="45.1865" lon="3.66724">
        <ele>973.47</ele>
        <time>2025-02-23T12:30:14Z</time>
      </trkpt>
      <trkpt lat="45.18662" lon="3.66708">
        <ele>974.91</ele>
        <time>2025-02-23T12:30:25Z</time>
      </trkpt>
      <trkpt lat="45.18666" lon="3.66703">
        <ele>976.36</ele>
        <time>2025-02-23T12:30:30Z</time>
      </trkpt>
      <trkpt lat="45.18667" lon="3.66701">
        <ele>976.36</ele>
        <time>2025-02-23T12:30:31Z</time>
      </trkpt>
      <trkpt lat="45.18668" lon="3.66699">
        <ele>976.84</ele>
        <time>2025-02-23T12:30:32Z</time>
      </trkpt>
      <trkpt lat="45.18669" lon="3.66697">
        <ele>976.84</ele>
        <time>2025-02-23T12:30:33Z</time>
      </trkpt>
      <trkpt lat="45.18669" lon="3.66696">
        <ele>976.84</ele>
        <time>2025-02-23T12:30:34Z</time>
      </trkpt>
      <trkpt lat="45.18677" lon="3.66679">
        <ele>977.32</ele>
        <time>2025-02-23T12:30:45Z</time>
      </trkpt>
      <trkpt lat="45.18685" lon="3.66664">
        <ele>979.72</ele>
        <time>2025-02-23T12:30:56Z</time>
      </trkpt>
      <trkpt lat="45.18694" lon="3.66649">
        <ele>981.16</ele>
        <time>2025-02-23T12:31:06Z</time>
      </trkpt>
      <trkpt lat="45.18694" lon="3.66648">
        <ele>981.16</ele>
        <time>2025-02-23T12:31:07Z</time>
      </trkpt>
      <trkpt lat="45.18695" lon="3.66647">
        <ele>981.64</ele>
        <time>2025-02-23T12:31:08Z</time>
      </trkpt>
      <trkpt lat="45.18696" lon="3.66645">
        <ele>982.12</ele>
        <time>2025-02-23T12:31:09Z</time>
      </trkpt>
      <trkpt lat="45.18696" lon="3.66644">
        <ele>982.6</ele>
        <time>2025-02-23T12:31:10Z</time>
      </trkpt>
      <trkpt lat="45.18697" lon="3.66642">
        <ele>982.6</ele>
        <time>2025-02-23T12:31:11Z</time>
      </trkpt>
      <trkpt lat="45.18698" lon="3.66641">
        <ele>983.09</ele>
        <time>2025-02-23T12:31:12Z</time>
      </trkpt>
      <trkpt lat="45.18699" lon="3.66639">
        <ele>983.09</ele>
        <time>2025-02-23T12:31:13Z</time>
      </trkpt>
      <trkpt lat="45.187" lon="3.66638">
        <ele>983.09</ele>
        <time>2025-02-23T12:31:14Z</time>
      </trkpt>
      <trkpt lat="45.187" lon="3.66636">
        <ele>983.09</ele>
        <time>2025-02-23T12:31:15Z</time>
      </trkpt>
      <trkpt lat="45.18709" lon="3.66614">
        <ele>985.01</ele>
        <time>2025-02-23T12:31:28Z</time>
      </trkpt>
      <trkpt lat="45.18719" lon="3.66598">
        <ele>984.53</ele>
        <time>2025-02-23T12:31:41Z</time>
      </trkpt>
      <trkpt lat="45.18727" lon="3.66582">
        <ele>984.53</ele>
        <time>2025-02-23T12:31:53Z</time>
      </trkpt>
      <trkpt lat="45.1874" lon="3.66566">
        <ele>983.09</ele>
        <time>2025-02-23T12:32:10Z</time>
      </trkpt>
      <trkpt lat="45.18759" lon="3.66554">
        <ele>980.2</ele>
        <time>2025-02-23T12:32:32Z</time>
      </trkpt>
      <trkpt lat="45.18795" lon="3.66538">
        <ele>981.16</ele>
        <time>2025-02-23T12:32:54Z</time>
      </trkpt>
      <trkpt lat="45.18814" lon="3.6653">
        <ele>982.12</ele>
        <time>2025-02-23T12:33:15Z</time>
      </trkpt>
      <trkpt lat="45.18825" lon="3.66522">
        <ele>980.2</ele>
        <time>2025-02-23T12:33:34Z</time>
      </trkpt>
      <trkpt lat="45.18831" lon="3.66517">
        <ele>982.12</ele>
        <time>2025-02-23T12:33:50Z</time>
      </trkpt>
      <trkpt lat="45.18851" lon="3.66504">
        <ele>983.09</ele>
        <time>2025-02-23T12:34:07Z</time>
      </trkpt>
      <trkpt lat="45.18869" lon="3.66479">
        <ele>986.45</ele>
        <time>2025-02-23T12:34:27Z</time>
      </trkpt>
      <trkpt lat="45.18892" lon="3.6646">
        <ele>981.64</ele>
        <time>2025-02-23T12:34:51Z</time>
      </trkpt>
      <trkpt lat="45.18905" lon="3.66442">
        <ele>985.97</ele>
        <time>2025-02-23T12:35:09Z</time>
      </trkpt>
      <trkpt lat="45.18916" lon="3.6643">
        <ele>983.57</ele>
        <time>2025-02-23T12:35:23Z</time>
      </trkpt>
      <trkpt lat="45.18928" lon="3.66417">
        <ele>984.05</ele>
        <time>2025-02-23T12:35:37Z</time>
      </trkpt>
      <trkpt lat="45.1894" lon="3.66404">
        <ele>990.78</ele>
        <time>2025-02-23T12:35:51Z</time>
      </trkpt>
      <trkpt lat="45.18955" lon="3.6639">
        <ele>1000.87</ele>
        <time>2025-02-23T12:36:07Z</time>
      </trkpt>
      <trkpt lat="45.18971" lon="3.66375">
        <ele>1001.83</ele>
        <time>2025-02-23T12:36:26Z</time>
      </trkpt>
      <trkpt lat="45.18984" lon="3.66364">
        <ele>999.91</ele>
        <time>2025-02-23T12:36:45Z</time>
      </trkpt>
      <trkpt lat="45.18996" lon="3.6635">
        <ele>1005.2</ele>
        <time>2025-02-23T12:37:02Z</time>
      </trkpt>
      <trkpt lat="45.19006" lon="3.66345">
        <ele>1002.79</ele>
        <time>2025-02-23T12:37:20Z</time>
      </trkpt>
      <trkpt lat="45.1903" lon="3.66326">
        <ele>1008.08</ele>
        <time>2025-02-23T12:37:43Z</time>
      </trkpt>
      <trkpt lat="45.1905" lon="3.66314">
        <ele>1002.31</ele>
        <time>2025-02-23T12:38:03Z</time>
      </trkpt>
      <trkpt lat="45.19061" lon="3.66295">
        <ele>1000.39</ele>
        <time>2025-02-23T12:38:20Z</time>
      </trkpt>
      <trkpt lat="45.19083" lon="3.66287">
        <ele>1012.89</ele>
        <time>2025-02-23T12:38:36Z</time>
      </trkpt>
      <trkpt lat="45.19104" lon="3.6628">
        <ele>1016.73</ele>
        <time>2025-02-23T12:38:55Z</time>
      </trkpt>
      <trkpt lat="45.19115" lon="3.66278">
        <ele>1018.17</ele>
        <time>2025-02-23T12:39:10Z</time>
      </trkpt>
      <trkpt lat="45.19128" lon="3.66273">
        <ele>1018.17</ele>
        <time>2025-02-23T12:39:27Z</time>
      </trkpt>
      <trkpt lat="45.19162" lon="3.66271">
        <ele>1020.1</ele>
        <time>2025-02-23T12:39:52Z</time>
      </trkpt>
      <trkpt lat="45.19187" lon="3.6627">
        <ele>1020.58</ele>
        <time>2025-02-23T12:40:16Z</time>
      </trkpt>
      <trkpt lat="45.19212" lon="3.66279">
        <ele>1021.54</ele>
        <time>2025-02-23T12:40:41Z</time>
      </trkpt>
      <trkpt lat="45.19229" lon="3.66261">
        <ele>1020.1</ele>
        <time>2025-02-23T12:41:02Z</time>
      </trkpt>
      <trkpt lat="45.1926" lon="3.66248">
        <ele>1035.48</ele>
        <time>2025-02-23T12:41:19Z</time>
      </trkpt>
      <trkpt lat="45.19265" lon="3.66246">
        <ele>1035.48</ele>
        <time>2025-02-23T12:41:24Z</time>
      </trkpt>
      <trkpt lat="45.19276" lon="3.66237">
        <ele>1035.48</ele>
        <time>2025-02-23T12:41:33Z</time>
      </trkpt>
      <trkpt lat="45.1929" lon="3.66219">
        <ele>1037.88</ele>
        <time>2025-02-23T12:41:47Z</time>
      </trkpt>
      <trkpt lat="45.19304" lon="3.66212">
        <ele>1040.28</ele>
        <time>2025-02-23T12:42:00Z</time>
      </trkpt>
      <trkpt lat="45.19311" lon="3.66212">
        <ele>1043.65</ele>
        <time>2025-02-23T12:42:05Z</time>
      </trkpt>
      <trkpt lat="45.19318" lon="3.66218">
        <ele>1045.57</ele>
        <time>2025-02-23T12:42:14Z</time>
      </trkpt>
      <trkpt lat="45.19315" lon="3.66239">
        <ele>1048.94</ele>
        <time>2025-02-23T12:42:31Z</time>
      </trkpt>
      <trkpt lat="45.19317" lon="3.66258">
        <ele>1050.38</ele>
        <time>2025-02-23T12:42:46Z</time>
      </trkpt>
      <trkpt lat="45.19319" lon="3.66273">
        <ele>1052.78</ele>
        <time>2025-02-23T12:43:00Z</time>
      </trkpt>
      <trkpt lat="45.19318" lon="3.663">
        <ele>1053.26</ele>
        <time>2025-02-23T12:43:15Z</time>
      </trkpt>
      <trkpt lat="45.19317" lon="3.66327">
        <ele>1054.7</ele>
        <time>2025-02-23T12:43:33Z</time>
      </trkpt>
      <trkpt lat="45.19319" lon="3.66349">
        <ele>1058.07</ele>
        <time>2025-02-23T12:43:50Z</time>
      </trkpt>
      <trkpt lat="45.19324" lon="3.66376">
        <ele>1058.55</ele>
        <time>2025-02-23T12:44:09Z</time>
      </trkpt>
      <trkpt lat="45.19324" lon="3.6638">
        <ele>1059.51</ele>
        <time>2025-02-23T12:44:16Z</time>
      </trkpt>
      <trkpt lat="45.19336" lon="3.66406">
        <ele>1060.47</ele>
        <time>2025-02-23T12:44:36Z</time>
      </trkpt>
      <trkpt lat="45.19337" lon="3.66439">
        <ele>1060.47</ele>
        <time>2025-02-23T12:44:55Z</time>
      </trkpt>
      <trkpt lat="45.19337" lon="3.66444">
        <ele>1059.51</ele>
        <time>2025-02-23T12:44:58Z</time>
      </trkpt>
      <trkpt lat="45.19332" lon="3.66478">
        <ele>1049.9</ele>
        <time>2025-02-23T12:45:17Z</time>
      </trkpt>
      <trkpt lat="45.19323" lon="3.66507">
        <ele>1039.8</ele>
        <time>2025-02-23T12:45:36Z</time>
      </trkpt>
      <trkpt lat="45.19315" lon="3.66541">
        <ele>1032.59</ele>
        <time>2025-02-23T12:45:56Z</time>
      </trkpt>
      <trkpt lat="45.19313" lon="3.66573">
        <ele>1025.38</ele>
        <time>2025-02-23T12:46:16Z</time>
      </trkpt>
      <trkpt lat="45.19314" lon="3.66614">
        <ele>1026.34</ele>
        <time>2025-02-23T12:46:33Z</time>
      </trkpt>
      <trkpt lat="45.1932" lon="3.66644">
        <ele>1023.94</ele>
        <time>2025-02-23T12:46:49Z</time>
      </trkpt>
      <trkpt lat="45.1932" lon="3.66654">
        <ele>1022.5</ele>
        <time>2025-02-23T12:46:54Z</time>
      </trkpt>
      <trkpt lat="45.1932" lon="3.66686">
        <ele>1022.02</ele>
        <time>2025-02-23T12:47:10Z</time>
      </trkpt>
      <trkpt lat="45.19319" lon="3.66715">
        <ele>1021.54</ele>
        <time>2025-02-23T12:47:25Z</time>
      </trkpt>
      <trkpt lat="45.19319" lon="3.66743">
        <ele>1020.1</ele>
        <time>2025-02-23T12:47:43Z</time>
      </trkpt>
      <trkpt lat="45.19319" lon="3.66772">
        <ele>1015.77</ele>
        <time>2025-02-23T12:48:01Z</time>
      </trkpt>
      <trkpt lat="45.1932" lon="3.66805">
        <ele>1008.56</ele>
        <time>2025-02-23T12:48:22Z</time>
      </trkpt>
      <trkpt lat="45.19325" lon="3.6684">
        <ele>1006.16</ele>
        <time>2025-02-23T12:48:39Z</time>
      </trkpt>
      <trkpt lat="45.19331" lon="3.66874">
        <ele>1007.6</ele>
        <time>2025-02-23T12:48:54Z</time>
      </trkpt>
      <trkpt lat="45.19332" lon="3.66896">
        <ele>1010.96</ele>
        <time>2025-02-23T12:49:04Z</time>
      </trkpt>
      <trkpt lat="45.19335" lon="3.6692">
        <ele>1010</ele>
        <time>2025-02-23T12:49:16Z</time>
      </trkpt>
      <trkpt lat="45.19339" lon="3.66937">
        <ele>1010.48</ele>
        <time>2025-02-23T12:49:26Z</time>
      </trkpt>
      <trkpt lat="45.19339" lon="3.66939">
        <ele>1010.48</ele>
        <time>2025-02-23T12:49:27Z</time>
      </trkpt>
      <trkpt lat="45.19339" lon="3.66942">
        <ele>1010</ele>
        <time>2025-02-23T12:49:28Z</time>
      </trkpt>
      <trkpt lat="45.19339" lon="3.66944">
        <ele>1010</ele>
        <time>2025-02-23T12:49:29Z</time>
      </trkpt>
      <trkpt lat="45.1934" lon="3.66946">
        <ele>1009.52</ele>
        <time>2025-02-23T12:49:30Z</time>
      </trkpt>
      <trkpt lat="45.19349" lon="3.66968">
        <ele>1007.12</ele>
        <time>2025-02-23T12:49:45Z</time>
      </trkpt>
      <trkpt lat="45.19362" lon="3.66984">
        <ele>1002.79</ele>
        <time>2025-02-23T12:50:00Z</time>
      </trkpt>
      <trkpt lat="45.19374" lon="3.66997">
        <ele>999.43</ele>
        <time>2025-02-23T12:50:10Z</time>
      </trkpt>
      <trkpt lat="45.19389" lon="3.67015">
        <ele>994.62</ele>
        <time>2025-02-23T12:50:24Z</time>
      </trkpt>
      <trkpt lat="45.19397" lon="3.67037">
        <ele>988.37</ele>
        <time>2025-02-23T12:50:41Z</time>
      </trkpt>
      <trkpt lat="45.19408" lon="3.67061">
        <ele>984.53</ele>
        <time>2025-02-23T12:50:58Z</time>
      </trkpt>
      <trkpt lat="45.19418" lon="3.67087">
        <ele>985.01</ele>
        <time>2025-02-23T12:51:14Z</time>
      </trkpt>
      <trkpt lat="45.19431" lon="3.67112">
        <ele>979.72</ele>
        <time>2025-02-23T12:51:32Z</time>
      </trkpt>
      <trkpt lat="45.1943" lon="3.67118">
        <ele>979.24</ele>
        <time>2025-02-23T12:51:35Z</time>
      </trkpt>
      <trkpt lat="45.19427" lon="3.67135">
        <ele>977.8</ele>
        <time>2025-02-23T12:51:47Z</time>
      </trkpt>
      <trkpt lat="45.19415" lon="3.67154">
        <ele>972.03</ele>
        <time>2025-02-23T12:52:02Z</time>
      </trkpt>
      <trkpt lat="45.19406" lon="3.67175">
        <ele>969.63</ele>
        <time>2025-02-23T12:52:17Z</time>
      </trkpt>
      <trkpt lat="45.19397" lon="3.672">
        <ele>968.18</ele>
        <time>2025-02-23T12:52:33Z</time>
      </trkpt>
      <trkpt lat="45.19395" lon="3.67225">
        <ele>968.67</ele>
        <time>2025-02-23T12:52:46Z</time>
      </trkpt>
      <trkpt lat="45.19391" lon="3.67249">
        <ele>963.38</ele>
        <time>2025-02-23T12:53:02Z</time>
      </trkpt>
      <trkpt lat="45.19391" lon="3.67277">
        <ele>955.21</ele>
        <time>2025-02-23T12:53:21Z</time>
      </trkpt>
      <trkpt lat="45.19394" lon="3.67314">
        <ele>951.84</ele>
        <time>2025-02-23T12:53:44Z</time>
      </trkpt>
      <trkpt lat="45.19397" lon="3.67351">
        <ele>949.92</ele>
        <time>2025-02-23T12:54:10Z</time>
      </trkpt>
      <trkpt lat="45.19385" lon="3.67391">
        <ele>946.56</ele>
        <time>2025-02-23T12:54:33Z</time>
      </trkpt>
      <trkpt lat="45.19365" lon="3.67414">
        <ele>943.67</ele>
        <time>2025-02-23T12:54:57Z</time>
      </trkpt>
      <trkpt lat="45.19349" lon="3.67446">
        <ele>940.79</ele>
        <time>2025-02-23T12:55:15Z</time>
      </trkpt>
      <trkpt lat="45.19336" lon="3.67477">
        <ele>939.83</ele>
        <time>2025-02-23T12:55:34Z</time>
      </trkpt>
      <trkpt lat="45.19326" lon="3.67511">
        <ele>935.02</ele>
        <time>2025-02-23T12:55:51Z</time>
      </trkpt>
      <trkpt lat="45.19317" lon="3.67541">
        <ele>929.73</ele>
        <time>2025-02-23T12:56:09Z</time>
      </trkpt>
      <trkpt lat="45.19305" lon="3.67574">
        <ele>927.81</ele>
        <time>2025-02-23T12:56:29Z</time>
      </trkpt>
      <trkpt lat="45.19303" lon="3.67594">
        <ele>924.45</ele>
        <time>2025-02-23T12:56:48Z</time>
      </trkpt>
      <trkpt lat="45.19282" lon="3.67618">
        <ele>915.31</ele>
        <time>2025-02-23T12:57:13Z</time>
      </trkpt>
      <trkpt lat="45.19259" lon="3.67646">
        <ele>907.14</ele>
        <time>2025-02-23T12:57:35Z</time>
      </trkpt>
      <trkpt lat="45.19251" lon="3.67657">
        <ele>903.3</ele>
        <time>2025-02-23T12:57:46Z</time>
      </trkpt>
      <trkpt lat="45.1925" lon="3.67661">
        <ele>902.82</ele>
        <time>2025-02-23T12:57:49Z</time>
      </trkpt>
      <trkpt lat="45.1924" lon="3.67668">
        <ele>901.37</ele>
        <time>2025-02-23T12:57:58Z</time>
      </trkpt>
      <trkpt lat="45.19224" lon="3.6769">
        <ele>898.01</ele>
        <time>2025-02-23T12:58:14Z</time>
      </trkpt>
      <trkpt lat="45.19208" lon="3.67711">
        <ele>892.24</ele>
        <time>2025-02-23T12:58:32Z</time>
      </trkpt>
      <trkpt lat="45.19192" lon="3.67732">
        <ele>882.15</ele>
        <time>2025-02-23T12:58:51Z</time>
      </trkpt>
      <trkpt lat="45.19177" lon="3.67759">
        <ele>886.47</ele>
        <time>2025-02-23T12:59:05Z</time>
      </trkpt>
      <trkpt lat="45.19159" lon="3.67794">
        <ele>901.85</ele>
        <time>2025-02-23T12:59:23Z</time>
      </trkpt>
      <trkpt lat="45.19145" lon="3.67823">
        <ele>910.03</ele>
        <time>2025-02-23T12:59:40Z</time>
      </trkpt>
      <trkpt lat="45.19134" lon="3.67837">
        <ele>910.03</ele>
        <time>2025-02-23T12:59:51Z</time>
      </trkpt>
      <trkpt lat="45.19116" lon="3.67855">
        <ele>908.1</ele>
        <time>2025-02-23T13:00:07Z</time>
      </trkpt>
      <trkpt lat="45.19093" lon="3.67877">
        <ele>910.03</ele>
        <time>2025-02-23T13:00:26Z</time>
      </trkpt>
      <trkpt lat="45.19077" lon="3.67899">
        <ele>908.1</ele>
        <time>2025-02-23T13:00:42Z</time>
      </trkpt>
      <trkpt lat="45.1907" lon="3.6793">
        <ele>907.62</ele>
        <time>2025-02-23T13:01:00Z</time>
      </trkpt>
      <trkpt lat="45.19073" lon="3.6797">
        <ele>908.58</ele>
        <time>2025-02-23T13:01:20Z</time>
      </trkpt>
      <trkpt lat="45.19076" lon="3.68">
        <ele>906.18</ele>
        <time>2025-02-23T13:01:37Z</time>
      </trkpt>
      <trkpt lat="45.19076" lon="3.68002">
        <ele>906.18</ele>
        <time>2025-02-23T13:01:38Z</time>
      </trkpt>
      <trkpt lat="45.19078" lon="3.6804">
        <ele>904.26</ele>
        <time>2025-02-23T13:01:58Z</time>
      </trkpt>
      <trkpt lat="45.19079" lon="3.68077">
        <ele>904.26</ele>
        <time>2025-02-23T13:02:16Z</time>
      </trkpt>
      <trkpt lat="45.19076" lon="3.68114">
        <ele>904.26</ele>
        <time>2025-02-23T13:02:35Z</time>
      </trkpt>
      <trkpt lat="45.19075" lon="3.6815">
        <ele>905.7</ele>
        <time>2025-02-23T13:02:53Z</time>
      </trkpt>
      <trkpt lat="45.19081" lon="3.68182">
        <ele>907.14</ele>
        <time>2025-02-23T13:03:11Z</time>
      </trkpt>
      <trkpt lat="45.19089" lon="3.68211">
        <ele>910.51</ele>
        <time>2025-02-23T13:03:26Z</time>
      </trkpt>
      <trkpt lat="45.19087" lon="3.68253">
        <ele>911.47</ele>
        <time>2025-02-23T13:03:48Z</time>
      </trkpt>
      <trkpt lat="45.19084" lon="3.68283">
        <ele>910.99</ele>
        <time>2025-02-23T13:04:06Z</time>
      </trkpt>
      <trkpt lat="45.1909" lon="3.68314">
        <ele>912.91</ele>
        <time>2025-02-23T13:04:23Z</time>
      </trkpt>
      <trkpt lat="45.19093" lon="3.68354">
        <ele>910.99</ele>
        <time>2025-02-23T13:04:44Z</time>
      </trkpt>
      <trkpt lat="45.19094" lon="3.68363">
        <ele>910.03</ele>
        <time>2025-02-23T13:04:50Z</time>
      </trkpt>
      <trkpt lat="45.19107" lon="3.68403">
        <ele>911.47</ele>
        <time>2025-02-23T13:05:11Z</time>
      </trkpt>
      <trkpt lat="45.19125" lon="3.68414">
        <ele>910.03</ele>
        <time>2025-02-23T13:05:27Z</time>
      </trkpt>
      <trkpt lat="45.19154" lon="3.68422">
        <ele>910.51</ele>
        <time>2025-02-23T13:05:49Z</time>
      </trkpt>
      <trkpt lat="45.19183" lon="3.68437">
        <ele>913.39</ele>
        <time>2025-02-23T13:06:10Z</time>
      </trkpt>
      <trkpt lat="45.19209" lon="3.68446">
        <ele>914.83</ele>
        <time>2025-02-23T13:06:31Z</time>
      </trkpt>
      <trkpt lat="45.19231" lon="3.68449">
        <ele>916.75</ele>
        <time>2025-02-23T13:06:48Z</time>
      </trkpt>
      <trkpt lat="45.19244" lon="3.68454">
        <ele>919.64</ele>
        <time>2025-02-23T13:07:04Z</time>
      </trkpt>
      <trkpt lat="45.1926" lon="3.68463">
        <ele>924.93</ele>
        <time>2025-02-23T13:07:19Z</time>
      </trkpt>
      <trkpt lat="45.19281" lon="3.68473">
        <ele>928.29</ele>
        <time>2025-02-23T13:07:36Z</time>
      </trkpt>
      <trkpt lat="45.19296" lon="3.68497">
        <ele>929.73</ele>
        <time>2025-02-23T13:07:56Z</time>
      </trkpt>
      <trkpt lat="45.19296" lon="3.6851">
        <ele>930.21</ele>
        <time>2025-02-23T13:08:04Z</time>
      </trkpt>
      <trkpt lat="45.1928" lon="3.68534">
        <ele>927.33</ele>
        <time>2025-02-23T13:08:23Z</time>
      </trkpt>
      <trkpt lat="45.1926" lon="3.68544">
        <ele>925.41</ele>
        <time>2025-02-23T13:08:41Z</time>
      </trkpt>
      <trkpt lat="45.19238" lon="3.68556">
        <ele>924.45</ele>
        <time>2025-02-23T13:08:58Z</time>
      </trkpt>
      <trkpt lat="45.19213" lon="3.68569">
        <ele>922.04</ele>
        <time>2025-02-23T13:09:18Z</time>
      </trkpt>
      <trkpt lat="45.19193" lon="3.68584">
        <ele>919.16</ele>
        <time>2025-02-23T13:09:35Z</time>
      </trkpt>
      <trkpt lat="45.1919" lon="3.68586">
        <ele>919.16</ele>
        <time>2025-02-23T13:09:37Z</time>
      </trkpt>
      <trkpt lat="45.19174" lon="3.68613">
        <ele>917.24</ele>
        <time>2025-02-23T13:09:57Z</time>
      </trkpt>
      <trkpt lat="45.19165" lon="3.68637">
        <ele>915.79</ele>
        <time>2025-02-23T13:10:11Z</time>
      </trkpt>
      <trkpt lat="45.19162" lon="3.68644">
        <ele>915.79</ele>
        <time>2025-02-23T13:10:15Z</time>
      </trkpt>
      <trkpt lat="45.19151" lon="3.68674">
        <ele>911.95</ele>
        <time>2025-02-23T13:10:34Z</time>
      </trkpt>
      <trkpt lat="45.19137" lon="3.68706">
        <ele>910.99</ele>
        <time>2025-02-23T13:10:53Z</time>
      </trkpt>
      <trkpt lat="45.19128" lon="3.68731">
        <ele>912.91</ele>
        <time>2025-02-23T13:11:07Z</time>
      </trkpt>
      <trkpt lat="45.19123" lon="3.68742">
        <ele>913.39</ele>
        <time>2025-02-23T13:11:14Z</time>
      </trkpt>
      <trkpt lat="45.19114" lon="3.6877">
        <ele>913.87</ele>
        <time>2025-02-23T13:11:30Z</time>
      </trkpt>
      <trkpt lat="45.19104" lon="3.68808">
        <ele>914.83</ele>
        <time>2025-02-23T13:11:50Z</time>
      </trkpt>
      <trkpt lat="45.19097" lon="3.68839">
        <ele>913.87</ele>
        <time>2025-02-23T13:12:07Z</time>
      </trkpt>
      <trkpt lat="45.19092" lon="3.68872">
        <ele>913.87</ele>
        <time>2025-02-23T13:12:25Z</time>
      </trkpt>
      <trkpt lat="45.19086" lon="3.68892">
        <ele>912.43</ele>
        <time>2025-02-23T13:12:36Z</time>
      </trkpt>
      <trkpt lat="45.19082" lon="3.68919">
        <ele>909.06</ele>
        <time>2025-02-23T13:12:53Z</time>
      </trkpt>
      <trkpt lat="45.19081" lon="3.68937">
        <ele>904.26</ele>
        <time>2025-02-23T13:13:05Z</time>
      </trkpt>
      <trkpt lat="45.19082" lon="3.68961">
        <ele>898.01</ele>
        <time>2025-02-23T13:13:20Z</time>
      </trkpt>
      <trkpt lat="45.19084" lon="3.6897">
        <ele>896.57</ele>
        <time>2025-02-23T13:13:25Z</time>
      </trkpt>
      <trkpt lat="45.19092" lon="3.68996">
        <ele>891.28</ele>
        <time>2025-02-23T13:13:41Z</time>
      </trkpt>
      <trkpt lat="45.19103" lon="3.69023">
        <ele>889.84</ele>
        <time>2025-02-23T13:13:58Z</time>
      </trkpt>
      <trkpt lat="45.19104" lon="3.69025">
        <ele>889.84</ele>
        <time>2025-02-23T13:13:59Z</time>
      </trkpt>
      <trkpt lat="45.19108" lon="3.69059">
        <ele>889.36</ele>
        <time>2025-02-23T13:14:17Z</time>
      </trkpt>
      <trkpt lat="45.19104" lon="3.6908">
        <ele>895.12</ele>
        <time>2025-02-23T13:14:25Z</time>
      </trkpt>
      <trkpt lat="45.191" lon="3.69093">
        <ele>896.57</ele>
        <time>2025-02-23T13:14:31Z</time>
      </trkpt>
      <trkpt lat="45.19098" lon="3.69118">
        <ele>898.49</ele>
        <time>2025-02-23T13:14:46Z</time>
      </trkpt>
      <trkpt lat="45.19099" lon="3.69121">
        <ele>898.01</ele>
        <time>2025-02-23T13:14:54Z</time>
      </trkpt>
      <trkpt lat="45.19103" lon="3.69129">
        <ele>898.01</ele>
        <time>2025-02-23T13:14:59Z</time>
      </trkpt>
      <trkpt lat="45.19107" lon="3.69161">
        <ele>898.49</ele>
        <time>2025-02-23T13:15:15Z</time>
      </trkpt>
      <trkpt lat="45.19111" lon="3.69193">
        <ele>897.53</ele>
        <time>2025-02-23T13:15:32Z</time>
      </trkpt>
      <trkpt lat="45.19115" lon="3.6922">
        <ele>897.53</ele>
        <time>2025-02-23T13:15:47Z</time>
      </trkpt>
      <trkpt lat="45.1912" lon="3.69226">
        <ele>897.05</ele>
        <time>2025-02-23T13:16:01Z</time>
      </trkpt>
      <trkpt lat="45.19117" lon="3.69232">
        <ele>897.05</ele>
        <time>2025-02-23T13:16:14Z</time>
      </trkpt>
      <trkpt lat="45.19116" lon="3.69253">
        <ele>897.53</ele>
        <time>2025-02-23T13:16:25Z</time>
      </trkpt>
      <trkpt lat="45.19113" lon="3.69279">
        <ele>901.37</ele>
        <time>2025-02-23T13:16:39Z</time>
      </trkpt>
      <trkpt lat="45.19115" lon="3.69302">
        <ele>902.82</ele>
        <time>2025-02-23T13:16:55Z</time>
      </trkpt>
      <trkpt lat="45.19114" lon="3.69331">
        <ele>906.66</ele>
        <time>2025-02-23T13:17:11Z</time>
      </trkpt>
      <trkpt lat="45.19112" lon="3.69358">
        <ele>912.43</ele>
        <time>2025-02-23T13:17:27Z</time>
      </trkpt>
      <trkpt lat="45.19111" lon="3.6937">
        <ele>913.87</ele>
        <time>2025-02-23T13:17:36Z</time>
      </trkpt>
      <trkpt lat="45.19113" lon="3.69398">
        <ele>914.83</ele>
        <time>2025-02-23T13:17:49Z</time>
      </trkpt>
      <trkpt lat="45.19118" lon="3.69418">
        <ele>918.2</ele>
        <time>2025-02-23T13:18:01Z</time>
      </trkpt>
      <trkpt lat="45.19119" lon="3.69438">
        <ele>920.6</ele>
        <time>2025-02-23T13:18:12Z</time>
      </trkpt>
      <trkpt lat="45.19118" lon="3.69458">
        <ele>920.6</ele>
        <time>2025-02-23T13:18:26Z</time>
      </trkpt>
      <trkpt lat="45.19116" lon="3.69478">
        <ele>922.52</ele>
        <time>2025-02-23T13:18:38Z</time>
      </trkpt>
      <trkpt lat="45.19114" lon="3.69497">
        <ele>923.48</ele>
        <time>2025-02-23T13:18:50Z</time>
      </trkpt>
      <trkpt lat="45.19107" lon="3.69522">
        <ele>925.89</ele>
        <time>2025-02-23T13:19:06Z</time>
      </trkpt>
      <trkpt lat="45.19099" lon="3.69545">
        <ele>928.29</ele>
        <time>2025-02-23T13:19:21Z</time>
      </trkpt>
      <trkpt lat="45.19096" lon="3.69564">
        <ele>929.73</ele>
        <time>2025-02-23T13:19:35Z</time>
      </trkpt>
      <trkpt lat="45.19096" lon="3.69589">
        <ele>932.62</ele>
        <time>2025-02-23T13:19:48Z</time>
      </trkpt>
      <trkpt lat="45.191" lon="3.69619">
        <ele>936.46</ele>
        <time>2025-02-23T13:20:05Z</time>
      </trkpt>
      <trkpt lat="45.19102" lon="3.69639">
        <ele>935.98</ele>
        <time>2025-02-23T13:20:19Z</time>
      </trkpt>
      <trkpt lat="45.19105" lon="3.69658">
        <ele>935.02</ele>
        <time>2025-02-23T13:20:31Z</time>
      </trkpt>
      <trkpt lat="45.19112" lon="3.69692">
        <ele>936.94</ele>
        <time>2025-02-23T13:20:49Z</time>
      </trkpt>
      <trkpt lat="45.19116" lon="3.69718">
        <ele>938.38</ele>
        <time>2025-02-23T13:21:04Z</time>
      </trkpt>
      <trkpt lat="45.1912" lon="3.6974">
        <ele>937.9</ele>
        <time>2025-02-23T13:21:18Z</time>
      </trkpt>
      <trkpt lat="45.19124" lon="3.69764">
        <ele>939.35</ele>
        <time>2025-02-23T13:21:34Z</time>
      </trkpt>
      <trkpt lat="45.19122" lon="3.69787">
        <ele>941.27</ele>
        <time>2025-02-23T13:21:50Z</time>
      </trkpt>
      <trkpt lat="45.19121" lon="3.69789">
        <ele>941.27</ele>
        <time>2025-02-23T13:21:51Z</time>
      </trkpt>
      <trkpt lat="45.19114" lon="3.69812">
        <ele>943.19</ele>
        <time>2025-02-23T13:22:08Z</time>
      </trkpt>
      <trkpt lat="45.19118" lon="3.69832">
        <ele>945.11</ele>
        <time>2025-02-23T13:22:22Z</time>
      </trkpt>
      <trkpt lat="45.1912" lon="3.69835">
        <ele>945.59</ele>
        <time>2025-02-23T13:22:24Z</time>
      </trkpt>
      <trkpt lat="45.19121" lon="3.69837">
        <ele>945.59</ele>
        <time>2025-02-23T13:22:25Z</time>
      </trkpt>
      <trkpt lat="45.19129" lon="3.69856">
        <ele>947.04</ele>
        <time>2025-02-23T13:22:37Z</time>
      </trkpt>
      <trkpt lat="45.19137" lon="3.6987">
        <ele>948.96</ele>
        <time>2025-02-23T13:22:51Z</time>
      </trkpt>
      <trkpt lat="45.19156" lon="3.69882">
        <ele>951.36</ele>
        <time>2025-02-23T13:23:07Z</time>
      </trkpt>
      <trkpt lat="45.19175" lon="3.69894">
        <ele>950.4</ele>
        <time>2025-02-23T13:23:27Z</time>
      </trkpt>
      <trkpt lat="45.19178" lon="3.69895">
        <ele>950.4</ele>
        <time>2025-02-23T13:23:30Z</time>
      </trkpt>
      <trkpt lat="45.19195" lon="3.69904">
        <ele>951.36</ele>
        <time>2025-02-23T13:23:46Z</time>
      </trkpt>
      <trkpt lat="45.19206" lon="3.69914">
        <ele>953.28</ele>
        <time>2025-02-23T13:24:01Z</time>
      </trkpt>
      <trkpt lat="45.1922" lon="3.6993">
        <ele>956.65</ele>
        <time>2025-02-23T13:24:18Z</time>
      </trkpt>
      <trkpt lat="45.19227" lon="3.69946">
        <ele>956.65</ele>
        <time>2025-02-23T13:24:31Z</time>
      </trkpt>
      <trkpt lat="45.19232" lon="3.69966">
        <ele>957.13</ele>
        <time>2025-02-23T13:24:46Z</time>
      </trkpt>
      <trkpt lat="45.19234" lon="3.69993">
        <ele>959.05</ele>
        <time>2025-02-23T13:25:02Z</time>
      </trkpt>
      <trkpt lat="45.19239" lon="3.7002">
        <ele>958.57</ele>
        <time>2025-02-23T13:25:18Z</time>
      </trkpt>
      <trkpt lat="45.19246" lon="3.70048">
        <ele>958.09</ele>
        <time>2025-02-23T13:25:35Z</time>
      </trkpt>
      <trkpt lat="45.19254" lon="3.70075">
        <ele>958.09</ele>
        <time>2025-02-23T13:25:51Z</time>
      </trkpt>
      <trkpt lat="45.1926" lon="3.701">
        <ele>959.53</ele>
        <time>2025-02-23T13:26:05Z</time>
      </trkpt>
      <trkpt lat="45.19272" lon="3.70125">
        <ele>960.98</ele>
        <time>2025-02-23T13:26:21Z</time>
      </trkpt>
      <trkpt lat="45.19285" lon="3.70145">
        <ele>961.46</ele>
        <time>2025-02-23T13:26:36Z</time>
      </trkpt>
      <trkpt lat="45.19294" lon="3.70162">
        <ele>962.42</ele>
        <time>2025-02-23T13:26:49Z</time>
      </trkpt>
      <trkpt lat="45.19301" lon="3.70182">
        <ele>964.82</ele>
        <time>2025-02-23T13:27:02Z</time>
      </trkpt>
      <trkpt lat="45.19306" lon="3.70197">
        <ele>965.78</ele>
        <time>2025-02-23T13:27:12Z</time>
      </trkpt>
      <trkpt lat="45.19312" lon="3.70217">
        <ele>967.7</ele>
        <time>2025-02-23T13:27:27Z</time>
      </trkpt>
      <trkpt lat="45.19316" lon="3.70241">
        <ele>970.11</ele>
        <time>2025-02-23T13:27:42Z</time>
      </trkpt>
      <trkpt lat="45.19323" lon="3.70265">
        <ele>970.59</ele>
        <time>2025-02-23T13:27:57Z</time>
      </trkpt>
      <trkpt lat="45.19333" lon="3.70292">
        <ele>971.55</ele>
        <time>2025-02-23T13:28:14Z</time>
      </trkpt>
      <trkpt lat="45.19343" lon="3.70322">
        <ele>973.47</ele>
        <time>2025-02-23T13:28:31Z</time>
      </trkpt>
      <trkpt lat="45.19355" lon="3.70349">
        <ele>977.8</ele>
        <time>2025-02-23T13:28:47Z</time>
      </trkpt>
      <trkpt lat="45.19367" lon="3.70373">
        <ele>979.72</ele>
        <time>2025-02-23T13:29:02Z</time>
      </trkpt>
      <trkpt lat="45.19379" lon="3.70399">
        <ele>979.72</ele>
        <time>2025-02-23T13:29:18Z</time>
      </trkpt>
      <trkpt lat="45.19393" lon="3.70427">
        <ele>980.68</ele>
        <time>2025-02-23T13:29:36Z</time>
      </trkpt>
      <trkpt lat="45.19406" lon="3.70449">
        <ele>980.2</ele>
        <time>2025-02-23T13:29:51Z</time>
      </trkpt>
      <trkpt lat="45.19416" lon="3.7047">
        <ele>980.2</ele>
        <time>2025-02-23T13:30:05Z</time>
      </trkpt>
      <trkpt lat="45.19434" lon="3.7049">
        <ele>979.72</ele>
        <time>2025-02-23T13:30:21Z</time>
      </trkpt>
      <trkpt lat="45.19449" lon="3.70512">
        <ele>980.2</ele>
        <time>2025-02-23T13:30:38Z</time>
      </trkpt>
      <trkpt lat="45.19461" lon="3.70537">
        <ele>982.6</ele>
        <time>2025-02-23T13:30:54Z</time>
      </trkpt>
      <trkpt lat="45.19472" lon="3.70554">
        <ele>984.53</ele>
        <time>2025-02-23T13:31:07Z</time>
      </trkpt>
      <trkpt lat="45.19485" lon="3.70574">
        <ele>986.93</ele>
        <time>2025-02-23T13:31:21Z</time>
      </trkpt>
      <trkpt lat="45.19492" lon="3.70588">
        <ele>987.89</ele>
        <time>2025-02-23T13:31:32Z</time>
      </trkpt>
      <trkpt lat="45.19499" lon="3.70603">
        <ele>991.74</ele>
        <time>2025-02-23T13:31:44Z</time>
      </trkpt>
      <trkpt lat="45.19512" lon="3.70617">
        <ele>993.18</ele>
        <time>2025-02-23T13:31:57Z</time>
      </trkpt>
      <trkpt lat="45.19529" lon="3.70629">
        <ele>994.14</ele>
        <time>2025-02-23T13:32:11Z</time>
      </trkpt>
      <trkpt lat="45.19545" lon="3.70637">
        <ele>991.26</ele>
        <time>2025-02-23T13:32:25Z</time>
      </trkpt>
      <trkpt lat="45.19547" lon="3.70637">
        <ele>990.78</ele>
        <time>2025-02-23T13:32:26Z</time>
      </trkpt>
      <trkpt lat="45.19555" lon="3.70641">
        <ele>989.81</ele>
        <time>2025-02-23T13:32:33Z</time>
      </trkpt>
      <trkpt lat="45.19577" lon="3.7065">
        <ele>988.37</ele>
        <time>2025-02-23T13:32:49Z</time>
      </trkpt>
      <trkpt lat="45.19592" lon="3.70664">
        <ele>987.89</ele>
        <time>2025-02-23T13:33:04Z</time>
      </trkpt>
      <trkpt lat="45.19611" lon="3.70685">
        <ele>989.81</ele>
        <time>2025-02-23T13:33:21Z</time>
      </trkpt>
      <trkpt lat="45.19629" lon="3.70704">
        <ele>992.22</ele>
        <time>2025-02-23T13:33:38Z</time>
      </trkpt>
      <trkpt lat="45.19642" lon="3.70722">
        <ele>993.66</ele>
        <time>2025-02-23T13:33:53Z</time>
      </trkpt>
      <trkpt lat="45.1965" lon="3.70734">
        <ele>994.62</ele>
        <time>2025-02-23T13:34:07Z</time>
      </trkpt>
      <trkpt lat="45.19661" lon="3.70748">
        <ele>995.1</ele>
        <time>2025-02-23T13:34:26Z</time>
      </trkpt>
      <trkpt lat="45.19675" lon="3.70759">
        <ele>992.7</ele>
        <time>2025-02-23T13:34:39Z</time>
      </trkpt>
      <trkpt lat="45.1968" lon="3.70761">
        <ele>991.74</ele>
        <time>2025-02-23T13:34:44Z</time>
      </trkpt>
      <trkpt lat="45.19681" lon="3.70762">
        <ele>991.74</ele>
        <time>2025-02-23T13:34:45Z</time>
      </trkpt>
      <trkpt lat="45.19682" lon="3.70763">
        <ele>991.26</ele>
        <time>2025-02-23T13:34:46Z</time>
      </trkpt>
      <trkpt lat="45.197" lon="3.70784">
        <ele>994.62</ele>
        <time>2025-02-23T13:35:03Z</time>
      </trkpt>
      <trkpt lat="45.19716" lon="3.70797">
        <ele>998.47</ele>
        <time>2025-02-23T13:35:18Z</time>
      </trkpt>
      <trkpt lat="45.19731" lon="3.70817">
        <ele>1000.39</ele>
        <time>2025-02-23T13:35:34Z</time>
      </trkpt>
      <trkpt lat="45.19743" lon="3.70835">
        <ele>1000.87</ele>
        <time>2025-02-23T13:35:48Z</time>
      </trkpt>
      <trkpt lat="45.19754" lon="3.70854">
        <ele>1003.75</ele>
        <time>2025-02-23T13:36:02Z</time>
      </trkpt>
      <trkpt lat="45.19763" lon="3.70866">
        <ele>1004.72</ele>
        <time>2025-02-23T13:36:12Z</time>
      </trkpt>
      <trkpt lat="45.19765" lon="3.70874">
        <ele>1008.08</ele>
        <time>2025-02-23T13:36:29Z</time>
      </trkpt>
      <trkpt lat="45.19768" lon="3.70879">
        <ele>1010.96</ele>
        <time>2025-02-23T13:36:57Z</time>
      </trkpt>
      <trkpt lat="45.19785" lon="3.70907">
        <ele>1014.81</ele>
        <time>2025-02-23T13:37:16Z</time>
      </trkpt>
      <trkpt lat="45.19803" lon="3.7093">
        <ele>1016.25</ele>
        <time>2025-02-23T13:37:33Z</time>
      </trkpt>
      <trkpt lat="45.19815" lon="3.70945">
        <ele>1018.17</ele>
        <time>2025-02-23T13:37:47Z</time>
      </trkpt>
      <trkpt lat="45.19827" lon="3.70959">
        <ele>1019.13</ele>
        <time>2025-02-23T13:38:00Z</time>
      </trkpt>
      <trkpt lat="45.19839" lon="3.70975">
        <ele>1020.1</ele>
        <time>2025-02-23T13:38:14Z</time>
      </trkpt>
      <trkpt lat="45.1984" lon="3.70985">
        <ele>1019.62</ele>
        <time>2025-02-23T13:38:21Z</time>
      </trkpt>
      <trkpt lat="45.19844" lon="3.70995">
        <ele>1019.13</ele>
        <time>2025-02-23T13:38:28Z</time>
      </trkpt>
      <trkpt lat="45.19846" lon="3.70997">
        <ele>1018.65</ele>
        <time>2025-02-23T13:38:29Z</time>
      </trkpt>
      <trkpt lat="45.19847" lon="3.70998">
        <ele>1018.65</ele>
        <time>2025-02-23T13:38:30Z</time>
      </trkpt>
      <trkpt lat="45.1986" lon="3.71015">
        <ele>1023.94</ele>
        <time>2025-02-23T13:38:42Z</time>
      </trkpt>
      <trkpt lat="45.19861" lon="3.71015">
        <ele>1023.46</ele>
        <time>2025-02-23T13:38:43Z</time>
      </trkpt>
      <trkpt lat="45.19863" lon="3.71016">
        <ele>1023.46</ele>
        <time>2025-02-23T13:38:44Z</time>
      </trkpt>
      <trkpt lat="45.19881" lon="3.71021">
        <ele>1018.65</ele>
        <time>2025-02-23T13:39:02Z</time>
      </trkpt>
      <trkpt lat="45.19884" lon="3.71035">
        <ele>1018.65</ele>
        <time>2025-02-23T13:39:12Z</time>
      </trkpt>
      <trkpt lat="45.19887" lon="3.71038">
        <ele>1020.58</ele>
        <time>2025-02-23T13:39:26Z</time>
      </trkpt>
      <trkpt lat="45.19893" lon="3.71048">
        <ele>1023.46</ele>
        <time>2025-02-23T13:39:40Z</time>
      </trkpt>
      <trkpt lat="45.19902" lon="3.71067">
        <ele>1027.31</ele>
        <time>2025-02-23T13:39:54Z</time>
      </trkpt>
      <trkpt lat="45.19914" lon="3.71081">
        <ele>1028.27</ele>
        <time>2025-02-23T13:40:09Z</time>
      </trkpt>
      <trkpt lat="45.19929" lon="3.71091">
        <ele>1029.71</ele>
        <time>2025-02-23T13:40:25Z</time>
      </trkpt>
      <trkpt lat="45.19949" lon="3.71103">
        <ele>1032.59</ele>
        <time>2025-02-23T13:40:45Z</time>
      </trkpt>
      <trkpt lat="45.19967" lon="3.71111">
        <ele>1034.04</ele>
        <time>2025-02-23T13:41:04Z</time>
      </trkpt>
      <trkpt lat="45.19975" lon="3.71117">
        <ele>1037.4</ele>
        <time>2025-02-23T13:41:18Z</time>
      </trkpt>
      <trkpt lat="45.1998" lon="3.71128">
        <ele>1042.21</ele>
        <time>2025-02-23T13:41:43Z</time>
      </trkpt>
      <trkpt lat="45.19985" lon="3.71138">
        <ele>1041.25</ele>
        <time>2025-02-23T13:42:00Z</time>
      </trkpt>
      <trkpt lat="45.19992" lon="3.71139">
        <ele>1036.92</ele>
        <time>2025-02-23T13:42:34Z</time>
      </trkpt>
      <trkpt lat="45.2" lon="3.71146">
        <ele>1038.84</ele>
        <time>2025-02-23T13:42:46Z</time>
      </trkpt>
      <trkpt lat="45.20005" lon="3.71147">
        <ele>1041.73</ele>
        <time>2025-02-23T13:43:01Z</time>
      </trkpt>
      <trkpt lat="45.20006" lon="3.71146">
        <ele>1043.65</ele>
        <time>2025-02-23T13:43:17Z</time>
      </trkpt>
      <trkpt lat="45.20004" lon="3.7115">
        <ele>1043.65</ele>
        <time>2025-02-23T13:43:29Z</time>
      </trkpt>
      <trkpt lat="45.20005" lon="3.71155">
        <ele>1045.57</ele>
        <time>2025-02-23T13:43:52Z</time>
      </trkpt>
      <trkpt lat="45.20008" lon="3.71164">
        <ele>1045.57</ele>
        <time>2025-02-23T13:44:09Z</time>
      </trkpt>
      <trkpt lat="45.20003" lon="3.71182">
        <ele>1046.53</ele>
        <time>2025-02-23T13:44:25Z</time>
      </trkpt>
      <trkpt lat="45.19999" lon="3.71202">
        <ele>1050.38</ele>
        <time>2025-02-23T13:44:38Z</time>
      </trkpt>
      <trkpt lat="45.2" lon="3.71223">
        <ele>1048.94</ele>
        <time>2025-02-23T13:44:52Z</time>
      </trkpt>
      <trkpt lat="45.20001" lon="3.71225">
        <ele>1048.45</ele>
        <time>2025-02-23T13:44:54Z</time>
      </trkpt>
      <trkpt lat="45.20002" lon="3.71227">
        <ele>1047.97</ele>
        <time>2025-02-23T13:44:55Z</time>
      </trkpt>
      <trkpt lat="45.20005" lon="3.71233">
        <ele>1047.49</ele>
        <time>2025-02-23T13:45:00Z</time>
      </trkpt>
      <trkpt lat="45.20006" lon="3.71234">
        <ele>1047.49</ele>
        <time>2025-02-23T13:45:01Z</time>
      </trkpt>
      <trkpt lat="45.20014" lon="3.71241">
        <ele>1047.01</ele>
        <time>2025-02-23T13:45:10Z</time>
      </trkpt>
      <trkpt lat="45.20024" lon="3.71254">
        <ele>1043.65</ele>
        <time>2025-02-23T13:45:23Z</time>
      </trkpt>
      <trkpt lat="45.20025" lon="3.71255">
        <ele>1042.69</ele>
        <time>2025-02-23T13:45:24Z</time>
      </trkpt>
      <trkpt lat="45.20026" lon="3.71256">
        <ele>1042.69</ele>
        <time>2025-02-23T13:45:25Z</time>
      </trkpt>
      <trkpt lat="45.20027" lon="3.71257">
        <ele>1042.21</ele>
        <time>2025-02-23T13:45:26Z</time>
      </trkpt>
      <trkpt lat="45.20037" lon="3.71266">
        <ele>1039.32</ele>
        <time>2025-02-23T13:45:37Z</time>
      </trkpt>
      <trkpt lat="45.20038" lon="3.71267">
        <ele>1039.32</ele>
        <time>2025-02-23T13:45:38Z</time>
      </trkpt>
      <trkpt lat="45.20039" lon="3.71269">
        <ele>1039.32</ele>
        <time>2025-02-23T13:45:39Z</time>
      </trkpt>
      <trkpt lat="45.20037" lon="3.71279">
        <ele>1037.88</ele>
        <time>2025-02-23T13:45:45Z</time>
      </trkpt>
      <trkpt lat="45.2003" lon="3.71281">
        <ele>1037.4</ele>
        <time>2025-02-23T13:45:51Z</time>
      </trkpt>
      <trkpt lat="45.20017" lon="3.71275">
        <ele>1035.96</ele>
        <time>2025-02-23T13:46:03Z</time>
      </trkpt>
      <trkpt lat="45.20006" lon="3.71275">
        <ele>1034.04</ele>
        <time>2025-02-23T13:46:16Z</time>
      </trkpt>
      <trkpt lat="45.20006" lon="3.71281">
        <ele>1033.07</ele>
        <time>2025-02-23T13:46:22Z</time>
      </trkpt>
      <trkpt lat="45.20005" lon="3.71283">
        <ele>1033.07</ele>
        <time>2025-02-23T13:46:24Z</time>
      </trkpt>
      <trkpt lat="45.20005" lon="3.71302">
        <ele>1031.63</ele>
        <time>2025-02-23T13:46:35Z</time>
      </trkpt>
      <trkpt lat="45.2001" lon="3.71317">
        <ele>1032.11</ele>
        <time>2025-02-23T13:46:46Z</time>
      </trkpt>
      <trkpt lat="45.20016" lon="3.71332">
        <ele>1032.59</ele>
        <time>2025-02-23T13:46:56Z</time>
      </trkpt>
      <trkpt lat="45.20017" lon="3.71334">
        <ele>1032.59</ele>
        <time>2025-02-23T13:46:57Z</time>
      </trkpt>
      <trkpt lat="45.20025" lon="3.7135">
        <ele>1030.19</ele>
        <time>2025-02-23T13:47:09Z</time>
      </trkpt>
      <trkpt lat="45.20025" lon="3.71352">
        <ele>1029.71</ele>
        <time>2025-02-23T13:47:10Z</time>
      </trkpt>
      <trkpt lat="45.20026" lon="3.71354">
        <ele>1029.23</ele>
        <time>2025-02-23T13:47:11Z</time>
      </trkpt>
      <trkpt lat="45.20027" lon="3.71355">
        <ele>1028.75</ele>
        <time>2025-02-23T13:47:12Z</time>
      </trkpt>
      <trkpt lat="45.20028" lon="3.71357">
        <ele>1028.75</ele>
        <time>2025-02-23T13:47:13Z</time>
      </trkpt>
      <trkpt lat="45.20029" lon="3.71358">
        <ele>1028.27</ele>
        <time>2025-02-23T13:47:14Z</time>
      </trkpt>
      <trkpt lat="45.20031" lon="3.71361">
        <ele>1027.31</ele>
        <time>2025-02-23T13:47:16Z</time>
      </trkpt>
      <trkpt lat="45.20037" lon="3.71378">
        <ele>1022.5</ele>
        <time>2025-02-23T13:47:28Z</time>
      </trkpt>
      <trkpt lat="45.20038" lon="3.71381">
        <ele>1022.5</ele>
        <time>2025-02-23T13:47:30Z</time>
      </trkpt>
      <trkpt lat="45.20039" lon="3.71383">
        <ele>1022.02</ele>
        <time>2025-02-23T13:47:31Z</time>
      </trkpt>
      <trkpt lat="45.20039" lon="3.71384">
        <ele>1022.02</ele>
        <time>2025-02-23T13:47:32Z</time>
      </trkpt>
      <trkpt lat="45.2004" lon="3.71386">
        <ele>1022.02</ele>
        <time>2025-02-23T13:47:33Z</time>
      </trkpt>
      <trkpt lat="45.2004" lon="3.71388">
        <ele>1022.02</ele>
        <time>2025-02-23T13:47:34Z</time>
      </trkpt>
      <trkpt lat="45.20043" lon="3.71392">
        <ele>1022.98</ele>
        <time>2025-02-23T13:47:45Z</time>
      </trkpt>
      <trkpt lat="45.20047" lon="3.71386">
        <ele>1028.27</ele>
        <time>2025-02-23T13:48:04Z</time>
      </trkpt>
      <trkpt lat="45.2004" lon="3.7139">
        <ele>1025.86</ele>
        <time>2025-02-23T13:48:13Z</time>
      </trkpt>
      <trkpt lat="45.20038" lon="3.71391">
        <ele>1024.9</ele>
        <time>2025-02-23T13:48:15Z</time>
      </trkpt>
      <trkpt lat="45.20037" lon="3.71393">
        <ele>1024.9</ele>
        <time>2025-02-23T13:48:16Z</time>
      </trkpt>
      <trkpt lat="45.20031" lon="3.71407">
        <ele>1021.06</ele>
        <time>2025-02-23T13:48:27Z</time>
      </trkpt>
      <trkpt lat="45.20025" lon="3.71426">
        <ele>1017.69</ele>
        <time>2025-02-23T13:48:40Z</time>
      </trkpt>
      <trkpt lat="45.20021" lon="3.71439">
        <ele>1015.77</ele>
        <time>2025-02-23T13:48:49Z</time>
      </trkpt>
      <trkpt lat="45.2002" lon="3.7144">
        <ele>1015.77</ele>
        <time>2025-02-23T13:48:50Z</time>
      </trkpt>
      <trkpt lat="45.20019" lon="3.71441">
        <ele>1015.77</ele>
        <time>2025-02-23T13:48:51Z</time>
      </trkpt>
      <trkpt lat="45.20018" lon="3.71442">
        <ele>1015.77</ele>
        <time>2025-02-23T13:48:52Z</time>
      </trkpt>
      <trkpt lat="45.20015" lon="3.71441">
        <ele>1015.29</ele>
        <time>2025-02-23T13:48:56Z</time>
      </trkpt>
      <trkpt lat="45.20008" lon="3.71438">
        <ele>1014.33</ele>
        <time>2025-02-23T13:49:03Z</time>
      </trkpt>
      <trkpt lat="45.20007" lon="3.7144">
        <ele>1014.33</ele>
        <time>2025-02-23T13:49:04Z</time>
      </trkpt>
      <trkpt lat="45.20008" lon="3.71443">
        <ele>1015.77</ele>
        <time>2025-02-23T13:49:12Z</time>
      </trkpt>
      <trkpt lat="45.20014" lon="3.71444">
        <ele>1015.77</ele>
        <time>2025-02-23T13:49:17Z</time>
      </trkpt>
      <trkpt lat="45.20015" lon="3.71445">
        <ele>1015.29</ele>
        <time>2025-02-23T13:49:18Z</time>
      </trkpt>
      <trkpt lat="45.20017" lon="3.71447">
        <ele>1015.29</ele>
        <time>2025-02-23T13:49:19Z</time>
      </trkpt>
      <trkpt lat="45.20029" lon="3.71457">
        <ele>1013.37</ele>
        <time>2025-02-23T13:49:30Z</time>
      </trkpt>
      <trkpt lat="45.2003" lon="3.71458">
        <ele>1013.37</ele>
        <time>2025-02-23T13:49:31Z</time>
      </trkpt>
      <trkpt lat="45.20031" lon="3.71458">
        <ele>1013.37</ele>
        <time>2025-02-23T13:49:32Z</time>
      </trkpt>
      <trkpt lat="45.20033" lon="3.71464">
        <ele>1012.89</ele>
        <time>2025-02-23T13:49:36Z</time>
      </trkpt>
      <trkpt lat="45.20037" lon="3.71483">
        <ele>1012.89</ele>
        <time>2025-02-23T13:49:49Z</time>
      </trkpt>
      <trkpt lat="45.20037" lon="3.71503">
        <ele>1018.17</ele>
        <time>2025-02-23T13:50:00Z</time>
      </trkpt>
      <trkpt lat="45.20038" lon="3.7152">
        <ele>1020.58</ele>
        <time>2025-02-23T13:50:12Z</time>
      </trkpt>
      <trkpt lat="45.20037" lon="3.71548">
        <ele>1020.1</ele>
        <time>2025-02-23T13:50:27Z</time>
      </trkpt>
      <trkpt lat="45.20032" lon="3.71553">
        <ele>1021.06</ele>
        <time>2025-02-23T13:50:38Z</time>
      </trkpt>
      <trkpt lat="45.20026" lon="3.71557">
        <ele>1020.58</ele>
        <time>2025-02-23T13:50:59Z</time>
      </trkpt>
      <trkpt lat="45.2002" lon="3.71558">
        <ele>1020.58</ele>
        <time>2025-02-23T13:51:10Z</time>
      </trkpt>
      <trkpt lat="45.20019" lon="3.71556">
        <ele>1020.1</ele>
        <time>2025-02-23T13:51:16Z</time>
      </trkpt>
      <trkpt lat="45.2001" lon="3.71558">
        <ele>1019.62</ele>
        <time>2025-02-23T13:51:27Z</time>
      </trkpt>
      <trkpt lat="45.19993" lon="3.71559">
        <ele>1018.65</ele>
        <time>2025-02-23T13:51:39Z</time>
      </trkpt>
      <trkpt lat="45.1998" lon="3.71558">
        <ele>1016.25</ele>
        <time>2025-02-23T13:51:50Z</time>
      </trkpt>
      <trkpt lat="45.19968" lon="3.71561">
        <ele>1014.33</ele>
        <time>2025-02-23T13:52:02Z</time>
      </trkpt>
      <trkpt lat="45.19964" lon="3.71561">
        <ele>1012.89</ele>
        <time>2025-02-23T13:52:24Z</time>
      </trkpt>
      <trkpt lat="45.19963" lon="3.71562">
        <ele>1012.41</ele>
        <time>2025-02-23T13:52:25Z</time>
      </trkpt>
      <trkpt lat="45.19948" lon="3.7157">
        <ele>1012.89</ele>
        <time>2025-02-23T13:52:37Z</time>
      </trkpt>
      <trkpt lat="45.19935" lon="3.71578">
        <ele>1012.89</ele>
        <time>2025-02-23T13:52:49Z</time>
      </trkpt>
      <trkpt lat="45.19926" lon="3.71578">
        <ele>1013.37</ele>
        <time>2025-02-23T13:52:57Z</time>
      </trkpt>
      <trkpt lat="45.19925" lon="3.71578">
        <ele>1012.89</ele>
        <time>2025-02-23T13:52:58Z</time>
      </trkpt>
      <trkpt lat="45.19924" lon="3.71579">
        <ele>1012.89</ele>
        <time>2025-02-23T13:52:59Z</time>
      </trkpt>
      <trkpt lat="45.19922" lon="3.7158">
        <ele>1012.89</ele>
        <time>2025-02-23T13:53:00Z</time>
      </trkpt>
      <trkpt lat="45.19921" lon="3.71581">
        <ele>1012.41</ele>
        <time>2025-02-23T13:53:01Z</time>
      </trkpt>
      <trkpt lat="45.19907" lon="3.71585">
        <ele>1012.41</ele>
        <time>2025-02-23T13:53:13Z</time>
      </trkpt>
      <trkpt lat="45.19906" lon="3.71585">
        <ele>1012.41</ele>
        <time>2025-02-23T13:53:14Z</time>
      </trkpt>
      <trkpt lat="45.19894" lon="3.71595">
        <ele>1012.41</ele>
        <time>2025-02-23T13:53:26Z</time>
      </trkpt>
      <trkpt lat="45.19893" lon="3.71598">
        <ele>1012.41</ele>
        <time>2025-02-23T13:53:28Z</time>
      </trkpt>
      <trkpt lat="45.1989" lon="3.71602">
        <ele>1015.29</ele>
        <time>2025-02-23T13:53:45Z</time>
      </trkpt>
      <trkpt lat="45.19886" lon="3.71604">
        <ele>1016.25</ele>
        <time>2025-02-23T13:53:57Z</time>
      </trkpt>
      <trkpt lat="45.19885" lon="3.7161">
        <ele>1017.69</ele>
        <time>2025-02-23T13:54:27Z</time>
      </trkpt>
      <trkpt lat="45.1988" lon="3.71618">
        <ele>1017.21</ele>
        <time>2025-02-23T13:54:37Z</time>
      </trkpt>
      <trkpt lat="45.19875" lon="3.71627">
        <ele>1018.17</ele>
        <time>2025-02-23T13:54:49Z</time>
      </trkpt>
      <trkpt lat="45.19869" lon="3.71639">
        <ele>1018.17</ele>
        <time>2025-02-23T13:55:03Z</time>
      </trkpt>
      <trkpt lat="45.19861" lon="3.71653">
        <ele>1021.06</ele>
        <time>2025-02-23T13:55:16Z</time>
      </trkpt>
      <trkpt lat="45.19852" lon="3.71666">
        <ele>1022.5</ele>
        <time>2025-02-23T13:55:30Z</time>
      </trkpt>
      <trkpt lat="45.19843" lon="3.7168">
        <ele>1025.38</ele>
        <time>2025-02-23T13:55:43Z</time>
      </trkpt>
      <trkpt lat="45.19836" lon="3.71695">
        <ele>1028.75</ele>
        <time>2025-02-23T13:55:57Z</time>
      </trkpt>
      <trkpt lat="45.1983" lon="3.7171">
        <ele>1031.63</ele>
        <time>2025-02-23T13:56:10Z</time>
      </trkpt>
      <trkpt lat="45.19821" lon="3.71724">
        <ele>1035</ele>
        <time>2025-02-23T13:56:25Z</time>
      </trkpt>
      <trkpt lat="45.19813" lon="3.71735">
        <ele>1036.92</ele>
        <time>2025-02-23T13:56:36Z</time>
      </trkpt>
      <trkpt lat="45.19799" lon="3.71749">
        <ele>1039.8</ele>
        <time>2025-02-23T13:56:50Z</time>
      </trkpt>
      <trkpt lat="45.19794" lon="3.71755">
        <ele>1039.8</ele>
        <time>2025-02-23T13:56:55Z</time>
      </trkpt>
      <trkpt lat="45.19789" lon="3.71759">
        <ele>1038.84</ele>
        <time>2025-02-23T13:57:00Z</time>
      </trkpt>
      <trkpt lat="45.19788" lon="3.7176">
        <ele>1038.84</ele>
        <time>2025-02-23T13:57:01Z</time>
      </trkpt>
      <trkpt lat="45.19779" lon="3.71776">
        <ele>1037.4</ele>
        <time>2025-02-23T13:57:15Z</time>
      </trkpt>
      <trkpt lat="45.19762" lon="3.71786">
        <ele>1037.4</ele>
        <time>2025-02-23T13:57:32Z</time>
      </trkpt>
      <trkpt lat="45.19752" lon="3.71787">
        <ele>1036.92</ele>
        <time>2025-02-23T13:57:41Z</time>
      </trkpt>
      <trkpt lat="45.19735" lon="3.71782">
        <ele>1036.92</ele>
        <time>2025-02-23T13:57:58Z</time>
      </trkpt>
      <trkpt lat="45.19713" lon="3.7179">
        <ele>1037.4</ele>
        <time>2025-02-23T13:58:19Z</time>
      </trkpt>
      <trkpt lat="45.19687" lon="3.718">
        <ele>1038.36</ele>
        <time>2025-02-23T13:58:41Z</time>
      </trkpt>
      <trkpt lat="45.19662" lon="3.71813">
        <ele>1038.84</ele>
        <time>2025-02-23T13:59:03Z</time>
      </trkpt>
      <trkpt lat="45.19638" lon="3.71835">
        <ele>1036.92</ele>
        <time>2025-02-23T13:59:24Z</time>
      </trkpt>
      <trkpt lat="45.19616" lon="3.71845">
        <ele>1037.4</ele>
        <time>2025-02-23T13:59:46Z</time>
      </trkpt>
      <trkpt lat="45.19602" lon="3.7185">
        <ele>1038.84</ele>
        <time>2025-02-23T14:00:02Z</time>
      </trkpt>
      <trkpt lat="45.19594" lon="3.71851">
        <ele>1040.28</ele>
        <time>2025-02-23T14:00:20Z</time>
      </trkpt>
      <trkpt lat="45.19588" lon="3.71857">
        <ele>1041.73</ele>
        <time>2025-02-23T14:00:30Z</time>
      </trkpt>
      <trkpt lat="45.19586" lon="3.71858">
        <ele>1041.73</ele>
        <time>2025-02-23T14:00:31Z</time>
      </trkpt>
      <trkpt lat="45.19585" lon="3.71858">
        <ele>1041.73</ele>
        <time>2025-02-23T14:00:32Z</time>
      </trkpt>
      <trkpt lat="45.19558" lon="3.71869">
        <ele>1043.65</ele>
        <time>2025-02-23T14:00:52Z</time>
      </trkpt>
      <trkpt lat="45.19535" lon="3.71876">
        <ele>1043.65</ele>
        <time>2025-02-23T14:01:11Z</time>
      </trkpt>
      <trkpt lat="45.19514" lon="3.71885">
        <ele>1041.25</ele>
        <time>2025-02-23T14:01:28Z</time>
      </trkpt>
      <trkpt lat="45.19488" lon="3.71896">
        <ele>1038.84</ele>
        <time>2025-02-23T14:01:47Z</time>
      </trkpt>
      <trkpt lat="45.19465" lon="3.71907">
        <ele>1034.52</ele>
        <time>2025-02-23T14:02:07Z</time>
      </trkpt>
      <trkpt lat="45.19447" lon="3.71916">
        <ele>1032.11</ele>
        <time>2025-02-23T14:02:23Z</time>
      </trkpt>
      <trkpt lat="45.19441" lon="3.71921">
        <ele>1030.67</ele>
        <time>2025-02-23T14:02:29Z</time>
      </trkpt>
      <trkpt lat="45.1944" lon="3.71922">
        <ele>1030.19</ele>
        <time>2025-02-23T14:02:30Z</time>
      </trkpt>
      <trkpt lat="45.19438" lon="3.71923">
        <ele>1030.19</ele>
        <time>2025-02-23T14:02:31Z</time>
      </trkpt>
      <trkpt lat="45.19418" lon="3.71948">
        <ele>1028.75</ele>
        <time>2025-02-23T14:02:51Z</time>
      </trkpt>
      <trkpt lat="45.194" lon="3.71975">
        <ele>1030.19</ele>
        <time>2025-02-23T14:03:11Z</time>
      </trkpt>
      <trkpt lat="45.19384" lon="3.72004">
        <ele>1029.71</ele>
        <time>2025-02-23T14:03:31Z</time>
      </trkpt>
      <trkpt lat="45.19372" lon="3.72026">
        <ele>1031.63</ele>
        <time>2025-02-23T14:03:49Z</time>
      </trkpt>
      <trkpt lat="45.19361" lon="3.72048">
        <ele>1032.59</ele>
        <time>2025-02-23T14:04:05Z</time>
      </trkpt>
      <trkpt lat="45.1936" lon="3.7205">
        <ele>1032.59</ele>
        <time>2025-02-23T14:04:06Z</time>
      </trkpt>
      <trkpt lat="45.19359" lon="3.72053">
        <ele>1033.07</ele>
        <time>2025-02-23T14:04:07Z</time>
      </trkpt>
      <trkpt lat="45.19346" lon="3.72072">
        <ele>1034.04</ele>
        <time>2025-02-23T14:04:20Z</time>
      </trkpt>
      <trkpt lat="45.19335" lon="3.72091">
        <ele>1036.92</ele>
        <time>2025-02-23T14:04:33Z</time>
      </trkpt>
      <trkpt lat="45.19331" lon="3.72097">
        <ele>1037.4</ele>
        <time>2025-02-23T14:04:37Z</time>
      </trkpt>
      <trkpt lat="45.1933" lon="3.72101">
        <ele>1037.88</ele>
        <time>2025-02-23T14:04:40Z</time>
      </trkpt>
      <trkpt lat="45.19329" lon="3.72106">
        <ele>1038.84</ele>
        <time>2025-02-23T14:04:52Z</time>
      </trkpt>
      <trkpt lat="45.19328" lon="3.72108">
        <ele>1038.84</ele>
        <time>2025-02-23T14:04:54Z</time>
      </trkpt>
      <trkpt lat="45.19328" lon="3.7211">
        <ele>1038.84</ele>
        <time>2025-02-23T14:04:55Z</time>
      </trkpt>
      <trkpt lat="45.19326" lon="3.72112">
        <ele>1038.84</ele>
        <time>2025-02-23T14:04:56Z</time>
      </trkpt>
      <trkpt lat="45.19317" lon="3.7213">
        <ele>1039.32</ele>
        <time>2025-02-23T14:05:09Z</time>
      </trkpt>
      <trkpt lat="45.1931" lon="3.72151">
        <ele>1041.25</ele>
        <time>2025-02-23T14:05:21Z</time>
      </trkpt>
      <trkpt lat="45.19305" lon="3.72165">
        <ele>1042.21</ele>
        <time>2025-02-23T14:05:32Z</time>
      </trkpt>
      <trkpt lat="45.19298" lon="3.72187">
        <ele>1043.17</ele>
        <time>2025-02-23T14:05:43Z</time>
      </trkpt>
      <trkpt lat="45.1929" lon="3.72204">
        <ele>1044.61</ele>
        <time>2025-02-23T14:05:55Z</time>
      </trkpt>
      <trkpt lat="45.19284" lon="3.72222">
        <ele>1046.53</ele>
        <time>2025-02-23T14:06:06Z</time>
      </trkpt>
      <trkpt lat="45.19279" lon="3.7224">
        <ele>1049.42</ele>
        <time>2025-02-23T14:06:18Z</time>
      </trkpt>
      <trkpt lat="45.19271" lon="3.7226">
        <ele>1052.3</ele>
        <time>2025-02-23T14:06:29Z</time>
      </trkpt>
      <trkpt lat="45.19265" lon="3.72281">
        <ele>1054.7</ele>
        <time>2025-02-23T14:06:42Z</time>
      </trkpt>
      <trkpt lat="45.19261" lon="3.72307">
        <ele>1056.15</ele>
        <time>2025-02-23T14:06:54Z</time>
      </trkpt>
      <trkpt lat="45.1926" lon="3.72325">
        <ele>1054.7</ele>
        <time>2025-02-23T14:07:06Z</time>
      </trkpt>
      <trkpt lat="45.19257" lon="3.72343">
        <ele>1055.18</ele>
        <time>2025-02-23T14:07:18Z</time>
      </trkpt>
      <trkpt lat="45.19255" lon="3.72349">
        <ele>1055.18</ele>
        <time>2025-02-23T14:07:22Z</time>
      </trkpt>
      <trkpt lat="45.19254" lon="3.7236">
        <ele>1056.15</ele>
        <time>2025-02-23T14:07:28Z</time>
      </trkpt>
      <trkpt lat="45.19254" lon="3.72362">
        <ele>1056.15</ele>
        <time>2025-02-23T14:07:29Z</time>
      </trkpt>
      <trkpt lat="45.19251" lon="3.72382">
        <ele>1059.51</ele>
        <time>2025-02-23T14:07:42Z</time>
      </trkpt>
      <trkpt lat="45.19246" lon="3.7241">
        <ele>1062.87</ele>
        <time>2025-02-23T14:07:57Z</time>
      </trkpt>
      <trkpt lat="45.19241" lon="3.72431">
        <ele>1065.28</ele>
        <time>2025-02-23T14:08:10Z</time>
      </trkpt>
      <trkpt lat="45.19236" lon="3.7247">
        <ele>1064.32</ele>
        <time>2025-02-23T14:08:25Z</time>
      </trkpt>
      <trkpt lat="45.19234" lon="3.72485">
        <ele>1064.8</ele>
        <time>2025-02-23T14:08:33Z</time>
      </trkpt>
      <trkpt lat="45.19232" lon="3.72519">
        <ele>1061.91</ele>
        <time>2025-02-23T14:08:53Z</time>
      </trkpt>
      <trkpt lat="45.1923" lon="3.72552">
        <ele>1057.11</ele>
        <time>2025-02-23T14:09:10Z</time>
      </trkpt>
      <trkpt lat="45.19228" lon="3.72578">
        <ele>1055.18</ele>
        <time>2025-02-23T14:09:24Z</time>
      </trkpt>
      <trkpt lat="45.19226" lon="3.726">
        <ele>1054.7</ele>
        <time>2025-02-23T14:09:35Z</time>
      </trkpt>
      <trkpt lat="45.19225" lon="3.72621">
        <ele>1054.7</ele>
        <time>2025-02-23T14:09:47Z</time>
      </trkpt>
      <trkpt lat="45.19225" lon="3.72626">
        <ele>1054.22</ele>
        <time>2025-02-23T14:09:50Z</time>
      </trkpt>
      <trkpt lat="45.19225" lon="3.72629">
        <ele>1054.22</ele>
        <time>2025-02-23T14:09:51Z</time>
      </trkpt>
      <trkpt lat="45.19223" lon="3.72651">
        <ele>1054.22</ele>
        <time>2025-02-23T14:10:04Z</time>
      </trkpt>
      <trkpt lat="45.19221" lon="3.72675">
        <ele>1056.15</ele>
        <time>2025-02-23T14:10:17Z</time>
      </trkpt>
      <trkpt lat="45.19223" lon="3.72699">
        <ele>1056.63</ele>
        <time>2025-02-23T14:10:36Z</time>
      </trkpt>
      <trkpt lat="45.19219" lon="3.72736">
        <ele>1058.07</ele>
        <time>2025-02-23T14:10:58Z</time>
      </trkpt>
      <trkpt lat="45.19218" lon="3.72765">
        <ele>1058.07</ele>
        <time>2025-02-23T14:11:19Z</time>
      </trkpt>
      <trkpt lat="45.19218" lon="3.72796">
        <ele>1056.63</ele>
        <time>2025-02-23T14:11:40Z</time>
      </trkpt>
      <trkpt lat="45.19208" lon="3.72842">
        <ele>1054.7</ele>
        <time>2025-02-23T14:12:03Z</time>
      </trkpt>
      <trkpt lat="45.19197" lon="3.72883">
        <ele>1049.9</ele>
        <time>2025-02-23T14:12:28Z</time>
      </trkpt>
      <trkpt lat="45.19193" lon="3.72893">
        <ele>1047.49</ele>
        <time>2025-02-23T14:12:48Z</time>
      </trkpt>
      <trkpt lat="45.19181" lon="3.72905">
        <ele>1042.21</ele>
        <time>2025-02-23T14:13:05Z</time>
      </trkpt>
      <trkpt lat="45.19179" lon="3.72923">
        <ele>1042.69</ele>
        <time>2025-02-23T14:13:19Z</time>
      </trkpt>
      <trkpt lat="45.19178" lon="3.72924">
        <ele>1042.69</ele>
        <time>2025-02-23T14:13:20Z</time>
      </trkpt>
      <trkpt lat="45.19177" lon="3.72926">
        <ele>1042.69</ele>
        <time>2025-02-23T14:13:21Z</time>
      </trkpt>
      <trkpt lat="45.19172" lon="3.7294">
        <ele>1042.69</ele>
        <time>2025-02-23T14:13:31Z</time>
      </trkpt>
      <trkpt lat="45.19164" lon="3.72959">
        <ele>1043.17</ele>
        <time>2025-02-23T14:13:43Z</time>
      </trkpt>
      <trkpt lat="45.19161" lon="3.72977">
        <ele>1042.69</ele>
        <time>2025-02-23T14:13:54Z</time>
      </trkpt>
      <trkpt lat="45.19156" lon="3.73">
        <ele>1041.25</ele>
        <time>2025-02-23T14:14:07Z</time>
      </trkpt>
      <trkpt lat="45.19153" lon="3.73038">
        <ele>1037.88</ele>
        <time>2025-02-23T14:14:28Z</time>
      </trkpt>
      <trkpt lat="45.19145" lon="3.73062">
        <ele>1033.55</ele>
        <time>2025-02-23T14:14:43Z</time>
      </trkpt>
      <trkpt lat="45.19135" lon="3.73081">
        <ele>1028.27</ele>
        <time>2025-02-23T14:14:59Z</time>
      </trkpt>
      <trkpt lat="45.19128" lon="3.7312">
        <ele>1024.9</ele>
        <time>2025-02-23T14:15:18Z</time>
      </trkpt>
      <trkpt lat="45.19129" lon="3.7313">
        <ele>1024.9</ele>
        <time>2025-02-23T14:15:22Z</time>
      </trkpt>
      <trkpt lat="45.19128" lon="3.73157">
        <ele>1021.54</ele>
        <time>2025-02-23T14:15:36Z</time>
      </trkpt>
      <trkpt lat="45.19125" lon="3.73179">
        <ele>1018.17</ele>
        <time>2025-02-23T14:15:49Z</time>
      </trkpt>
      <trkpt lat="45.19122" lon="3.73201">
        <ele>1017.69</ele>
        <time>2025-02-23T14:16:01Z</time>
      </trkpt>
      <trkpt lat="45.19115" lon="3.73222">
        <ele>1015.77</ele>
        <time>2025-02-23T14:16:15Z</time>
      </trkpt>
      <trkpt lat="45.19115" lon="3.73245">
        <ele>1012.89</ele>
        <time>2025-02-23T14:16:27Z</time>
      </trkpt>
      <trkpt lat="45.19116" lon="3.73273">
        <ele>1008.56</ele>
        <time>2025-02-23T14:16:42Z</time>
      </trkpt>
      <trkpt lat="45.19118" lon="3.73294">
        <ele>1006.16</ele>
        <time>2025-02-23T14:16:54Z</time>
      </trkpt>
      <trkpt lat="45.19122" lon="3.73311">
        <ele>1004.23</ele>
        <time>2025-02-23T14:17:04Z</time>
      </trkpt>
      <trkpt lat="45.19127" lon="3.7333">
        <ele>999.91</ele>
        <time>2025-02-23T14:17:18Z</time>
      </trkpt>
      <trkpt lat="45.19122" lon="3.73351">
        <ele>994.62</ele>
        <time>2025-02-23T14:17:35Z</time>
      </trkpt>
      <trkpt lat="45.19107" lon="3.73381">
        <ele>989.81</ele>
        <time>2025-02-23T14:17:58Z</time>
      </trkpt>
      <trkpt lat="45.19106" lon="3.73387">
        <ele>987.41</ele>
        <time>2025-02-23T14:18:24Z</time>
      </trkpt>
      <trkpt lat="45.19107" lon="3.7339">
        <ele>986.45</ele>
        <time>2025-02-23T14:18:57Z</time>
      </trkpt>
      <trkpt lat="45.19102" lon="3.73397">
        <ele>987.41</ele>
        <time>2025-02-23T14:19:28Z</time>
      </trkpt>
      <trkpt lat="45.19096" lon="3.73406">
        <ele>986.93</ele>
        <time>2025-02-23T14:19:53Z</time>
      </trkpt>
      <trkpt lat="45.19082" lon="3.7343">
        <ele>985.49</ele>
        <time>2025-02-23T14:20:12Z</time>
      </trkpt>
      <trkpt lat="45.19072" lon="3.73462">
        <ele>982.12</ele>
        <time>2025-02-23T14:20:31Z</time>
      </trkpt>
      <trkpt lat="45.19068" lon="3.73494">
        <ele>977.8</ele>
        <time>2025-02-23T14:20:52Z</time>
      </trkpt>
      <trkpt lat="45.19055" lon="3.73531">
        <ele>973.47</ele>
        <time>2025-02-23T14:21:15Z</time>
      </trkpt>
      <trkpt lat="45.19047" lon="3.73563">
        <ele>972.51</ele>
        <time>2025-02-23T14:21:36Z</time>
      </trkpt>
      <trkpt lat="45.19045" lon="3.73585">
        <ele>969.15</ele>
        <time>2025-02-23T14:21:57Z</time>
      </trkpt>
      <trkpt lat="45.19041" lon="3.73598">
        <ele>969.15</ele>
        <time>2025-02-23T14:22:31Z</time>
      </trkpt>
      <trkpt lat="45.19042" lon="3.73627">
        <ele>968.67</ele>
        <time>2025-02-23T14:22:49Z</time>
      </trkpt>
      <trkpt lat="45.19039" lon="3.73651">
        <ele>967.7</ele>
        <time>2025-02-23T14:23:06Z</time>
      </trkpt>
      <trkpt lat="45.19038" lon="3.73676">
        <ele>967.22</ele>
        <time>2025-02-23T14:23:22Z</time>
      </trkpt>
      <trkpt lat="45.19039" lon="3.73693">
        <ele>965.78</ele>
        <time>2025-02-23T14:23:33Z</time>
      </trkpt>
      <trkpt lat="45.19039" lon="3.73695">
        <ele>965.78</ele>
        <time>2025-02-23T14:23:34Z</time>
      </trkpt>
      <trkpt lat="45.19039" lon="3.73697">
        <ele>965.3</ele>
        <time>2025-02-23T14:23:35Z</time>
      </trkpt>
      <trkpt lat="45.19036" lon="3.73716">
        <ele>963.38</ele>
        <time>2025-02-23T14:23:51Z</time>
      </trkpt>
      <trkpt lat="45.19021" lon="3.73741">
        <ele>961.94</ele>
        <time>2025-02-23T14:24:14Z</time>
      </trkpt>
      <trkpt lat="45.1901" lon="3.73762">
        <ele>960.49</ele>
        <time>2025-02-23T14:24:30Z</time>
      </trkpt>
      <trkpt lat="45.18993" lon="3.7379">
        <ele>958.57</ele>
        <time>2025-02-23T14:24:50Z</time>
      </trkpt>
      <trkpt lat="45.18976" lon="3.73824">
        <ele>959.53</ele>
        <time>2025-02-23T14:25:13Z</time>
      </trkpt>
      <trkpt lat="45.18959" lon="3.73852">
        <ele>960.49</ele>
        <time>2025-02-23T14:25:36Z</time>
      </trkpt>
      <trkpt lat="45.18945" lon="3.73876">
        <ele>958.57</ele>
        <time>2025-02-23T14:25:56Z</time>
      </trkpt>
      <trkpt lat="45.1894" lon="3.73891">
        <ele>955.69</ele>
        <time>2025-02-23T14:26:13Z</time>
      </trkpt>
      <trkpt lat="45.18922" lon="3.73914">
        <ele>954.25</ele>
        <time>2025-02-23T14:26:32Z</time>
      </trkpt>
      <trkpt lat="45.18905" lon="3.73944">
        <ele>953.28</ele>
        <time>2025-02-23T14:26:52Z</time>
      </trkpt>
      <trkpt lat="45.18897" lon="3.73975">
        <ele>955.21</ele>
        <time>2025-02-23T14:27:10Z</time>
      </trkpt>
      <trkpt lat="45.18897" lon="3.74">
        <ele>957.61</ele>
        <time>2025-02-23T14:27:23Z</time>
      </trkpt>
      <trkpt lat="45.18896" lon="3.74035">
        <ele>959.53</ele>
        <time>2025-02-23T14:27:42Z</time>
      </trkpt>
      <trkpt lat="45.1889" lon="3.74058">
        <ele>960.01</ele>
        <time>2025-02-23T14:27:57Z</time>
      </trkpt>
      <trkpt lat="45.18878" lon="3.74089">
        <ele>962.9</ele>
        <time>2025-02-23T14:28:12Z</time>
      </trkpt>
      <trkpt lat="45.18865" lon="3.74104">
        <ele>964.82</ele>
        <time>2025-02-23T14:28:26Z</time>
      </trkpt>
      <trkpt lat="45.1885" lon="3.74128">
        <ele>967.7</ele>
        <time>2025-02-23T14:28:42Z</time>
      </trkpt>
      <trkpt lat="45.1883" lon="3.74153">
        <ele>967.22</ele>
        <time>2025-02-23T14:29:02Z</time>
      </trkpt>
      <trkpt lat="45.18818" lon="3.74168">
        <ele>966.74</ele>
        <time>2025-02-23T14:29:14Z</time>
      </trkpt>
      <trkpt lat="45.18806" lon="3.74187">
        <ele>965.78</ele>
        <time>2025-02-23T14:29:27Z</time>
      </trkpt>
      <trkpt lat="45.188" lon="3.74187">
        <ele>965.78</ele>
        <time>2025-02-23T14:29:34Z</time>
      </trkpt>
      <trkpt lat="45.18798" lon="3.74186">
        <ele>965.3</ele>
        <time>2025-02-23T14:29:35Z</time>
      </trkpt>
      <trkpt lat="45.18792" lon="3.74183">
        <ele>964.82</ele>
        <time>2025-02-23T14:29:53Z</time>
      </trkpt>
      <trkpt lat="45.18787" lon="3.74191">
        <ele>963.38</ele>
        <time>2025-02-23T14:30:10Z</time>
      </trkpt>
      <trkpt lat="45.18787" lon="3.74193">
        <ele>962.42</ele>
        <time>2025-02-23T14:30:28Z</time>
      </trkpt>
      <trkpt lat="45.18796" lon="3.74207">
        <ele>962.42</ele>
        <time>2025-02-23T14:30:49Z</time>
      </trkpt>
      <trkpt lat="45.18795" lon="3.74219">
        <ele>962.42</ele>
        <time>2025-02-23T14:30:54Z</time>
      </trkpt>
      <trkpt lat="45.18783" lon="3.74241">
        <ele>965.3</ele>
        <time>2025-02-23T14:31:08Z</time>
      </trkpt>
      <trkpt lat="45.18776" lon="3.74264">
        <ele>964.34</ele>
        <time>2025-02-23T14:31:20Z</time>
      </trkpt>
      <trkpt lat="45.18768" lon="3.74287">
        <ele>963.86</ele>
        <time>2025-02-23T14:31:35Z</time>
      </trkpt>
      <trkpt lat="45.18753" lon="3.74314">
        <ele>961.94</ele>
        <time>2025-02-23T14:31:53Z</time>
      </trkpt>
      <trkpt lat="45.18735" lon="3.74334">
        <ele>961.94</ele>
        <time>2025-02-23T14:32:09Z</time>
      </trkpt>
      <trkpt lat="45.18718" lon="3.74352">
        <ele>961.46</ele>
        <time>2025-02-23T14:32:24Z</time>
      </trkpt>
      <trkpt lat="45.18701" lon="3.74363">
        <ele>961.94</ele>
        <time>2025-02-23T14:32:37Z</time>
      </trkpt>
      <trkpt lat="45.18689" lon="3.74372">
        <ele>961.94</ele>
        <time>2025-02-23T14:32:48Z</time>
      </trkpt>
      <trkpt lat="45.18677" lon="3.74383">
        <ele>958.09</ele>
        <time>2025-02-23T14:33:00Z</time>
      </trkpt>
      <trkpt lat="45.1866" lon="3.74394">
        <ele>956.65</ele>
        <time>2025-02-23T14:33:13Z</time>
      </trkpt>
      <trkpt lat="45.18647" lon="3.74403">
        <ele>955.21</ele>
        <time>2025-02-23T14:33:25Z</time>
      </trkpt>
      <trkpt lat="45.18618" lon="3.74428">
        <ele>955.69</ele>
        <time>2025-02-23T14:33:49Z</time>
      </trkpt>
      <trkpt lat="45.18598" lon="3.74443">
        <ele>950.88</ele>
        <time>2025-02-23T14:34:07Z</time>
      </trkpt>
      <trkpt lat="45.18581" lon="3.74455">
        <ele>948</ele>
        <time>2025-02-23T14:34:20Z</time>
      </trkpt>
      <trkpt lat="45.18567" lon="3.74462">
        <ele>945.59</ele>
        <time>2025-02-23T14:34:32Z</time>
      </trkpt>
      <trkpt lat="45.18552" lon="3.74473">
        <ele>944.63</ele>
        <time>2025-02-23T14:34:45Z</time>
      </trkpt>
      <trkpt lat="45.18537" lon="3.74484">
        <ele>944.63</ele>
        <time>2025-02-23T14:34:58Z</time>
      </trkpt>
      <trkpt lat="45.18519" lon="3.74495">
        <ele>943.67</ele>
        <time>2025-02-23T14:35:12Z</time>
      </trkpt>
      <trkpt lat="45.18507" lon="3.74506">
        <ele>943.19</ele>
        <time>2025-02-23T14:35:23Z</time>
      </trkpt>
      <trkpt lat="45.18492" lon="3.74518">
        <ele>943.67</ele>
        <time>2025-02-23T14:35:35Z</time>
      </trkpt>
      <trkpt lat="45.1848" lon="3.7453">
        <ele>943.19</ele>
        <time>2025-02-23T14:35:47Z</time>
      </trkpt>
      <trkpt lat="45.18475" lon="3.74537">
        <ele>942.71</ele>
        <time>2025-02-23T14:35:53Z</time>
      </trkpt>
      <trkpt lat="45.18473" lon="3.74539">
        <ele>942.71</ele>
        <time>2025-02-23T14:35:55Z</time>
      </trkpt>
      <trkpt lat="45.18457" lon="3.74556">
        <ele>940.31</ele>
        <time>2025-02-23T14:36:09Z</time>
      </trkpt>
      <trkpt lat="45.18446" lon="3.74568">
        <ele>938.38</ele>
        <time>2025-02-23T14:36:20Z</time>
      </trkpt>
      <trkpt lat="45.18444" lon="3.74569">
        <ele>937.9</ele>
        <time>2025-02-23T14:36:21Z</time>
      </trkpt>
      <trkpt lat="45.18424" lon="3.74582">
        <ele>935.98</ele>
        <time>2025-02-23T14:36:37Z</time>
      </trkpt>
      <trkpt lat="45.18408" lon="3.74589">
        <ele>936.46</ele>
        <time>2025-02-23T14:36:49Z</time>
      </trkpt>
      <trkpt lat="45.18377" lon="3.74586">
        <ele>936.94</ele>
        <time>2025-02-23T14:37:13Z</time>
      </trkpt>
      <trkpt lat="45.18357" lon="3.74598">
        <ele>938.38</ele>
        <time>2025-02-23T14:37:31Z</time>
      </trkpt>
      <trkpt lat="45.18337" lon="3.74608">
        <ele>936.94</ele>
        <time>2025-02-23T14:37:49Z</time>
      </trkpt>
      <trkpt lat="45.18316" lon="3.74611">
        <ele>936.94</ele>
        <time>2025-02-23T14:38:06Z</time>
      </trkpt>
      <trkpt lat="45.18298" lon="3.74623">
        <ele>936.94</ele>
        <time>2025-02-23T14:38:25Z</time>
      </trkpt>
      <trkpt lat="45.18297" lon="3.74625">
        <ele>936.94</ele>
        <time>2025-02-23T14:38:26Z</time>
      </trkpt>
      <trkpt lat="45.18284" lon="3.74665">
        <ele>935.98</ele>
        <time>2025-02-23T14:38:48Z</time>
      </trkpt>
      <trkpt lat="45.18271" lon="3.74683">
        <ele>935.5</ele>
        <time>2025-02-23T14:39:09Z</time>
      </trkpt>
      <trkpt lat="45.1825" lon="3.74705">
        <ele>932.62</ele>
        <time>2025-02-23T14:39:31Z</time>
      </trkpt>
      <trkpt lat="45.18233" lon="3.74726">
        <ele>929.25</ele>
        <time>2025-02-23T14:39:50Z</time>
      </trkpt>
      <trkpt lat="45.18218" lon="3.74739">
        <ele>921.56</ele>
        <time>2025-02-23T14:40:06Z</time>
      </trkpt>
      <trkpt lat="45.18216" lon="3.74731">
        <ele>921.56</ele>
        <time>2025-02-23T14:40:23Z</time>
      </trkpt>
      <trkpt lat="45.18194" lon="3.74718">
        <ele>922.04</ele>
        <time>2025-02-23T14:40:41Z</time>
      </trkpt>
      <trkpt lat="45.1818" lon="3.74708">
        <ele>922.52</ele>
        <time>2025-02-23T14:40:57Z</time>
      </trkpt>
      <trkpt lat="45.18165" lon="3.74704">
        <ele>919.64</ele>
        <time>2025-02-23T14:41:13Z</time>
      </trkpt>
      <trkpt lat="45.18138" lon="3.74704">
        <ele>916.27</ele>
        <time>2025-02-23T14:41:30Z</time>
      </trkpt>
      <trkpt lat="45.18118" lon="3.74714">
        <ele>916.27</ele>
        <time>2025-02-23T14:41:50Z</time>
      </trkpt>
      <trkpt lat="45.18097" lon="3.74725">
        <ele>916.75</ele>
        <time>2025-02-23T14:42:09Z</time>
      </trkpt>
      <trkpt lat="45.18083" lon="3.74726">
        <ele>917.24</ele>
        <time>2025-02-23T14:42:27Z</time>
      </trkpt>
      <trkpt lat="45.18073" lon="3.74716">
        <ele>914.83</ele>
        <time>2025-02-23T14:42:46Z</time>
      </trkpt>
      <trkpt lat="45.18072" lon="3.74701">
        <ele>912.43</ele>
        <time>2025-02-23T14:43:02Z</time>
      </trkpt>
      <trkpt lat="45.18075" lon="3.74691">
        <ele>904.74</ele>
        <time>2025-02-23T14:43:26Z</time>
      </trkpt>
      <trkpt lat="45.1807" lon="3.74691">
        <ele>904.26</ele>
        <time>2025-02-23T14:43:48Z</time>
      </trkpt>
      <trkpt lat="45.18071" lon="3.74689">
        <ele>904.26</ele>
        <time>2025-02-23T14:43:49Z</time>
      </trkpt>
      <trkpt lat="45.18071" lon="3.74688">
        <ele>905.22</ele>
        <time>2025-02-23T14:44:01Z</time>
      </trkpt>
    </trkseg>
  </trk>
</gpx>